[[{"header":{"parameterUnit":"m.s-1","parameterCategory":1,"la1":30.6,"la2":29.2853,"lo1":-89.7004,"lo2":-87.6739,"dy":0.0162,"dx":0.0183,"nx":112,"ny":82,"refTime":"2026-05-23T12:00:00:Z","depth":0,"parameterNumber":2,"parameterNumberName":"U-component_of_WINDS"},"data":[0.0,0.0,0.0,0.0,0.0,0.0,0.0,0.0,0.0,0.0,0.0,0.0,0.0,0.0,0.0,0.0,0.0,0.0,0.0,0.0,0.0,0.0,0.0,0.0,0.0,0.0,0.0,0.0,0.0,0.0,0.0,0.0,0.0,0.0,0.0,0.0,0.0,0.0,0.0,0.0,0.0,0.0,0.0,0.0,0.0,0.0,0.0,0.0,0.0,0.0,0.0,0.0,0.0,0.0,0.0,0.0,0.0,0.0,0.0,0.0,0.0,0.0,0.0,0.0,0.0,0.0,0.0,0.0,0.0,0.0,0.0,0.0,0.0,0.0,0.0,0.0,0.0,0.0,0.0,0.0,0.0,0.0,0.0,0.0,0.0,0.0,0.0,0.0,0.0,0.0,-2.8733,-3.2423,-3.5917,-3.8194,-3.8673,-3.7012,-3.3907,-2.9164,0.0,0.0,0.0,0.0,0.0,0.0,0.0,0.0,0.0,0.0,0.0,0.0,0.0,0.0,0.0,0.0,0.0,0.0,0.0,0.0,0.0,0.0,0.0,0.0,0.0,0.0,0.0,0.0,0.0,0.0,0.0,0.0,0.0,0.0,0.0,0.0,0.0,0.0,0.0,0.0,0.0,0.0,0.0,0.0,0.0,0.0,0.0,0.0,0.0,0.0,0.0,0.0,0.0,0.0,0.0,0.0,0.0,0.0,0.0,0.0,0.0,0.0,0.0,0.0,0.0,0.0,0.0,0.0,0.0,0.0,0.0,0.0,0.0,0.0,0.0,0.0,0.0,0.0,0.0,0.0,0.0,0.0,0.0,0.0,0.0,0.0,0.0,0.0,0.0,0.0,0.0,0.0,0.0,0.0,0.0,0.0,0.0,0.0,0.0,0.0,0.0,0.0,0.0,0.0,-3.0641,-3.5474,-3.7209,-3.808,-3.8274,-3.6619,-3.4386,-3.1617,0.0,0.0,0.0,0.0,0.0,0.0,0.0,0.0,0.0,0.0,0.0,0.0,0.0,0.0,0.0,0.0,0.0,0.0,0.0,0.0,0.0,0.0,0.0,0.0,0.0,0.0,0.0,0.0,0.0,0.0,0.0,0.0,0.0,0.0,0.0,0.0,0.0,0.0,0.0,0.0,0.0,0.0,0.0,0.0,0.0,0.0,0.0,0.0,0.0,0.0,0.0,0.0,0.0,0.0,0.0,0.0,0.0,0.0,0.0,0.0,0.0,0.0,0.0,0.0,0.0,0.0,0.0,0.0,0.0,0.0,0.0,0.0,0.0,0.0,0.0,0.0,0.0,0.0,0.0,0.0,0.0,0.0,0.0,0.0,0.0,0.0,0.0,0.0,0.0,0.0,0.0,0.0,0.0,0.0,0.0,0.0,0.0,0.0,0.0,0.0,0.0,0.0,0.0,-3.0106,-3.1929,-3.5661,-3.6411,-3.6491,-3.6079,-3.487,-3.3122,-3.0697,-2.6741,0.0,0.0,0.0,0.0,0.0,0.0,0.0,0.0,0.0,0.0,0.0,0.0,0.0,0.0,0.0,0.0,0.0,0.0,0.0,0.0,0.0,0.0,0.0,0.0,0.0,0.0,0.0,0.0,0.0,0.0,0.0,0.0,0.0,0.0,0.0,0.0,0.0,0.0,0.0,0.0,0.0,0.0,0.0,0.0,0.0,0.0,0.0,0.0,0.0,0.0,0.0,0.0,0.0,0.0,0.0,0.0,0.0,0.0,0.0,0.0,0.0,0.0,0.0,0.0,0.0,0.0,0.0,0.0,0.0,0.0,0.0,0.0,0.0,0.0,0.0,0.0,0.0,0.0,0.0,0.0,0.0,0.0,0.0,0.0,0.0,0.0,0.0,0.0,0.0,0.0,0.0,0.0,0.0,0.0,0.0,0.0,0.0,0.0,0.0,0.0,0.0,0.0,-3.1621,-3.2737,-3.468,-3.5084,-3.4834,-3.3968,-3.2974,-3.1507,-2.9431,-2.6771,0.0,0.0,0.0,0.0,0.0,0.0,0.0,0.0,0.0,0.0,0.0,0.0,0.0,0.0,0.0,0.0,0.0,0.0,0.0,0.0,0.0,0.0,0.0,0.0,0.0,0.0,0.0,0.0,0.0,0.0,0.0,0.0,0.0,0.0,0.0,0.0,0.0,0.0,0.0,0.0,0.0,0.0,0.0,0.0,0.0,0.0,0.0,0.0,0.0,0.0,0.0,0.0,0.0,0.0,0.0,0.0,0.0,0.0,0.0,0.0,0.0,0.0,0.0,0.0,0.0,0.0,0.0,0.0,0.0,0.0,0.0,0.0,0.0,0.0,0.0,0.0,0.0,0.0,0.0,0.0,0.0,0.0,0.0,0.0,0.0,0.0,0.0,0.0,0.0,0.0,0.0,0.0,0.0,0.0,0.0,0.0,0.0,0.0,0.0,0.0,0.0,0.0,-3.1359,-3.2872,-3.3064,-3.3814,-3.393,-3.3064,-3.1506,-3.022,-2.935,-2.6157,0.0,0.0,0.0,0.0,0.0,0.0,0.0,0.0,0.0,0.0,0.0,0.0,0.0,0.0,0.0,0.0,0.0,0.0,0.0,0.0,0.0,0.0,0.0,0.0,0.0,0.0,0.0,0.0,0.0,0.0,0.0,0.0,0.0,0.0,0.0,0.0,0.0,0.0,0.0,0.0,0.0,0.0,0.0,0.0,0.0,0.0,0.0,0.0,0.0,0.0,0.0,0.0,0.0,0.0,0.0,0.0,0.0,0.0,0.0,0.0,0.0,0.0,0.0,0.0,0.0,0.0,0.0,0.0,0.0,0.0,0.0,0.0,0.0,0.0,0.0,0.0,0.0,0.0,0.0,0.0,0.0,0.0,0.0,0.0,0.0,0.0,0.0,0.0,0.0,0.0,0.0,0.0,0.0,0.0,0.0,0.0,0.0,0.0,0.0,0.0,0.0,0.0,-3.009,-3.1737,-3.2795,-3.3179,-3.3045,-3.2218,-3.1083,-2.961,-2.7799,0.0,0.0,0.0,0.0,0.0,0.0,0.0,0.0,0.0,0.0,0.0,0.0,0.0,0.0,0.0,0.0,0.0,0.0,0.0,0.0,0.0,0.0,0.0,0.0,0.0,0.0,0.0,0.0,0.0,0.0,0.0,0.0,0.0,0.0,0.0,0.0,0.0,0.0,0.0,0.0,0.0,0.0,0.0,0.0,0.0,0.0,0.0,0.0,0.0,0.0,0.0,0.0,0.0,0.0,0.0,0.0,0.0,0.0,0.0,0.0,0.0,0.0,0.0,0.0,0.0,0.0,0.0,0.0,0.0,0.0,0.0,0.0,0.0,0.0,0.0,0.0,0.0,0.0,0.0,0.0,0.0,0.0,0.0,0.0,0.0,0.0,0.0,0.0,0.0,0.0,0.0,0.0,0.0,0.0,0.0,0.0,0.0,0.0,0.0,0.0,0.0,0.0,-2.7236,-2.9429,-3.1141,-3.2006,-3.2352,-3.2179,-3.1371,-3.0256,-2.8771,-2.6823,0.0,0.0,0.0,0.0,0.0,0.0,0.0,0.0,0.0,0.0,0.0,0.0,0.0,0.0,0.0,0.0,0.0,0.0,0.0,0.0,0.0,0.0,0.0,0.0,0.0,0.0,0.0,0.0,0.0,0.0,0.0,0.0,0.0,0.0,0.0,0.0,0.0,0.0,0.0,0.0,0.0,0.0,0.0,0.0,0.0,0.0,0.0,0.0,0.0,0.0,0.0,0.0,0.0,0.0,0.0,0.0,0.0,0.0,0.0,0.0,0.0,0.0,0.0,0.0,0.0,0.0,0.0,0.0,0.0,0.0,0.0,0.0,0.0,0.0,0.0,0.0,0.0,0.0,0.0,0.0,0.0,0.0,0.0,0.0,0.0,0.0,0.0,0.0,0.0,0.0,0.0,0.0,0.0,0.0,0.0,0.0,0.0,0.0,0.0,0.0,0.0,0.0,-2.6467,-2.9563,-3.1352,-3.0494,-3.1179,-3.1333,-3.0456,-2.8852,-2.7557,0.0,0.0,0.0,0.0,0.0,0.0,0.0,0.0,0.0,0.0,0.0,0.0,0.0,0.0,0.0,0.0,0.0,0.0,0.0,0.0,0.0,0.0,0.0,0.0,0.0,0.0,0.0,0.0,0.0,0.0,0.0,0.0,0.0,0.0,0.0,0.0,0.0,0.0,0.0,0.0,0.0,0.0,0.0,0.0,0.0,0.0,0.0,0.0,0.0,0.0,0.0,0.0,0.0,0.0,0.0,0.0,0.0,0.0,0.0,0.0,0.0,0.0,0.0,0.0,0.0,0.0,0.0,0.0,0.0,0.0,0.0,0.0,0.0,0.0,0.0,0.0,0.0,0.0,0.0,0.0,0.0,0.0,0.0,0.0,0.0,0.0,0.0,0.0,0.0,0.0,0.0,0.0,0.0,0.0,0.0,0.0,0.0,0.0,0.0,0.0,0.0,0.0,0.0,-2.5562,-2.8011,-2.9858,-3.0359,-3.0641,-3.0429,-2.9563,-2.8506,-2.7026,-2.5003,0.0,0.0,0.0,0.0,0.0,0.0,0.0,0.0,0.0,0.0,0.0,0.0,0.0,0.0,0.0,0.0,0.0,0.0,0.0,0.0,0.0,0.0,0.0,0.0,0.0,0.0,0.0,0.0,0.0,0.0,0.0,0.0,0.0,0.0,0.0,0.0,0.0,0.0,0.0,0.0,0.0,0.0,0.0,0.0,0.0,0.0,0.0,0.0,0.0,0.0,0.0,0.0,0.0,0.0,0.0,0.0,0.0,0.0,0.0,0.0,0.0,0.0,0.0,0.0,0.0,0.0,0.0,0.0,0.0,0.0,0.0,0.0,0.0,0.0,0.0,0.0,0.0,0.0,0.0,0.0,0.0,0.0,0.0,0.0,0.0,0.0,0.0,0.0,0.0,0.0,0.0,0.0,0.0,0.0,0.0,0.0,0.0,0.0,0.0,0.0,0.0,0.0,-2.5064,-2.6956,-2.8602,-2.9647,-2.9468,-2.9102,-2.8659,-2.7788,-2.6357,-2.4225,0.0,0.0,0.0,0.0,0.0,0.0,0.0,0.0,0.0,0.0,0.0,0.0,0.0,0.0,0.0,0.0,0.0,0.0,0.0,0.0,0.0,0.0,0.0,0.0,0.0,0.0,0.0,0.0,0.0,0.0,0.0,0.0,0.0,0.0,0.0,0.0,0.0,0.0,0.0,0.0,0.0,0.0,0.0,0.0,0.0,0.0,0.0,0.0,0.0,0.0,0.0,0.0,0.0,0.0,0.0,0.0,0.0,0.0,0.0,0.0,0.0,0.0,0.0,0.0,0.0,0.0,0.0,0.0,0.0,0.0,0.0,0.0,0.0,0.0,0.0,0.0,0.0,0.0,0.0,0.0,0.0,0.0,0.0,0.0,0.0,0.0,0.0,0.0,0.0,0.0,0.0,0.0,0.0,0.0,0.0,0.0,0.0,0.0,0.0,0.0,0.0,0.0,-2.4778,-2.6214,-2.7544,-2.8541,-2.8011,-2.7631,-2.7753,-2.6871,-2.565,-2.4178,0.0,0.0,0.0,0.0,0.0,0.0,0.0,0.0,0.0,0.0,0.0,0.0,0.0,0.0,0.0,0.0,0.0,0.0,0.0,0.0,0.0,0.0,0.0,0.0,0.0,0.0,0.0,0.0,0.0,0.0,0.0,0.0,0.0,0.0,0.0,0.0,0.0,0.0,0.0,0.0,0.0,0.0,0.0,0.0,0.0,0.0,0.0,0.0,0.0,0.0,0.0,0.0,0.0,0.0,0.0,0.0,0.0,0.0,0.0,0.0,-2.5069,-2.4211,0.0,0.0,0.0,0.0,0.0,0.0,0.0,0.0,0.0,0.0,0.0,0.0,0.0,0.0,0.0,0.0,0.0,0.0,0.0,0.0,0.0,0.0,0.0,0.0,0.0,0.0,0.0,0.0,0.0,0.0,0.0,0.0,0.0,0.0,0.0,0.0,0.0,0.0,0.0,0.0,-2.3933,-2.5223,-2.6451,-2.7506,-2.7613,-2.7345,-2.6701,-2.6435,-2.5602,-2.3976,-2.3029,0.0,0.0,0.0,0.0,0.0,0.0,0.0,0.0,0.0,0.0,0.0,0.0,0.0,0.0,0.0,0.0,0.0,0.0,0.0,0.0,0.0,0.0,0.0,0.0,0.0,0.0,0.0,0.0,0.0,0.0,0.0,0.0,0.0,0.0,0.0,0.0,0.0,0.0,0.0,0.0,0.0,0.0,0.0,0.0,0.0,0.0,0.0,0.0,0.0,0.0,0.0,0.0,0.0,0.0,0.0,0.0,0.0,0.0,0.0,-2.741,-2.6741,0.0,0.0,0.0,0.0,0.0,0.0,0.0,0.0,0.0,0.0,0.0,0.0,0.0,0.0,0.0,0.0,0.0,0.0,0.0,0.0,0.0,0.0,0.0,0.0,0.0,0.0,0.0,0.0,0.0,0.0,0.0,0.0,0.0,0.0,0.0,0.0,0.0,0.0,0.0,0.0,-2.3492,-2.4407,-2.5391,-2.642,-2.6268,-2.6001,-2.5704,-2.5522,-2.4983,-2.3881,-2.319,0.0,0.0,0.0,0.0,0.0,0.0,0.0,0.0,0.0,0.0,0.0,0.0,0.0,0.0,0.0,0.0,0.0,0.0,0.0,0.0,0.0,0.0,0.0,0.0,0.0,0.0,0.0,0.0,0.0,0.0,0.0,0.0,0.0,0.0,0.0,0.0,0.0,0.0,0.0,0.0,0.0,0.0,0.0,0.0,0.0,0.0,0.0,0.0,0.0,0.0,0.0,0.0,0.0,-2.8679,-2.8753,-2.8146,-2.9414,-3.0019,-3.0086,-2.9828,-2.9441,-2.8883,-2.7585,0.0,0.0,0.0,0.0,0.0,0.0,0.0,0.0,0.0,0.0,0.0,0.0,0.0,0.0,0.0,0.0,0.0,0.0,0.0,0.0,0.0,0.0,0.0,0.0,-2.3217,-2.3033,-2.2354,0.0,0.0,0.0,0.0,0.0,0.0,0.0,0.0,0.0,0.0,0.0,-2.3266,-2.3727,-2.4358,-2.5319,-2.4627,-2.4301,-2.486,-2.4516,-2.4192,-2.3936,-2.3476,-2.2424,0.0,0.0,0.0,0.0,0.0,0.0,0.0,0.0,0.0,0.0,0.0,0.0,0.0,0.0,0.0,0.0,0.0,0.0,0.0,0.0,0.0,0.0,0.0,0.0,0.0,0.0,0.0,0.0,0.0,0.0,0.0,0.0,-2.4631,-2.5412,0.0,0.0,0.0,0.0,0.0,0.0,0.0,0.0,0.0,0.0,0.0,0.0,0.0,-2.5547,-2.7099,-2.7485,-2.7709,-2.7811,-2.9255,-2.9884,-2.9816,-3.0974,-3.174,-3.2154,-3.2499,0.0,-2.8975,-2.8755,0.0,0.0,0.0,0.0,0.0,0.0,0.0,0.0,0.0,0.0,0.0,0.0,0.0,0.0,0.0,0.0,0.0,0.0,0.0,0.0,0.0,0.0,-2.5768,-2.4373,-2.4043,-2.4006,0.0,-2.2812,-2.1579,-2.0717,-2.1263,0.0,0.0,0.0,0.0,0.0,0.0,0.0,-2.3119,-2.3195,-2.3474,-2.4301,-2.3167,-2.294,-2.4444,-2.3892,-2.3726,-2.4372,-2.3657,-2.316,-2.304,-2.2569,0.0,0.0,0.0,0.0,0.0,0.0,0.0,0.0,0.0,0.0,0.0,0.0,0.0,0.0,0.0,0.0,0.0,0.0,0.0,0.0,0.0,0.0,0.0,0.0,0.0,0.0,0.0,0.0,0.0,-2.4946,-2.6119,-2.586,-2.5264,-2.4373,0.0,0.0,0.0,0.0,0.0,0.0,0.0,0.0,0.0,-2.6457,-2.6536,-2.7265,-2.8817,-2.8996,-2.9516,-3.0328,-3.0581,-3.0937,-3.1365,-3.1674,-3.1915,-3.2127,-3.2872,-3.2242,-3.062,-2.9948,-2.8998,-2.786,0.0,0.0,0.0,0.0,-2.6374,-2.619,-2.6998,-2.7034,-2.6594,-2.5697,0.0,0.0,0.0,0.0,0.0,0.0,0.0,-2.5256,0.0,0.0,-2.5621,-2.4483,-2.419,-2.419,-2.419,-2.3639,-2.2905,0.0,-2.226,-2.2033,-2.0388,0.0,0.0,0.0,0.0,-2.1953,-2.1857,-2.2531,-2.296,-2.285,-2.2275,-2.2205,-2.3039,-2.2685,-2.2632,-2.3076,-2.3078,-2.2965,-2.2667,-2.2797,-2.242,0.0,0.0,0.0,0.0,0.0,0.0,0.0,0.0,0.0,0.0,0.0,0.0,0.0,0.0,0.0,0.0,0.0,0.0,0.0,0.0,0.0,0.0,0.0,0.0,0.0,0.0,0.0,0.0,-2.6623,-2.7226,-2.6413,-2.65,-2.5823,0.0,0.0,0.0,0.0,0.0,0.0,-2.5616,-2.5695,-2.6522,-2.8408,-2.8439,-2.9042,-3.0378,-3.0581,-3.1207,-3.2313,-3.1918,-3.1935,-3.2297,-3.2038,-3.1869,-3.1861,-3.2681,-3.2751,-3.222,-3.0995,-3.0026,-2.9182,-2.7769,-2.709,-2.6943,-2.7145,-2.709,-2.7016,-2.7824,-2.797,-2.764,-2.6631,-2.6025,-2.5328,-2.3346,0.0,0.0,0.0,0.0,-2.5935,-2.5513,-2.555,-2.5438,-2.4428,-2.419,-2.419,-2.419,-2.419,-2.3951,0.0,-2.318,-2.2795,-2.1125,0.0,0.0,-2.0274,-2.1167,-2.1723,-2.1127,-2.1815,-2.2226,-2.1839,-2.1417,-2.1373,-2.19,-2.1646,-2.1613,-2.1919,-2.2422,-2.2479,-2.2024,-2.2787,-2.2902,-2.2246,0.0,0.0,0.0,0.0,0.0,0.0,0.0,0.0,0.0,0.0,0.0,0.0,0.0,0.0,0.0,0.0,0.0,0.0,0.0,0.0,0.0,0.0,0.0,0.0,0.0,0.0,0.0,0.0,0.0,-2.7997,-2.916,0.0,0.0,0.0,0.0,-2.5402,-2.5407,-2.5759,-2.6605,-2.73,-2.8044,-2.8926,-2.9617,-3.0362,-3.114,-3.1833,-3.2246,-3.229,-3.2966,-3.2933,-3.2313,-3.228,-3.2098,-3.1825,-3.2298,-3.2759,-3.3063,-3.1861,-3.087,-3.0063,-2.9195,-2.8411,-2.7824,-2.8613,-2.8411,-2.7842,-2.8668,-2.8448,-2.7915,-2.8613,-2.7805,-2.6374,-2.5495,-2.5256,0.0,0.0,-2.6465,-2.7328,-2.5807,-2.597,-2.6135,-2.4575,-2.419,-2.419,-2.419,-2.419,-2.3951,0.0,-2.3621,-2.3621,-2.2006,0.0,-2.2629,-2.1803,-2.1748,-2.1784,-2.1748,-2.1088,-2.0941,-2.1729,-2.0388,-2.0076,-2.1673,-2.1051,-2.0923,-2.1765,-2.1839,-2.1904,-2.201,-2.2834,-2.2967,-2.2305,-2.2262,0.0,0.0,0.0,0.0,0.0,0.0,0.0,0.0,0.0,0.0,0.0,0.0,0.0,0.0,0.0,0.0,0.0,0.0,0.0,0.0,0.0,0.0,0.0,0.0,0.0,0.0,0.0,0.0,-3.0249,-3.1127,0.0,-2.8705,-2.813,-2.7861,-2.7763,-2.7552,-2.7894,-2.8822,-2.96,-3.0125,-3.0395,-3.1123,-3.163,-3.1884,-3.2154,-3.2763,-3.3694,-3.3508,-3.3508,-3.3677,-3.2713,-3.2241,-3.2132,-3.2121,-3.2196,-3.2278,-3.1923,-3.1454,-3.0889,-3.0099,-2.9292,-2.8613,-2.8883,-2.8833,-2.8613,-2.8883,-2.8815,-2.8539,-2.8301,-2.7493,-2.6557,-2.6264,-2.6521,-2.6924,-2.6924,-2.7346,-2.7548,-2.6465,-2.5988,-2.5548,-2.4465,-2.419,-2.419,-2.419,-2.419,-2.4116,-2.3823,-2.4006,-2.3841,-2.2758,-2.2813,-2.274,-2.1931,-2.1803,-2.1584,-2.1051,-2.0686,-2.0427,-2.0207,-1.9672,-1.9543,-2.015,-1.9913,-1.9858,-2.0186,-2.0684,-2.0974,-2.1034,-2.1865,-2.2212,-2.198,-2.2051,-2.155,0.0,0.0,0.0,0.0,0.0,0.0,0.0,0.0,0.0,0.0,0.0,0.0,0.0,0.0,0.0,0.0,0.0,0.0,0.0,0.0,0.0,0.0,0.0,0.0,0.0,-3.0793,-3.1942,-3.1831,-3.3018,-3.3109,-3.1201,-3.0701,-3.0476,-3.044,-2.9934,-2.9938,-3.0643,-3.0997,-3.1309,-3.1546,-3.2036,-3.2408,-3.2662,-3.2899,-3.3525,-3.4489,-3.4269,-3.4269,-3.4455,-3.322,-3.2527,-3.228,-3.1984,-3.1842,-3.1809,-3.2255,-3.1936,-3.1115,-3.0455,-2.9714,-2.9012,-2.931,-2.9214,-2.8994,-2.8994,-2.8994,-2.8902,-2.8374,-2.7842,-2.742,-2.742,-2.7787,-2.8209,-2.8209,-2.8007,-2.7603,-2.6814,-2.5988,-2.5201,-2.4392,-2.419,-2.419,-2.419,-2.419,-2.419,-2.419,-2.419,-2.4025,-2.3511,-2.34,-2.3033,-2.1968,-2.1803,-2.1382,-2.0244,-2.0097,-1.9895,-1.9344,-1.9305,-1.9305,-1.9305,-1.9305,-1.9305,-1.9305,-1.9803,-2.0097,-2.0097,-2.0904,-2.1363,-2.1363,-2.1443,-2.0967,-1.9888,0.0,0.0,0.0,0.0,0.0,0.0,0.0,0.0,0.0,0.0,0.0,0.0,0.0,0.0,0.0,0.0,0.0,0.0,0.0,0.0,0.0,0.0,0.0,-3.0602,-3.1808,-3.2724,-3.2761,-3.4871,-3.5385,-3.2999,-3.3782,-3.4135,-3.334,-3.2437,-3.1894,-3.1894,-3.1551,-3.1653,-3.229,-3.2381,-3.2696,-3.344,-3.4134,-3.4506,-3.4539,-3.5267,-3.5233,-3.4506,-3.3744,-3.3,-3.2313,-3.1929,-3.1789,-3.1844,-3.2809,-3.2234,-3.0774,-3.0428,-2.9769,-2.9122,-2.9953,-2.9732,-2.9012,-2.8994,-2.8994,-2.8994,-2.8994,-2.8994,-2.8994,-2.8994,-2.8994,-2.8994,-2.8994,-2.8429,-2.7603,-2.6814,-2.5988,-2.5201,-2.4392,-2.419,-2.419,-2.419,-2.419,-2.419,-2.419,-2.419,-2.419,-2.419,-2.4171,-2.3639,-2.2115,-2.1821,0.0,-1.958,-1.9326,-1.9305,-1.9305,-1.9305,-1.9305,-1.9305,-1.9305,-1.9305,-1.9305,-1.9305,-1.9305,-1.9305,-2.006,-2.0466,-2.0503,-2.0484,-1.9696,-1.8151,0.0,0.0,0.0,0.0,0.0,0.0,0.0,0.0,0.0,0.0,0.0,0.0,0.0,0.0,0.0,0.0,0.0,0.0,0.0,0.0,0.0,-3.1355,-3.2383,-3.2269,-3.4002,-3.5495,-3.6064,-3.6743,-3.689,-3.6211,-3.5923,-3.5545,-3.4979,-3.4702,-3.4268,-3.3599,-3.3926,-3.3842,-3.3102,-3.3609,-3.3981,-3.4201,-3.4387,-3.4776,-3.5318,-3.552,-3.5504,-3.5267,-3.3981,-3.3288,-3.3017,-3.1873,-3.1351,-3.1411,-3.2316,-3.2094,-3.1199,-3.1728,-3.1091,-2.9971,-3.076,-3.0558,-2.9787,-2.9195,-2.8994,-2.8994,-2.8994,-2.8994,-2.8994,-2.8994,-2.8994,-2.8994,-2.8994,-2.8429,-2.7603,-2.6814,-2.5988,-2.5201,-2.4392,-2.419,-2.419,-2.419,-2.419,-2.419,-2.419,-2.419,-2.419,-2.419,-2.3731,-2.3382,-2.3511,-2.2006,-2.0923,-2.1105,-2.0058,-1.9305,-1.9305,-1.9305,-1.9305,-1.9305,-1.9305,-1.9305,-1.9305,-1.9305,-1.9305,-1.9305,-1.951,-1.9895,-2.0484,-1.9932,-1.9399,0.0,0.0,0.0,0.0,0.0,0.0,0.0,0.0,0.0,0.0,0.0,0.0,0.0,0.0,0.0,0.0,0.0,0.0,0.0,0.0,0.0,0.0,-3.331,-3.4591,-3.4807,-3.5975,-3.7092,-3.79,-3.7991,-3.7991,-3.7991,-3.7257,-3.6673,-3.6406,-3.5905,-3.5367,-3.4818,-3.4815,-3.4634,-3.4206,-3.4381,-3.4641,-3.4962,-3.4962,-3.5182,-3.5622,-3.5622,-3.5622,-3.5571,-3.4083,-3.3406,-3.3322,-3.1833,-3.119,-3.1252,-3.195,-3.1841,0.0,0.0,0.0,0.0,0.0,-3.0797,-3.054,-2.9402,-2.8994,-2.8994,-2.8994,-2.8994,-2.8994,-2.8994,-2.8994,-2.8994,-2.8994,-2.8429,-2.7603,-2.6814,-2.5988,-2.5201,-2.4392,-2.419,-2.419,-2.419,-2.419,-2.419,-2.419,-2.419,0.0,-2.419,-2.3804,-2.3437,-2.3217,-2.1969,-2.0978,-2.0792,-1.9911,-1.9305,-1.9305,-1.9305,-1.9305,-1.9305,-1.9305,0.0,0.0,0.0,-1.9305,-1.9305,-1.9305,0.0,0.0,0.0,0.0,0.0,0.0,0.0,0.0,-1.8342,-1.8789,0.0,0.0,0.0,0.0,0.0,0.0,0.0,0.0,0.0,0.0,0.0,0.0,0.0,0.0,0.0,0.0,-3.5261,-3.6924,-3.7555,-3.7624,-3.79,-3.8615,-3.8707,-3.8707,-3.8707,-3.8046,-3.7624,-3.7624,-3.6589,-3.5915,-3.5851,-3.5084,0.0,0.0,0.0,-3.4972,-3.5605,-3.5622,-3.5622,-3.5622,-3.5537,-3.5504,-3.5453,-3.3964,-3.3288,-3.3203,-3.1799,-3.119,-3.123,-3.1623,-3.1655,-3.1487,-3.2301,-3.2173,-3.1439,-3.0632,-3.0723,-3.1035,-2.9549,0.0,0.0,-2.8994,-2.8994,-2.8994,-2.8994,-2.8994,-2.8994,-2.8994,-2.8503,-2.7732,-2.6833,-2.6062,-2.5311,-2.441,-2.419,-2.419,-2.419,-2.419,-2.419,-2.419,-2.419,-2.419,-2.419,-2.4116,-2.3584,-2.2134,-2.1767,-2.1106,-1.962,-1.9344,-1.9305,-1.9305,-1.9305,0.0,-1.9305,-1.9305,-1.9305,-1.9305,-1.9305,-1.9305,-1.9305,-1.9305,-1.9305,-1.9305,-1.9305,-1.9305,-1.9289,-1.9117,-1.9018,-1.9002,-1.8968,-1.9344,0.0,0.0,0.0,0.0,0.0,0.0,0.0,0.0,0.0,0.0,0.0,0.0,0.0,0.0,0.0,-3.5541,-3.6712,-3.7603,-3.8358,-3.8469,-3.8524,-3.8689,-3.8707,-3.8707,-3.8707,-3.856,-3.8469,-3.8469,-3.8242,-3.7908,-3.7476,-3.7288,-3.6895,-3.6191,-3.6084,-3.59,-3.5622,-3.5622,-3.5622,-3.556,-3.5013,0.0,-3.4658,-3.3169,-3.2493,-3.2442,-3.1562,-3.119,-3.123,-3.1623,-3.1969,-3.2299,-3.252,-3.2504,-3.2284,-3.1458,-3.0852,-3.0283,-2.9347,-2.8994,-2.8994,-2.8994,-2.8994,-2.8994,-2.8994,-2.8994,0.0,-2.8994,-2.8906,-2.8448,-2.6979,-2.6484,-2.6007,-2.4538,-2.419,-2.419,-2.419,-2.419,-2.419,-2.419,-2.419,-2.419,-2.419,-2.3657,-2.3144,-2.2813,-2.162,-2.0631,-2.0301,-1.9693,-1.9305,-1.9305,-1.9305,-1.9305,-1.9305,-1.9305,-1.9305,-1.9305,-1.9305,-1.9305,-1.9305,-1.9305,-1.9305,-1.9305,-1.9305,-1.9305,-1.9305,-1.9259,-1.9166,-1.9002,-1.9162,-1.9412,0.0,0.0,0.0,0.0,0.0,0.0,0.0,0.0,0.0,0.0,0.0,-3.0408,-3.2745,0.0,-3.5173,-3.6796,-3.765,-3.823,-3.8652,-3.8707,-3.8707,-3.8707,-3.8707,-3.8707,-3.8707,-3.8707,-3.8707,-3.8707,-3.8707,-3.8578,-3.83,-3.8065,-3.756,-3.6843,-3.6539,-3.6139,-3.5622,-3.5622,-3.5622,-3.5605,-3.4844,-3.4489,-3.4438,-3.2949,-3.2313,-3.2239,-3.1512,-3.119,-3.123,-3.1623,-3.1915,-3.2126,-3.2025,-3.2107,-3.222,-3.1627,-3.0889,-3.0081,-2.9292,-2.8994,-2.8994,-2.8994,-2.8994,-2.8952,-2.8749,-2.8682,-2.8682,-2.8682,-2.8682,-2.8385,-2.6973,-2.6612,-2.619,-2.4575,-2.419,-2.419,-2.419,-2.419,-2.419,-2.419,-2.419,-2.419,-2.419,-2.3529,-2.2868,-2.2464,-2.1327,-2.0338,-1.995,-1.9546,-1.9305,-1.9305,-1.9305,-1.9305,-1.9305,-1.9305,-1.9305,-1.9305,-1.9305,-1.9305,-1.9305,-1.9305,-1.9305,-1.9305,-1.9305,-1.9305,-1.9305,-1.9305,-1.9198,-1.902,-1.9729,-2.0044,0.0,0.0,0.0,0.0,0.0,0.0,0.0,-2.779,-2.9021,-3.1482,-3.2177,-3.3053,-3.5379,-3.6215,-3.6798,-3.7588,-3.8267,-3.8707,-3.8707,-3.8707,-3.8707,-3.8707,-3.8707,-3.8707,-3.8707,-3.8707,-3.8707,-3.8707,-3.8707,-3.8707,-3.8707,-3.83,-3.7843,-3.736,-3.6904,-3.644,-3.5941,-3.5827,-3.5739,-3.5722,-3.4752,-3.4286,-3.4235,-3.2747,-3.211,-3.2036,-3.1444,-3.119,-3.1213,-3.1391,-3.1558,-3.1647,-3.137,-3.1355,-3.1494,-3.1164,-3.0583,-2.9879,-2.9237,-2.8994,-2.8994,-2.8994,-2.8952,-2.8839,-2.8496,-2.835,-2.8316,-2.8376,-2.8294,-2.7911,-2.6874,-2.6484,-2.6007,-2.4538,-2.419,-2.419,-2.419,-2.419,-2.419,-2.419,-2.419,-2.419,-2.419,-2.34,-2.2556,-2.1913,-2.107,-2.0225,-1.9399,-1.9305,-1.9305,-1.9305,-1.9305,-1.9305,-1.9305,-1.9305,-1.9305,-1.9305,-1.9305,-1.9305,-1.9305,-1.9305,-1.9305,-1.9305,-1.9305,-1.9305,-1.9305,-1.9305,-1.9198,-1.9038,-2.0299,-2.071,-2.6357,-2.6132,-2.6558,-2.8411,-2.8632,-2.9249,0.0,-3.2019,-3.1559,-3.3928,-3.4353,-3.4911,-3.6897,-3.7305,-3.7624,-3.8432,-3.8652,-3.8707,-3.8707,-3.8707,-3.8707,-3.8707,-3.8707,-3.8707,-3.8707,-3.8707,-3.8707,-3.8707,-3.8707,-3.8707,-3.8707,-3.8627,-3.8382,-3.7843,-3.7755,-3.7488,-3.7038,-3.6563,-3.6291,-3.6291,-3.444,-3.3525,-3.3474,-3.1985,-3.1309,-3.1309,-3.1241,-3.119,-3.114,-3.0518,-3.0675,-3.1244,-3.0923,-3.0368,-2.9772,-2.9797,-2.9526,-2.9104,-2.9012,-2.8994,-2.8994,-2.8994,-2.8749,-2.8446,-2.8402,-2.8183,-2.8037,-2.8316,-2.7871,-2.723,-2.6728,-2.6062,-2.5311,-2.441,-2.419,-2.419,-2.419,-2.419,-2.419,-2.419,-2.419,-2.419,-2.419,-2.2942,-2.1913,-2.1821,-2.107,-2.0225,-1.9399,-1.9305,-1.9305,-1.9305,-1.9305,-1.9305,-1.9305,-1.9305,-1.9305,-1.9305,-1.9305,-1.9305,-1.9305,-1.9305,-1.9305,-1.9305,-1.9305,-1.9305,-1.9305,-1.9305,-1.9198,-1.9038,-2.055,-2.0948,-2.7892,-2.8116,-2.823,-2.8789,-3.0372,-3.2004,-3.2745,-3.2712,-3.3222,-3.5701,-3.6001,-3.6304,-3.7897,-3.8193,-3.845,-3.9258,-3.9405,-3.9405,-3.9405,-3.9405,-3.9221,-3.8762,-3.8707,-3.8707,-3.8707,-3.8707,-3.8707,-3.8707,-3.8707,-3.8707,-3.8707,-3.8707,-3.8465,-3.7911,-3.7893,-3.7685,-3.721,-3.6684,-3.6374,-3.6357,-3.4651,-3.3825,-3.3774,-3.2515,-3.1823,-3.1545,-3.1291,-3.119,-3.1173,-3.0869,-3.092,-3.1111,-3.0114,-2.9626,-2.9537,-3.0094,-2.96,-2.8682,-2.8929,-2.8839,-2.8658,-2.8658,-2.8412,-2.8075,-2.7833,-2.766,-2.7531,-2.7459,-2.7166,-2.6759,-2.6081,-2.564,-2.5201,-2.4392,-2.419,-2.419,-2.419,-2.419,-2.419,-2.419,-2.419,-2.419,-2.419,-2.2868,-2.1803,-2.1803,-2.0566,-1.9517,-1.9172,-1.8982,-1.8895,-1.8895,-1.9033,-1.9117,-1.9117,-1.9227,-1.9305,-1.9305,-1.9305,-1.9305,-1.9305,-1.9305,-1.9305,-1.9305,-1.9305,-1.9305,-1.9305,-1.9305,-1.9198,-1.902,-1.9933,-2.0379,-2.8192,-2.9036,-2.9492,-2.9042,-3.1448,-3.3712,-3.2825,-3.3225,-3.442,-3.6746,-3.7017,-3.721,-3.8486,-3.8707,-3.8964,-3.9772,-3.99,-3.9974,-4.0194,-4.0029,-3.968,-3.9093,-3.8836,-3.8707,-3.8707,-3.8707,-3.8707,-3.8707,-3.8707,-3.8707,-3.8707,-3.8707,-3.8515,-3.8132,-3.8099,-3.7964,-3.7596,-3.7097,-3.6764,-3.6586,-3.5122,-3.4315,-3.4073,-3.3002,-3.223,-3.1789,-3.1507,-3.1291,-3.1173,-3.097,-3.0903,-3.0768,-2.9482,-2.9021,-2.9127,-2.9867,-2.9336,-2.829,-2.8601,-2.8507,-2.8264,-2.8264,-2.802,-2.7678,-2.7378,-2.7165,-2.6931,-2.6739,-2.6392,-2.5922,-2.5387,-2.5098,-2.4769,-2.4202,-2.4113,-2.419,-2.419,-2.419,-2.419,-2.419,-2.419,-2.4135,-2.3914,-2.2667,-2.1624,-2.1404,-1.9885,-1.8825,-1.8966,-1.877,-1.8585,-1.8585,-1.877,-1.8896,-1.8896,-1.9101,-1.923,-1.923,-1.9259,-1.9305,-1.9305,-1.9305,-1.9305,-1.9305,-1.9305,-1.9305,-1.9305,-1.9305,-1.923,-1.9104,-1.9517,-1.9872,-2.6527,-2.7873,-2.9635,-2.9741,-3.1667,-3.3642,-3.4129,-3.4442,-3.5162,-3.6928,-3.7186,-3.7416,-3.8497,-3.8707,-3.8964,-3.9772,-3.99,-4.0175,-4.0965,-4.0396,-3.9882,-3.9863,-3.9166,-3.8707,-3.8707,-3.8707,-3.8707,-3.8707,-3.8707,-3.8707,-3.8707,-3.8707,-3.8707,-3.8676,-3.8676,-3.8658,-3.8658,-3.8099,-3.7614,-3.7173,-3.588,-3.4857,-3.4073,-3.3002,-3.223,-3.1789,-3.1789,-3.1565,-3.114,-3.0429,-3.0142,-3.0074,-2.9296,-2.8518,-2.7911,-2.8318,-2.8259,-2.7926,-2.7926,-2.7926,-2.7926,-2.7926,-2.7648,-2.7334,-2.7286,-2.677,-2.6212,-2.6599,-2.5579,-2.4453,-2.4833,-2.4346,-2.375,-2.3714,-2.3958,-2.419,-2.419,-2.419,-2.419,-2.419,-2.419,-2.3951,-2.318,-2.2136,-2.1151,-2.0373,-1.9098,-1.841,-1.8931,-1.877,-1.8585,-1.8585,-1.8604,-1.8604,-1.8604,-1.8861,-1.9001,-1.9001,-1.9198,-1.9305,-1.9305,-1.9305,-1.9305,-1.9305,-1.9305,-1.9305,-1.9305,-1.9305,-1.9289,-1.9292,-1.9558,-1.9714,-2.9145,-3.061,-3.1698,-3.1562,-3.3076,-3.4576,-3.4356,-3.4642,-3.5252,-3.6284,-3.6406,-3.6471,-3.7016,-3.7533,-3.834,-3.968,-4.0359,-4.0983,-4.1791,-4.1662,-4.1093,-4.0029,-3.9662,-3.9294,-3.8762,-3.8707,-3.8707,-3.8707,-3.8707,-3.8707,-3.8707,-3.8707,-3.8707,-3.8707,-3.8707,-3.8707,-3.8707,-3.8183,-3.7825,-3.7631,-3.6667,-3.6003,-3.5515,-3.4289,-3.3479,-3.302,-3.2177,-3.1565,-3.1173,-3.092,-3.0548,-3.004,-2.9279,-2.8501,-2.7757,-2.7419,-2.7209,-2.7178,-2.7707,-2.7725,-2.75,-2.75,-2.7241,-2.6971,-2.721,-2.6753,-2.6073,-2.594,-2.512,-2.4226,-2.3857,-2.3565,-2.3414,-2.3649,-2.3795,-2.3917,-2.4151,-2.419,-2.419,-2.419,-2.419,-2.4116,-2.3841,-2.2464,-2.082,-1.9129,-1.8487,-1.8208,-1.8208,-1.8142,-1.8078,-1.8078,-1.8229,-1.833,-1.833,-1.8752,-1.9002,-1.9002,-1.9198,-1.9305,-1.9305,-1.9305,-1.9305,-1.9305,-1.9305,-1.9305,-1.9305,-1.9305,-1.9305,-1.9289,-1.9076,-1.922,-3.0813,-3.2065,-3.2711,-3.2492,-3.373,-3.4901,-3.4416,-3.472,-3.5293,-3.5956,-3.581,-3.5628,-3.58,-3.6333,-3.7256,-3.8793,-3.9955,-4.1056,-4.2158,-4.2304,-4.1919,-4.0873,-4.0506,-4.0139,-3.9625,-3.957,-3.9331,-3.8744,-3.9239,-3.9313,-3.8726,-3.8964,-3.9001,-3.8707,-3.8707,-3.8707,-3.8707,-3.835,-3.8099,-3.7893,-3.7066,-3.6472,-3.5957,-3.5048,-3.4194,-3.3491,-3.2645,-3.2074,-3.1657,-3.1487,-3.0967,-3.0233,-2.9336,-2.8501,-2.7688,-2.6962,-2.6691,-2.6774,-2.7303,-2.7303,-2.7083,-2.7083,-2.6906,-2.6758,-2.7004,-2.644,-2.5657,-2.5372,-2.4576,-2.3646,-2.3161,-2.3021,-2.3069,-2.33,-2.3437,-2.3566,-2.3795,-2.3837,-2.3837,-2.3837,-2.3937,-2.3833,-2.3268,-2.164,-1.9874,-1.8284,-1.8057,-1.7992,-1.7833,-1.7811,-1.7811,-1.7811,-1.7949,-1.8057,-1.8057,-1.8469,-1.8752,-1.8843,-1.9067,-1.923,-1.9289,-1.9305,-1.9305,-1.9305,-1.9305,-1.9305,-1.9305,-1.9305,-1.9305,-1.9289,-1.8807,-1.885,-3.1484,-3.226,-3.2749,-3.2647,-3.3662,-3.4623,-3.4385,-3.4749,-3.5293,-3.589,-3.543,-3.4926,-3.484,-3.5151,-3.584,-3.7261,-3.8872,-4.0524,-4.2139,-4.2359,-4.2359,-4.2304,-4.1644,-4.1167,-4.1111,-4.1148,-4.0524,-3.8946,-4.0249,-4.0432,-3.8854,-3.9478,-3.9533,-3.8726,-3.8707,-3.8707,-3.8707,-3.8707,-3.8446,-3.7928,-3.7154,-3.6378,-3.5598,-3.5221,-3.4418,-3.3268,-3.3232,-3.2952,-3.2484,-3.2022,-3.1393,-3.063,-2.9553,-2.8606,-2.7792,-2.708,-2.6792,-2.6725,-2.6725,-2.6725,-2.6691,-2.6691,-2.6691,-2.6691,-2.6725,-2.5911,-2.5005,-2.5005,-2.3942,-2.279,-2.2686,-2.2669,-2.2669,-2.2695,-2.2947,-2.3165,-2.3189,-2.3189,-2.3189,-2.3189,-2.3459,-2.3187,-2.156,-1.9859,-1.8518,-1.79,-1.7811,-1.7811,-1.7811,-1.7811,-1.7811,-1.7811,-1.7811,-1.7811,-1.7811,-1.8057,-1.831,-1.8585,-1.8843,-1.9102,-1.9289,-1.9305,-1.9305,-1.9305,-1.9305,-1.9305,-1.9305,-1.9305,-1.9305,-1.9289,-1.8807,-1.8585,-3.3282,-3.379,-3.4061,-3.4108,-3.432,-3.451,-3.4715,-3.5072,-3.5248,-3.4729,-3.4337,-3.3807,-3.2799,-3.4136,-3.584,-3.7261,-3.935,-4.1368,-4.2965,-4.3185,-4.2965,-4.2378,-4.2121,-4.1772,-4.1167,-4.1644,-4.1589,-4.0579,-4.0873,-4.0671,-3.9643,-3.979,-3.9533,-3.8726,-3.8707,-3.8707,-3.8707,-3.8707,-3.8627,-3.8496,-3.8295,-3.7783,-3.6961,-3.6263,-3.5276,-3.4081,-3.3467,-3.2952,-3.2484,-3.2384,-3.1892,-3.1185,-3.0911,-2.9951,-2.8741,-2.8561,-2.7927,-2.7147,-2.7147,-2.6971,-2.6691,-2.6691,-2.6691,-2.6758,-2.7051,-2.6156,-2.5005,-2.5062,-2.3935,-2.2678,-2.248,-2.2398,-2.2436,-2.266,-2.2772,-2.2898,-2.3141,-2.3189,-2.3189,-2.3189,-2.3459,-2.3145,-2.1381,-2.0693,-1.9791,-1.8053,-1.7811,-1.7811,-1.7811,-1.7811,-1.7811,-1.7811,-1.7811,-1.7811,-1.7811,-1.8057,-1.831,-1.8585,-1.8843,-1.9102,-1.9289,-1.9305,-1.9305,-1.9305,-1.9305,-1.9305,-1.9305,-1.9305,-1.9305,-1.9289,-1.8807,-1.8585,-3.4548,-3.4569,-3.4391,-3.4668,-3.449,-3.4221,-3.4304,-3.4633,-3.4542,-3.3231,-3.2909,-3.2359,-3.064,-3.2596,-3.4703,-3.5365,-3.8345,-4.102,-4.2268,-4.3039,-4.3314,-4.2873,-4.2818,-4.2653,-4.2194,-4.2561,-4.2635,-4.2194,-4.2158,-4.1497,-3.9974,-4.023,-3.99,-3.8744,-3.8707,-3.8707,-3.8707,-3.8707,-3.8707,-3.8707,-3.8707,-3.8267,-3.7489,-3.667,-3.5692,-3.4629,-3.3811,-3.3314,-3.3057,-3.2872,-3.2559,-3.2143,-3.1618,-3.088,-3.0029,-2.9337,-2.8659,-2.8014,-2.7469,-2.7147,-2.6939,-2.6758,-2.6691,-2.6758,-2.6971,-2.5973,-2.479,-2.482,-2.3721,-2.2473,-2.2349,-2.231,-2.2349,-2.2473,-2.251,-2.2581,-2.2773,-2.2798,-2.2832,-2.2947,-2.297,-2.2478,-2.1035,-2.0604,-1.9882,-1.8053,-1.7811,-1.7811,-1.7811,-1.7811,-1.7811,-1.7811,-1.7811,-1.7811,-1.7811,-1.7949,-1.8125,-1.841,-1.8566,-1.8807,-1.915,-1.9166,-1.9214,-1.9289,-1.9305,-1.9305,-1.9305,-1.9305,-1.9305,-1.9289,-1.8807,-1.8585,-3.523,-3.4783,-3.4128,-3.4603,-3.431,-3.3821,-3.3493,-3.3732,-3.3491,-3.16,-3.1281,-3.0739,-2.8768,-3.0904,-3.302,-3.317,-3.6777,-3.9974,-4.1111,-4.2451,-4.3369,-4.3479,-4.3497,-4.3497,-4.3497,-4.3497,-4.3497,-4.3497,-4.3497,-4.2525,-4.0341,-4.0781,-4.0377,-3.8762,-3.8707,-3.8707,-3.8707,-3.8707,-3.8707,-3.8707,-3.8707,-3.8267,-3.7489,-3.667,-3.5826,-3.4954,-3.4156,-3.3807,-3.3762,-3.3419,-3.3273,-3.3171,-3.212,-3.1586,-3.1248,-2.9893,-2.924,-2.8841,-2.7757,-2.7348,-2.7224,-2.6841,-2.6691,-2.6691,-2.6691,-2.5659,-2.4506,-2.4506,-2.3427,-2.231,-2.231,-2.231,-2.231,-2.231,-2.231,-2.231,-2.231,-2.231,-2.2388,-2.266,-2.2373,-2.175,-2.0686,-2.0149,-1.943,-1.8019,-1.7811,-1.7811,-1.7811,-1.7811,-1.7811,-1.7811,-1.7811,-1.7811,-1.7811,-1.7811,-1.7905,-1.8187,-1.8187,-1.843,-1.8931,-1.8949,-1.9052,-1.9261,-1.9259,-1.9274,-1.9305,-1.9305,-1.9305,-1.9289,-1.8807,-1.8585,-3.4883,-3.4237,-3.3732,-3.4188,-3.3857,-3.3255,-3.2659,-3.2836,-3.2478,-3.0166,-2.9603,-2.9315,-2.8537,-3.0,-3.204,-3.4271,-3.6479,-3.8872,-4.1699,-4.2323,-4.2745,-4.3406,-4.3497,-4.3497,-4.3497,-4.3497,-4.3497,-4.3497,-4.3497,-4.302,-4.1937,-4.1405,-4.0377,-3.8762,-3.8707,-3.8707,-3.8707,-3.8707,-3.8707,-3.8707,-3.8707,-3.8267,-3.7489,-3.667,-3.5826,-3.4954,-3.4156,-3.3807,-3.3788,-3.3734,-3.3707,-3.3689,-3.346,-3.2584,-3.1378,-3.1104,-2.9958,-2.8443,-2.7961,-2.756,-2.7224,-2.6841,-2.6691,-2.6691,-2.6691,-2.5659,-2.4506,-2.4506,-2.3427,-2.231,-2.231,-2.231,-2.231,-2.231,-2.231,-2.231,-2.231,-2.231,-2.2388,-2.266,-2.2642,-2.2146,-2.0749,-2.0425,-1.9779,-1.8042,-1.7811,-1.7811,-1.7811,-1.7811,-1.7811,-1.7811,-1.7811,-1.7811,-1.7811,-1.7811,-1.7905,-1.8187,-1.8187,-1.8351,-1.8659,-1.8678,-1.8789,-1.9052,-1.9052,-1.9134,-1.9305,-1.9305,-1.9305,-1.9289,-1.8807,-1.8585,-3.4266,-3.3783,-3.3301,-3.3776,-3.3303,-3.2538,-3.1847,-3.1654,-3.0968,-2.8504,-2.8577,-2.8591,-2.6925,-2.9431,-3.1959,-3.2556,-3.5124,-3.7966,-4.0666,-4.1405,-4.2139,-4.3332,-4.3497,-4.3497,-4.3497,-4.3497,-4.3497,-4.3497,-4.3112,-4.2525,-4.1735,-4.0524,-3.9515,-3.8726,-3.8707,-3.8707,-3.8707,-3.8707,-3.8707,-3.8707,-3.8707,-3.8267,-3.7489,-3.667,-3.5826,-3.4954,-3.4156,-3.3807,-3.3807,-3.3807,-3.3807,-3.3807,-3.3807,-3.3073,-3.1971,-3.1549,-3.0515,-2.9196,-2.8217,-2.7765,-2.75,-2.6906,-2.6691,-2.6691,-2.6691,-2.5659,-2.4506,-2.4506,-2.3427,-2.231,-2.231,-2.231,-2.231,-2.231,-2.231,-2.231,-2.231,-2.2006,-2.1773,-2.1892,-2.1729,-2.1164,-1.9893,-1.9803,-1.9445,-1.8008,-1.7811,-1.7811,-1.7811,-1.7811,-1.7811,-1.7811,-1.7811,-1.7811,-1.7811,-1.7811,-1.7839,-1.7992,-1.7992,-1.8103,-1.8371,-1.8391,-1.8508,-1.8789,-1.8931,-1.9052,-1.9134,-1.9243,-1.9305,-1.9289,-1.8948,-1.8734,-3.3456,-3.3168,-3.2913,-3.346,-3.2884,-3.1979,-3.1087,-3.0541,-2.9508,-2.7016,-2.7453,-2.77,-2.5825,-2.8736,-3.1328,-3.1005,-3.3709,-3.671,-3.9301,-4.0341,-4.1442,-4.3039,-4.3387,-4.3497,-4.3497,-4.3497,-4.3424,-4.3259,-4.2341,-4.1515,-4.0891,-3.9643,-3.8891,-3.8707,-3.8707,-3.8707,-3.8707,-3.8707,-3.8707,-3.8707,-3.8707,-3.8267,-3.7489,-3.667,-3.5826,-3.4954,-3.4156,-3.3807,-3.3807,-3.3807,-3.3807,-3.3807,-3.3807,-3.3201,-3.2284,-3.1623,-3.0779,-2.9747,-2.8389,-2.7897,-2.7783,-2.6971,-2.6691,-2.6691,-2.6691,-2.5778,-2.4678,-2.4557,-2.3545,-2.2513,-2.2344,-2.231,-2.231,-2.231,-2.231,-2.231,-2.231,-2.1718,-2.1204,-2.1204,-2.0763,-2.0072,-1.906,-1.9133,-1.8943,-1.7957,-1.7811,-1.7811,-1.7811,-1.7811,-1.7811,-1.7811,-1.7811,-1.7811,-1.7811,-1.7811,-1.7811,-1.7811,-1.7811,-1.7883,-1.8121,-1.8103,-1.8249,-1.8508,-1.877,-1.8949,-1.9002,-1.9214,-1.9305,-1.9289,-1.9084,-1.8896,-3.2293,-3.2258,-3.2563,-3.3387,-3.2884,-3.1836,-3.0509,-2.9731,-2.8608,-2.6055,-2.5597,-2.5929,-2.6817,-2.7513,-2.895,-3.1918,-3.2921,-3.4624,-3.8279,-3.9496,-4.0598,-4.2213,-4.3057,-4.3497,-4.3497,-4.3497,-4.3185,-4.247,-4.0983,-4.0084,-4.001,-3.9863,-3.9441,-3.8726,-3.8707,-3.8707,-3.8707,-3.8707,-3.8707,-3.8707,-3.8707,-3.8267,-3.7489,-3.667,-3.5826,-3.4954,-3.4156,-3.3807,-3.3807,-3.3807,-3.3807,-3.3807,-3.3807,-3.2852,-3.1494,-3.1421,-3.043,-2.8997,-2.8165,-2.7897,-2.7783,-2.6971,-2.6691,-2.6691,-2.6691,-2.6133,-2.5372,-2.4678,-2.39,-2.3139,-2.2479,-2.231,-2.231,-2.231,-2.231,-2.231,-2.231,-2.1718,-2.1204,-2.1204,-2.0577,-1.9798,-1.9029,-1.8917,-1.8687,-1.7929,-1.7811,-1.7811,-1.7811,-1.7811,-1.7811,-1.7811,-1.7811,-1.7811,-1.7811,-1.7811,-1.7811,-1.7811,-1.7811,-1.7811,-1.7833,-1.7833,-1.7971,-1.8229,-1.8489,-1.8752,-1.9002,-1.9214,-1.9305,-1.9289,-1.9084,-1.9002,-3.2044,-3.2627,-3.3193,-3.3566,-3.2889,-3.1783,-3.0455,-2.9313,-2.794,-2.5835,-2.5669,-2.6022,-2.6408,-2.738,-2.8776,-3.0801,-3.1774,-3.3443,-3.6801,-3.7533,-3.8689,-4.1277,-4.1864,-4.2433,-4.3406,-4.3057,-4.2231,-4.0946,-4.0249,-3.968,-3.9203,-3.9184,-3.9038,-3.8707,-3.8707,-3.8707,-3.8707,-3.8212,-3.8212,-3.8689,-3.7716,-3.7092,-3.6743,-3.5899,-3.5073,-3.4266,-3.3935,-3.3807,-3.3807,-3.3807,-3.3807,-3.3807,-3.3807,-3.2816,-3.1384,-3.1384,-3.0234,-2.8565,-2.8065,-2.7754,-2.7457,-2.6873,-2.6691,-2.6691,-2.6691,-2.5862,-2.4864,-2.4591,-2.3646,-2.2682,-2.2395,-2.231,-2.231,-2.231,-2.231,-2.2192,-2.1735,-2.1025,-2.0348,-1.9891,-1.9198,-1.8566,-1.8302,-1.8251,-1.8149,-1.7845,-1.7811,-1.7811,-1.7811,-1.7811,-1.7811,-1.7811,-1.7811,-1.7811,-1.7811,-1.7811,-1.7811,-1.7811,-1.7811,-1.7811,-1.7811,-1.7811,-1.7856,-1.7949,-1.8229,-1.8489,-1.8752,-1.9,-1.9182,-1.9289,-1.923,-1.9135,-3.112,-3.2065,-3.2927,-3.344,-3.2661,-3.1493,-3.055,-2.9177,-2.759,-2.5763,-2.5668,-2.6015,-2.6299,-2.7318,-2.8575,-2.9973,-3.0909,-3.2405,-3.5184,-3.5771,-3.6945,-3.9717,-4.0249,-4.0928,-4.2286,-4.1782,-4.0891,-3.9758,-3.9433,-3.9049,-3.8483,-3.8627,-3.8707,-3.8707,-3.8552,-3.8424,-3.834,-3.7533,-3.7422,-3.7973,-3.6835,-3.6156,-3.5899,-3.5265,-3.4578,-3.3807,-3.3807,-3.3807,-3.3807,-3.3807,-3.3807,-3.3807,-3.3807,-3.2816,-3.1384,-3.1384,-3.0122,-2.8368,-2.8037,-2.7636,-2.7224,-2.6841,-2.6691,-2.6691,-2.6691,-2.5812,-2.4763,-2.4574,-2.3427,-2.231,-2.231,-2.231,-2.231,-2.231,-2.231,-2.2107,-2.1373,-2.0568,-1.9765,-1.9046,-1.8302,-1.7811,-1.7811,-1.7811,-1.7811,-1.7811,-1.7811,-1.7811,-1.7811,-1.7811,-1.7811,-1.7811,-1.7811,-1.7811,-1.7811,-1.7811,-1.7811,-1.7811,-1.7811,-1.7811,-1.7811,-1.7811,-1.7811,-1.7811,-1.8061,-1.829,-1.8489,-1.8825,-1.9069,-1.9196,-1.9274,-1.9148,-2.9091,-2.9972,-3.1312,-3.2912,-3.2109,-3.0862,-3.0645,-2.9301,-2.759,-2.5763,-2.5187,-2.545,-2.6906,-2.7191,-2.7864,-2.9881,-3.0428,-3.1347,-3.3529,-3.4523,-3.5661,-3.7331,-3.823,-3.9038,-3.9845,-3.9467,-3.912,-3.9102,-3.8379,-3.7911,-3.7893,-3.8415,-3.8707,-3.8707,-3.8183,-3.7784,-3.7526,-3.6707,-3.6321,-3.6321,-3.6303,-3.5862,-3.5009,-3.499,-3.4578,-3.3807,-3.3807,-3.3807,-3.3807,-3.3807,-3.3807,-3.3807,-3.3807,-3.2816,-3.1384,-3.1384,-3.0122,-2.8368,-2.8037,-2.7636,-2.7224,-2.6841,-2.6691,-2.6691,-2.6691,-2.6184,-2.5439,-2.4726,-2.3427,-2.231,-2.231,-2.231,-2.231,-2.231,-2.231,-2.2107,-2.1373,-2.0568,-1.9765,-1.9046,-1.8302,-1.7811,-1.7811,-1.7811,-1.7811,-1.7811,-1.7811,-1.7811,-1.7811,-1.7811,-1.7811,-1.7811,-1.7811,-1.7811,-1.7811,-1.7811,-1.7811,-1.7811,-1.7811,-1.7811,-1.7811,-1.7811,-1.7811,-1.7811,-1.8061,-1.8208,-1.8208,-1.8734,-1.8984,-1.9019,-1.9214,-1.9048,-2.8811,-2.9628,-3.0498,-3.105,-3.0458,-2.9587,-2.8957,-2.7949,-2.6973,-2.6341,-2.5925,-2.6155,-2.7735,-2.7793,-2.835,-3.0638,-3.1096,-3.1783,-3.3558,-3.4504,-3.5624,-3.7294,-3.9184,-4.023,-3.9918,-3.9431,-3.8885,-3.8308,-3.7757,-3.7578,-3.7859,-3.7758,-3.7734,-3.7863,-3.7735,-3.7329,-3.667,-3.5844,-3.5716,-3.6285,-3.5128,-3.4743,-3.4972,-3.4431,-3.4045,-3.3807,-3.3807,-3.3807,-3.3807,-3.3807,-3.3807,-3.3807,-3.3807,-3.2816,-3.1359,-3.1154,-2.9801,-2.7992,-2.7619,-2.7241,-2.6873,-2.6758,-2.6691,-2.6691,-2.6691,-2.5828,-2.4577,-2.3342,-2.2665,-2.231,-2.231,-2.231,-2.231,-2.231,-2.231,-2.1955,-2.067,-2.017,-1.963,-1.8403,-1.7963,-1.7811,-1.7811,-1.7811,-1.7811,-1.7811,-1.7811,-1.7811,-1.7811,-1.7811,-1.7811,-1.7811,-1.7811,-1.7811,-1.7811,-1.7811,-1.7811,-1.7811,-1.7811,-1.7811,-1.7811,-1.7811,-1.7811,-1.7811,-1.7883,-1.8014,-1.8208,-1.8371,-1.8547,-1.8734,-1.8789,-1.8753,-2.7951,-2.8695,-2.942,-2.9765,-2.9316,-2.8645,-2.812,-2.7334,-2.6688,-2.6612,-2.6339,-2.6502,-2.7827,-2.779,-2.8137,-2.9857,-3.0153,-3.0807,-3.264,-3.3605,-3.4835,-3.6798,-3.8634,-3.9533,-3.9038,-3.8627,-3.8169,-3.7685,-3.7173,-3.702,-3.7305,-3.713,-3.6924,-3.6772,-3.6757,-3.6454,-3.5826,-3.4981,-3.4835,-3.533,-3.4302,-3.4064,-3.4541,-3.4027,-3.3707,-3.3578,-3.3734,-3.3707,0.0,-3.3734,-3.3807,-3.3807,-3.3807,-3.2737,-3.118,-3.0966,-2.9533,-2.7619,-2.7396,-2.7036,-2.6691,-2.6691,-2.6691,-2.664,-2.637,-2.5439,-2.4269,-2.3054,-2.2513,-2.231,-2.231,-2.231,-2.231,-2.231,-2.231,-2.1972,-2.072,-2.0204,-1.9647,-1.8454,-1.7997,-1.7811,-1.7811,-1.7811,-1.7811,-1.7811,-1.7811,-1.7811,-1.7811,-1.7811,-1.7811,-1.7811,-1.7811,-1.7811,-1.7811,-1.7811,-1.7811,-1.7811,-1.7811,-1.7811,-1.7811,-1.7811,-1.7811,-1.7811,-1.7811,-1.7883,-1.8057,-1.8146,-1.833,-1.8585,-1.8585,-1.8547,0.0,-2.7241,-2.8086,-2.8834,-2.8462,-2.7871,-2.7821,-2.7171,0.0,-2.6593,-2.6481,-2.6638,-2.7418,-2.746,-2.7575,-2.8145,-2.831,-2.9082,-3.1195,-3.2284,-3.377,-3.6174,-3.711,-3.7569,-3.7569,-3.7394,-3.7228,-3.721,-3.6671,-3.6329,-3.6329,-3.6398,-3.6149,-3.5443,-3.5385,-3.5243,-3.4926,-3.4174,-3.3807,-3.3807,-3.3807,-3.3807,-3.3762,-3.3762,-3.355,-3.3214,-3.3597,-3.355,-3.3273,-3.3652,-3.3807,-3.3807,-3.3807,-3.2611,-3.0902,-3.0856,-2.936,-2.7303,-2.7272,-2.7019,-2.6691,-2.6691,-2.6691,-2.6573,-2.5896,-2.5118,-2.4371,-2.3596,-2.2868,-2.231,-2.231,-2.231,-2.231,-2.231,-2.231,-2.2107,-2.1373,-2.0619,-1.9849,-1.9046,-1.8352,-1.7862,-1.7811,-1.7811,-1.7811,-1.7811,-1.7811,-1.7811,-1.7811,-1.7811,-1.7811,-1.7811,-1.7811,-1.7811,-1.7811,-1.7811,-1.7811,-1.7811,-1.7811,-1.7811,-1.7811,-1.7811,-1.7811,-1.7811,-1.7811,-1.7811,-1.7811,-1.8057,-1.829,-1.8547,-1.8547,-1.841,-2.5991,0.0,-2.6147,-2.6285,-2.6137,-2.5944,0.0,-2.5774,-2.5813,-2.6477,-2.6929,-2.7423,-2.8077,-2.8693,-2.9232,-2.9658,-3.0394,-3.1255,-3.218,-3.4119,-3.6101,-3.7918,-3.8303,-3.8414,-3.8414,-3.799,-3.7578,-3.7228,-3.6164,-3.5573,-3.5573,-3.478,-3.4434,-3.4663,-3.4357,-3.4171,-3.4082,-3.3899,-3.3807,-3.3807,-3.3807,-3.3652,-3.3332,-3.3332,-3.3302,-3.3214,-3.3302,-3.3465,-3.368,-3.3762,-3.3807,-3.3807,-3.3807,-3.2611,-3.0856,-3.0563,-2.9105,-2.7272,-2.6971,-2.6791,-2.6691,-2.6691,-2.6691,-2.6657,-2.6488,-2.5524,-2.4371,-2.3596,-2.2868,-2.231,-2.231,-2.231,-2.231,-2.231,-2.231,-2.2107,-2.1373,-2.1042,-2.0517,-1.9147,-1.8758,-1.8454,-1.7912,-1.7811,-1.7811,-1.7811,-1.7811,-1.7811,-1.7811,-1.7811,-1.7811,-1.7811,-1.7811,-1.7811,-1.7811,-1.7811,-1.7811,-1.7811,-1.7811,-1.7811,-1.7811,-1.7811,-1.7811,-1.7811,-1.7811,-1.7811,-1.7811,-1.7861,-1.7927,-1.7992,-1.7992,-1.7949,-2.5749,-2.58,-2.6065,-2.5975,-2.5919,-2.5909,-2.5909,-2.5591,-2.5553,-2.6428,-2.6853,-2.7281,-2.7888,-2.8676,-2.9359,-2.9724,-3.0583,-3.1788,-3.3466,-3.5202,-3.689,-3.8505,-3.8707,-3.8707,-3.8707,-3.8216,-3.7646,-3.7006,-3.6123,-3.5416,-3.5028,-3.4129,-3.3718,-3.402,-3.3701,-3.3606,-3.3807,-3.3807,-3.3807,-3.3807,-3.3807,-3.3578,-3.3214,-3.3214,-3.2983,-3.2565,-3.3014,-3.3196,-3.3225,-3.3634,-3.3807,-3.3752,-3.3385,-3.2274,-3.082,-3.0018,-2.8697,-2.7241,-2.6841,-2.6691,-2.6691,-2.6691,-2.6691,-2.664,-2.6302,-2.5389,-2.4421,-2.4002,-2.3122,-2.231,-2.231,-2.231,-2.231,-2.231,-2.231,-2.2192,-2.1786,-2.1431,-2.0839,-1.9638,-1.913,-1.8674,-1.7929,-1.7811,-1.7811,-1.7811,-1.7811,-1.7811,-1.7811,-1.7811,-1.7811,-1.7811,-1.7811,-1.7811,-1.7811,-1.7811,-1.7811,-1.7811,-1.7811,-1.7811,-1.7811,-1.7811,-1.7811,-1.7811,-1.7811,-1.7811,-1.7811,-1.7811,-1.7811,-1.7811,-1.7811,-1.7811,-2.5732,-2.6226,-2.6883,-2.6506,-2.6505,-2.6563,-2.6428,-2.5832,-2.5514,-2.6255,-2.6621,-2.6971,-2.7546,-2.8436,-2.9209,-2.9558,-3.0401,-3.2033,-3.4972,-3.6028,-3.7019,-3.8524,-3.8707,-3.8707,-3.8707,-3.819,-3.7528,-3.6759,-3.606,-3.5332,-3.4571,-3.3898,-3.3507,-3.3439,-3.3293,-3.3332,-3.3606,-3.3662,-3.3734,-3.3807,-3.368,-3.3419,-3.3075,-3.3014,-3.2565,-3.1861,-3.2713,-3.2921,-3.2681,-3.3476,-3.3733,-3.355,-3.2871,-3.1792,-3.0502,-2.9472,-2.8315,-2.7147,-2.6808,-2.6691,-2.6691,-2.6691,-2.6691,-2.6556,-2.5828,-2.5067,-2.4489,-2.434,-2.3342,-2.231,-2.231,-2.231,-2.231,-2.231,-2.231,-2.231,-2.231,-2.1718,-2.0957,-2.0154,-1.9401,-1.8674,-1.7929,-1.7811,-1.7811,-1.7811,-1.7811,-1.7811,-1.7811,-1.7811,-1.7811,-1.7811,-1.7811,-1.7811,-1.7811,-1.7811,-1.7811,-1.7811,-1.7811,-1.7811,-1.7811,-1.7811,-1.7811,-1.7811,-1.7811,-1.7811,-1.7811,-1.7811,-1.7811,-1.7811,-1.7811,-1.7811,-2.5686,-2.6602,-2.7442,-2.588,-2.6063,-2.6409,-2.5668,-2.5399,-2.5341,-2.5457,-2.6678,-2.7807,-2.8196,-2.9712,-3.0934,-3.1043,-3.2316,-3.4191,-3.6772,-3.7221,-3.7643,-3.8597,-3.8707,-3.8707,-3.8707,-3.8004,-3.7307,-3.6739,-3.5411,-3.439,-3.3793,-3.3448,-3.3082,-3.2694,-3.3006,-3.3045,-3.2713,-3.3105,-3.3465,-3.3788,-3.3057,-3.2681,-3.2583,-3.2196,-3.1915,-3.1825,-3.2366,-3.2777,-3.3154,-3.3606,-3.3403,-3.2779,-3.2669,-3.1275,-2.9354,-2.9171,-2.8115,-2.6774,-2.6725,-2.6691,-2.6691,-2.6691,-2.6691,-2.6556,-2.5828,-2.5067,-2.4388,-2.3731,-2.297,-2.231,-2.231,-2.231,-2.231,-2.231,-2.231,-2.231,-2.231,-2.1718,-2.0957,-2.0154,-1.9401,-1.8674,-1.7929,-1.7811,-1.7811,-1.7811,-1.7811,-1.7811,-1.7811,-1.7811,-1.7811,-1.7811,-1.7811,-1.7811,-1.7811,-1.7811,-1.7811,-1.7811,-1.7811,-1.7811,-1.7811,-1.7811,-1.7811,-1.7811,-1.7811,-1.7811,-1.7811,-1.7811,-1.7811,-1.7811,-1.7811,-1.7811,-2.4369,-2.5302,-2.6342,-2.5515,-2.664,-2.7852,-2.7448,-2.7024,-2.6697,-2.6697,-2.7332,-2.8176,-2.9095,-3.0267,-3.1581,-3.3084,-3.4357,-3.5697,-3.7287,-3.7507,-3.779,-3.8597,-3.8707,-3.8707,-3.8707,-3.7955,-3.7234,-3.6547,-3.5369,-3.4436,-3.3737,-3.3394,-3.3105,-3.289,-3.3075,-3.2983,-3.2517,-3.2713,-3.2903,-3.3087,-3.2681,-3.2384,-3.2092,-3.188,-3.1696,-3.1507,-3.1933,-3.223,-3.25,-3.3196,-3.2993,-3.2247,-3.1856,-3.074,-2.9275,-2.8435,-2.7535,-2.6691,-2.6691,-2.6691,-2.6691,-2.6691,-2.642,-2.5964,-2.522,-2.4475,-2.3748,-2.3004,-2.2564,-2.231,-2.231,-2.231,-2.231,-2.231,-2.231,-2.2192,-2.1786,-2.1431,-2.0839,-1.9638,-1.913,-1.8674,-1.7929,-1.7811,-1.7811,-1.7811,-1.7811,-1.7811,-1.7811,-1.7811,-1.7811,-1.7811,-1.7811,-1.7811,-1.7811,-1.7811,-1.7811,-1.7811,-1.7811,-1.7811,-1.7811,-1.7811,-1.7811,-1.7811,-1.7811,-1.7811,-1.7811,-1.7811,-1.7811,-1.7811,-1.7811,-1.7811,-2.3471,-2.4126,-2.5063,-2.5245,-2.6928,-2.8621,-2.9006,-2.8467,-2.8005,-2.839,-2.864,-2.9113,-3.0123,-3.105,-3.2459,-3.4917,-3.6028,-3.6853,-3.7661,-3.7771,-3.801,-3.8634,-3.8707,-3.8634,-3.8432,-3.7679,-3.6872,-3.6064,-3.5202,-3.4468,-3.3825,-3.3522,-3.3302,-3.3214,-3.3214,-3.2983,-3.2517,-3.2384,-3.2384,-3.2484,-3.2282,-3.2039,-3.1789,-3.1696,-3.1507,-3.123,-3.164,-3.1721,-3.1619,-3.2541,-3.2306,-3.1265,-3.0802,-2.9962,-2.8915,-2.7648,-2.6954,-2.6691,-2.6691,-2.6691,-2.6691,-2.6691,-2.6201,-2.5456,-2.4712,-2.3968,-2.3241,-2.2513,-2.231,-2.231,-2.231,-2.231,-2.231,-2.231,-2.231,-2.2107,-2.1373,-2.1042,-2.0517,-1.9147,-1.8758,-1.8454,-1.7912,-1.7811,-1.7811,-1.7811,-1.7811,-1.7811,-1.7811,-1.7811,-1.7811,-1.7811,-1.7811,-1.7811,-1.7811,-1.7811,-1.7811,-1.7811,-1.7811,-1.7811,-1.7811,-1.7811,-1.7811,-1.7811,-1.7811,-1.7811,-1.7811,-1.7811,-1.7811,-1.7811,-1.7811,-1.7811,-2.4148,-2.4146,-2.4379,-2.512,-2.6063,-2.7198,-2.8736,-2.8467,-2.8332,-2.991,-3.0871,-3.1367,-3.123,-3.271,-3.4445,-3.5956,-3.689,-3.7679,-3.8505,-3.8615,-3.8634,-3.8689,-3.8707,-3.8414,-3.7643,-3.6853,-3.6028,-3.5155,-3.4339,-3.3862,-3.3807,-3.3762,-3.3578,-3.3214,-3.3214,-3.2983,-3.2517,-3.2057,-3.2057,-3.2484,-3.1694,-3.1487,-3.1789,-3.1411,-3.123,-3.123,-3.164,-3.1409,-3.0855,-3.1719,-3.1009,-2.9336,-2.9575,-2.8777,-2.7404,-2.6923,-2.6725,-2.6691,-2.6691,-2.6691,-2.6691,-2.6691,-2.6201,-2.5456,-2.4712,-2.3968,-2.3241,-2.2513,-2.231,-2.231,-2.231,-2.231,-2.231,-2.231,-2.231,-2.2107,-2.1373,-2.0619,-1.9849,-1.9046,-1.8352,-1.7862,-1.7811,-1.7811,-1.7811,-1.7811,-1.7811,-1.7811,-1.7811,-1.7811,-1.7811,-1.7811,-1.7811,-1.7811,-1.7811,-1.7811,-1.7811,-1.7811,-1.7811,-1.7811,-1.7811,-1.7811,-1.7811,-1.7811,-1.7811,-1.7811,-1.7811,-1.7811,-1.7811,-1.7811,-1.7811,-1.7811,-2.2805,-2.3352,-2.4168,-2.4485,-2.5986,-2.7852,-2.9525,-2.9679,-2.9929,-3.1621,-3.2218,-3.2359,-3.2107,-3.394,-3.5571,-3.5699,-3.6461,-3.7405,-3.8536,-3.8267,-3.7936,-3.7936,-3.8395,-3.8193,-3.6872,-3.6468,-3.5936,-3.5064,-3.4266,-3.3807,-3.3807,-3.3807,-3.3734,-3.3578,-3.3578,-3.3361,-3.2952,-3.2466,-3.2161,-3.2074,-3.1487,-3.1291,-3.1411,-3.1252,-3.119,-3.1173,-3.0874,-3.0557,-3.0324,-3.0449,-2.9787,-2.8631,-2.8305,-2.7652,-2.6906,-2.6758,-2.6691,-2.6691,-2.6691,-2.6691,-2.6691,-2.6691,-2.6201,-2.5456,-2.4712,-2.3968,-2.3241,-2.2513,-2.231,-2.231,-2.231,-2.231,-2.2237,-2.1928,-2.2106,-2.195,-2.0681,-2.019,-1.9715,-1.8726,-1.8138,-1.7811,-1.7811,-1.7811,-1.7811,-1.7811,-1.7811,-1.7811,-1.7811,-1.7811,-1.7811,-1.7811,-1.7811,-1.7811,-1.7811,-1.7811,-1.7811,-1.7811,-1.7811,-1.7811,-1.7811,-1.7811,-1.7811,-1.7811,-1.7811,-1.7811,-1.7811,-1.7811,-1.7811,-1.7805,-1.8268,-1.8488,-2.2345,-2.2876,-2.3821,-2.4351,-2.5793,-2.7659,-2.989,-3.0609,-3.1295,-3.2968,-3.3083,-3.2993,-3.3268,-3.4499,-3.5496,-3.5558,-3.6218,-3.7013,-3.7958,-3.7529,-3.711,-3.711,-3.7606,-3.7404,-3.6028,-3.5899,-3.555,-3.4706,-3.4119,-3.3807,-3.3807,-3.3807,-3.3807,-3.3807,-3.3807,-3.3606,-3.3214,-3.2745,-3.2264,-3.1789,-3.1507,-3.1312,-3.119,-3.119,-3.1072,-3.0818,-3.0328,-2.9837,-2.9384,-2.9282,-2.8758,-2.7999,-2.7353,-2.6939,-2.6691,-2.6691,-2.6691,-2.6691,-2.6691,-2.6691,-2.6691,-2.6691,-2.6201,-2.5456,-2.4712,-2.3968,-2.3241,-2.2513,-2.231,-2.231,-2.231,-2.218,-2.2003,-2.1688,-2.1735,-2.1523,-2.0188,-1.9841,-1.951,-1.8496,-1.8019,-1.7811,-1.7811,-1.7811,-1.7811,-1.7811,-1.7811,-1.7811,-1.7811,-1.7811,-1.7811,-1.7811,-1.7811,-1.7811,-1.7811,-1.7811,-1.7811,-1.7811,-1.7811,-1.7811,-1.7811,-1.7811,-1.7811,-1.7811,-1.7811,-1.7811,-1.7811,-1.7811,-1.7811,-1.7828,-1.8555,-1.8894,-2.3236,-2.2914,-2.3216,-2.488,-2.5322,-2.6245,-2.9629,-3.1083,-3.2179,-3.3853,-3.3526,-3.3377,-3.4814,-3.4346,-3.4185,-3.5658,-3.6349,-3.6689,-3.6708,-3.6454,-3.6285,-3.6285,-3.6285,-3.5954,-3.5064,-3.499,-3.4688,-3.3862,-3.3807,-3.3807,-3.3807,-3.3807,-3.3807,-3.3807,-3.3807,-3.3606,-3.3214,-3.2745,-3.2264,-3.1789,-3.1789,-3.1603,-3.119,-3.119,-3.0801,-3.0108,-3.0108,-2.9228,-2.7824,-2.8217,-2.7947,-2.7255,-2.6841,-2.6691,-2.6691,-2.6691,-2.6691,-2.6691,-2.6691,-2.6691,-2.6691,-2.6691,-2.6201,-2.5456,-2.4712,-2.3968,-2.3241,-2.2513,-2.231,-2.231,-2.231,-2.1957,-2.1582,-2.1598,-2.1275,-2.0815,-2.0065,-1.9641,-1.9176,-1.8444,-1.8019,-1.7811,-1.7811,-1.7811,-1.7811,-1.7811,-1.7811,-1.7811,-1.7811,-1.7811,-1.7811,-1.7811,-1.7811,-1.7811,-1.7811,-1.7811,-1.7811,-1.7811,-1.7811,-1.7811,-1.7811,-1.7811,-1.7811,-1.7811,-1.7811,-1.7811,-1.7811,-1.7811,-1.7811,-1.7845,-1.8572,-1.891,-2.308,-2.336,-2.3975,-2.5043,-2.711,-2.9148,-3.0167,-3.059,-3.1448,-3.3718,-3.4487,-3.4686,-3.4496,-3.4736,-3.5025,-3.5228,-3.5439,-3.5845,-3.659,-3.6147,-3.5639,-3.5413,-3.5936,-3.5734,-3.4302,-3.4688,-3.4688,-3.3862,-3.3807,-3.3807,-3.3807,-3.3807,-3.3807,-3.3807,-3.3807,-3.3606,-3.3214,-3.2745,-3.2264,-3.1789,-3.1507,-3.1329,-3.119,-3.1507,-3.1076,-3.0074,-2.9811,-2.8972,-2.7774,-2.7369,-2.7078,-2.6873,-2.6758,-2.6691,-2.6691,-2.6691,-2.6691,-2.6691,-2.6691,-2.6691,-2.6691,-2.6691,-2.6201,-2.5456,-2.4712,-2.3968,-2.3241,-2.2513,-2.231,-2.231,-2.231,-2.1957,-2.1521,-2.1244,-2.1306,-2.1179,-2.0365,-1.9757,-1.935,-1.911,-1.8393,-1.7811,-1.7811,-1.7811,-1.7811,-1.7811,-1.7811,-1.7811,-1.7811,-1.7811,-1.7811,-1.7811,-1.7811,-1.7811,-1.7811,-1.7811,-1.7811,-1.7811,-1.7811,-1.7811,-1.7811,-1.7811,-1.7811,-1.7811,-1.7811,-1.7811,-1.7811,-1.7811,-1.8082,-1.8589,-1.9333,-1.9976,-2.3908,-2.4527,-2.5447,-2.6948,-2.8879,-3.0494,-3.0852,-3.1429,-3.2449,-3.4334,-3.4853,-3.493,-3.4757,-3.4853,-3.5042,-3.5181,-3.5138,-3.5286,-3.5833,-3.5371,-3.4878,-3.455,-3.5,-3.4908,-3.3899,-3.4247,-3.4321,-3.3844,-3.3807,-3.3807,-3.3807,-3.3807,-3.3807,-3.3807,-3.3807,-3.3522,-3.2921,-3.2648,-3.2179,-3.1565,-3.1162,-3.0908,-3.0768,-3.1005,-3.0612,-2.96,-2.8767,-2.81,-2.7555,-2.6945,-2.6691,-2.6691,-2.6691,-2.6691,-2.6691,-2.6691,-2.6691,-2.6691,-2.6691,-2.6691,-2.664,-2.6353,-2.5964,-2.5423,-2.4374,-2.3748,-2.3241,-2.2513,-2.231,-2.231,-2.231,-2.2106,-2.1764,-2.1337,-2.1306,-2.1213,-2.0682,-2.0186,-1.9745,-1.9465,-1.876,-1.8149,-1.7862,-1.7811,-1.7811,-1.7811,-1.7811,-1.7811,-1.7811,-1.7927,-1.7883,-1.7629,-1.7721,-1.7747,-1.7606,-1.7479,-1.7519,-1.7789,-1.7681,-1.7658,-1.7789,-1.7811,-1.7811,-1.7811,-1.7811,-1.7811,-1.7811,-1.7811,-1.8031,-1.8488,-1.9232,-1.9993,-2.5167,-2.5921,-2.7103,-2.9652,-3.0448,-3.0871,-3.1737,-3.3103,-3.4391,-3.5122,-3.4757,-3.4564,-3.5353,-3.4853,-3.4584,-3.5372,-3.5289,-3.5034,-3.4734,-3.4423,-3.4123,-3.3842,-3.378,-3.3762,-3.3807,-3.378,-3.3762,-3.3807,-3.3807,-3.3807,-3.3807,-3.3807,-3.3807,-3.3807,-3.3762,-3.3343,-3.2583,-3.2484,-3.2004,-3.115,-3.0795,-3.0415,-3.0006,-3.0044,-2.9658,-2.8861,-2.7351,-2.6939,-2.7272,-2.6873,-2.6691,-2.6691,-2.6691,-2.6691,-2.6691,-2.6691,-2.6657,-2.6607,-2.6674,-2.6657,-2.6488,-2.5828,-2.5558,-2.5236,-2.3833,-2.3342,-2.3156,-2.2496,-2.231,-2.231,-2.231,-2.231,-2.218,-2.1764,-2.1337,-2.1055,-2.1055,-2.0768,-2.0299,-1.9685,-1.9211,-1.8691,-1.8031,-1.7845,-1.7811,-1.7811,-1.7811,-1.7811,-1.7811,-1.8053,-1.7978,-1.7362,-1.7585,-1.7636,-1.7273,-1.7002,-1.7093,-1.7658,-1.7439,-1.7455,-1.7726,-1.7789,-1.7811,-1.7811,-1.7811,-1.7811,-1.7811,-1.7811,-1.7879,-1.8031,-1.8691,-1.9435,-2.4336,-2.5093,-2.6265,-2.8818,-3.0912,-3.2583,-3.3449,-3.393,-3.4064,-3.3564,-3.441,-3.5276,-3.5468,-3.5353,-3.5276,-3.5468,-3.5446,-3.5258,-3.4754,-3.4632,-3.4398,-3.3868,-3.3522,-3.3447,-3.3762,-3.3522,-3.3465,-3.378,-3.3807,-3.3807,-3.3807,-3.3807,-3.3807,-3.3807,-3.3494,-3.3243,-3.3045,-3.2332,-3.1566,-3.08,-3.0407,-2.9881,-2.9265,-2.9574,-2.9282,-2.8457,-2.7216,-2.6939,-2.7272,-2.6873,-2.6691,-2.6691,-2.6691,-2.6691,-2.6691,-2.6691,-2.6336,-2.593,-2.6488,-2.6319,-2.5812,-2.5659,-2.5203,-2.456,-2.3663,-2.3004,-2.2513,-2.2344,-2.231,-2.231,-2.231,-2.231,-2.2265,-2.2163,-2.1794,-2.146,-2.146,-2.0947,-2.0577,-2.078,-1.9774,-1.8843,-1.8691,-1.8183,-1.7811,-1.7811,-1.7811,-1.7811,-1.7811,-1.7636,-1.7461,-1.7313,-1.7355,-1.7264,-1.6942,-1.7076,-1.715,-1.7018,-1.7199,-1.7344,-1.7392,-1.7658,-1.7811,-1.7811,-1.7811,-1.7811,-1.7811,-1.7811,-1.842,-1.9529,-1.9681,-2.0491,-2.4581,-2.5799,-2.7381,-3.0294,-3.1976,-3.3026,-3.3468,-3.3583,-3.3449,-3.2987,-3.3949,-3.4872,-3.4872,-3.5218,-3.5493,-3.5493,-3.5493,-3.5304,-3.4793,-3.4694,-3.4483,-3.3868,-3.3447,-3.3273,-3.3494,-3.3332,-3.3273,-3.3494,-3.3707,-3.3807,-3.3807,-3.3625,-3.3522,-3.3522,-3.3105,-3.2599,-3.2016,-3.1702,-3.1011,-2.9865,-2.9468,-2.8904,-2.822,-2.8781,-2.8603,-2.7843,-2.7255,-2.7115,-2.7272,-2.6873,-2.6691,-2.6691,-2.6691,-2.6691,-2.6691,-2.6691,-2.6234,-2.5659,-2.6048,-2.5693,-2.5017,-2.4661,-2.4289,-2.3833,-2.3105,-2.2615,-2.231,-2.231,-2.231,-2.231,-2.231,-2.231,-2.231,-2.231,-2.2106,-2.1928,-2.1928,-2.1628,-2.1345,-2.1218,-2.023,-1.9316,-1.8961,-1.8302,-1.7811,-1.7811,-1.7811,-1.7929,-1.8285,-1.8019,-1.7782,-1.7807,-1.7504,-1.7167,-1.6821,-1.667,-1.6644,-1.6789,-1.6952,-1.7126,-1.728,-1.7618,-1.7811,-1.7811,-1.7811,-1.7811,-1.7811,-1.8149,-1.8724,-1.9486,-1.9833,-2.0627,-2.4744,-2.6607,-2.8804,-3.1639,-3.2527,-3.2716,-3.2711,-3.2699,-3.2699,-3.2699,-3.3506,-3.4237,-3.4391,-3.5007,-3.5493,-3.5493,-3.5493,-3.5304,-3.4793,-3.4694,-3.4483,-3.3868,-3.3447,-3.3214,-3.3214,-3.3214,-3.3214,-3.3214,-3.3578,-3.3807,-3.3807,-3.3437,-3.3214,-3.3214,-3.2681,-3.1895,-3.0938,-3.1056,-3.0385,-2.9023,-2.8406,-2.7799,-2.7227,-2.7898,-2.7878,-2.7303,-2.7241,-2.721,-2.7178,-2.6858,-2.6691,-2.6691,-2.6691,-2.6691,-2.6691,-2.6691,-2.615,-2.5439,-2.5558,-2.5033,-2.4218,-2.3596,-2.3393,-2.3257,-2.253,-2.231,-2.231,-2.231,-2.231,-2.231,-2.231,-2.231,-2.231,-2.231,-2.231,-2.231,-2.231,-2.231,-2.209,-2.1329,-2.0551,-1.9799,-1.9198,-1.8589,-1.8166,-1.8082,-1.8065,-1.8217,-1.8657,-1.856,-1.8409,-1.8193,-1.7598,-1.7074,-1.6733,-1.6219,-1.6108,-1.6686,-1.6763,-1.6926,-1.7199,-1.7572,-1.7811,-1.7811,-1.7811,-1.7811,-1.7811,-1.8403,-1.8843,-1.9096,-1.9714,-2.0517,-2.3183,-2.5769,-2.8435,-2.9447,-3.0839,-3.1932,-3.1857,-3.1852,-3.1852,-3.1852,-3.3103,-3.443,-3.5199,-3.543,-3.5493,-3.5493,-3.5493,-3.5304,-3.4793,-3.4694,-3.4483,-3.3868,-3.3447,-3.3214,-3.3214,-3.3214,-3.3214,-3.3214,-3.3578,-3.3807,-3.3807,-3.3437,-3.3214,-3.3214,-3.2366,-3.1861,-3.1835,-3.0768,-2.9868,-2.907,-2.7631,-2.6893,-2.6791,-2.725,-2.739,-2.7272,-2.6939,-2.6791,-2.6791,-2.6725,-2.6691,-2.6691,-2.6691,-2.6691,-2.6691,-2.6691,-2.5812,-2.4729,-2.5389,-2.4695,-2.3528,-2.3427,-2.3393,-2.3257,-2.253,-2.231,-2.231,-2.231,-2.231,-2.231,-2.231,-2.231,-2.231,-2.231,-2.231,-2.231,-2.231,-2.231,-2.209,-2.1329,-2.0551,-1.9968,-1.9866,-1.9765,-1.9562,-1.9147,-1.9104,-1.8809,-1.8048,-1.8643,-1.8684,-1.7404,-1.702,-1.6728,-1.6409,-1.6301,-1.6274,-1.6367,-1.6633,-1.6815,-1.6866,-1.7472,-1.7811,-1.7811,-1.7811,-1.7811,-1.7811,-1.7912,-1.8582,-1.9849,-1.9951,-2.0762,-2.4062,-2.5637,-2.7264,-2.9488,-3.0183,-3.0588,-3.1544,-3.1353,-3.1121,-3.1602,-3.2295,-3.291,-3.3295,-3.3737,-3.4199,-3.4699,-3.4776,-3.4749,-3.4717,-3.4694,-3.4483,-3.3868,-3.3447,-3.3214,-3.3214,-3.3214,-3.3214,-3.3214,-3.3578,-3.3807,-3.3807,-3.3166,-3.2809,-3.2809,-3.195,-3.1089,-3.0328,-2.9972,-2.9196,-2.808,-2.7158,-2.6808,-2.7019,-2.7004,-2.6954,-2.6971,-2.7036,-2.6906,-2.6691,-2.6691,-2.6691,-2.6691,-2.6691,-2.6691,-2.6691,-2.6691,-2.6015,-2.5101,-2.5,-2.4289,-2.3325,-2.2919,-2.2784,-2.2733,-2.2412,-2.231,-2.231,-2.231,-2.231,-2.231,-2.231,-2.231,-2.231,-2.231,-2.2106,-2.1899,-2.1811,-2.2077,-2.209,-2.1329,-2.0906,-2.0399,-1.9536,-1.9714,-1.9782,-1.9164,-1.9205,-1.9256,-1.9063,-1.8707,-1.8447,-1.8388,-1.7599,-1.7087,-1.7133,-1.6612,-1.6301,-1.6301,-1.6436,-1.6528,-1.6528,-1.715,-1.7526,-1.7526,-1.7704,-1.7811,-1.7811,-1.8217,-1.8758,-1.9401,-2.0281,-2.1042,-2.416,-2.4858,-2.572,-2.8948,-2.9316,-2.9373,-3.1079,-3.0914,-3.0571,-3.1237,-3.1371,-3.1371,-3.1371,-3.2218,-3.3103,-3.3757,-3.4064,-3.4246,-3.4338,-3.4562,-3.4483,-3.3868,-3.3447,-3.3214,-3.3214,-3.3214,-3.3214,-3.3214,-3.3494,-3.3652,-3.3652,-3.2791,-3.2316,-3.2316,-3.1411,-3.0353,-2.9138,-2.9197,-2.8608,-2.7439,-2.713,-2.7028,-2.7147,-2.6858,-2.6691,-2.6725,-2.7036,-2.6971,-2.6691,-2.6691,-2.6691,-2.6691,-2.6691,-2.6691,-2.6691,-2.6691,-2.6234,-2.549,-2.4746,-2.4002,-2.3274,-2.2547,-2.231,-2.231,-2.231,-2.231,-2.231,-2.231,-2.231,-2.231,-2.231,-2.231,-2.231,-2.231,-2.2032,-2.1718,-2.1491,-2.1661,-2.1776,-2.1532,-2.1339,-2.0899,-1.9925,-2.023,-2.0347,-1.9647,-1.9538,-1.9429,-1.9202,-1.8377,-1.8062,-1.8748,-1.7993,-1.7539,-1.7796,-1.6882,-1.6355,-1.6421,-1.6355,-1.6301,-1.6301,-1.685,-1.7175,-1.7175,-1.7502,-1.7704,-1.7811,-1.8352,-1.8724,-1.8927,-2.0264,-2.0991,-2.1836,-2.2656,-2.3846,-2.6442,-2.7639,-2.8573,-3.0206,-3.0471,-3.0398,-3.0456,-3.0456,-3.0456,-3.0456,-3.1795,-3.291,-3.2968,-3.366,-3.4036,-3.3544,-3.4183,-3.4483,-3.3868,-3.3447,-3.3214,-3.3214,-3.3214,-3.3214,-3.3214,-3.3214,-3.3243,-3.3243,-3.2332,-3.1861,-3.1861,-3.0745,-2.9938,-2.9471,-2.8797,-2.8218,-2.7757,-2.7757,-2.7385,-2.6725,-2.6725,-2.6691,-2.6691,-2.6725,-2.6725,-2.6691,-2.6691,-2.6691,-2.6691,-2.6691,-2.6691,-2.6691,-2.6691,-2.6234,-2.549,-2.4746,-2.4002,-2.3274,-2.2547,-2.231,-2.231,-2.231,-2.231,-2.231,-2.231,-2.231,-2.231,-2.231,-2.231,-2.231,-2.231,-2.2282,-2.2135,-2.1688,-2.1068,-2.0931,-2.2023,-2.1667,-2.1397,-2.2023,-2.2158,-2.1972,-2.1374,-2.0574,-1.9318,-1.7229,-1.7452,-1.7646,-1.7273,-1.7561,-1.7768,-1.7816,-1.6882,-1.6436,-1.6763,-1.6474,-1.6301,-1.6301,-1.6633,-1.6815,-1.6815,-1.715,-1.7462,-1.7811,-1.7845,-1.8217,-1.891,-1.9705,-2.0483,-2.166,-2.2109,-2.2812,-2.4802,-2.5893,-2.6782,-2.788,-2.8911,-2.9621,-2.9567,-3.0006,-3.0398,-3.0398,-3.0891,-3.1487,-3.2045,-3.2833,-3.337,-3.3393,-3.4146,-3.4483,-3.3868,-3.368,-3.3494,-3.3214,-3.3214,-3.3214,-3.3214,-3.2921,-3.2872,-3.3184,-3.2332,-3.1582,-3.1097,-3.0455,-2.9573,-2.8407,-2.7691,-2.7249,-2.7097,-2.7097,-2.6962,-2.6691,-2.6691,-2.6691,-2.6691,-2.6691,-2.6691,-2.6691,-2.6691,-2.642,-2.5998,-2.5998,-2.5998,-2.5998,-2.5998,-2.5828,-2.549,-2.4746,-2.4002,-2.3274,-2.2547,-2.231,-2.231,-2.231,-2.231,-2.231,-2.231,-2.231,-2.231,-2.231,-2.2077,-2.1705,-2.1134,-2.0829,-2.0665,-2.0748,-2.0986,-2.1345,-2.1774,-2.1888,-2.1837,-2.1617,-2.1384,-2.096,-2.0294,-1.9806,-1.9026,-1.7674,-1.7969,-1.8287,-1.8259,-1.8405,-1.859,-1.88,-1.7471,-1.6659,-1.6789,-1.6301,-1.5983,-1.5983,-1.6301,-1.6474,-1.6474,-1.6799,-1.715,-1.7479,-1.7704,-1.7946,-1.8217,-1.8961,-1.9452,-2.1309,-2.1465,-2.1934,-2.3906,-2.4562,-2.5174,-2.6879,-2.7841,-2.8519,-2.9033,-2.9578,-3.0044,-3.034,-3.0398,-3.059,-3.1179,-3.1879,-3.2492,-3.2902,-3.3631,-3.4054,-3.3831,-3.368,-3.3494,-3.3214,-3.2841,-3.2696,-3.2965,-3.2302,-3.2044,-3.2335,-3.1655,-3.0761,-2.9764,-2.9479,-2.8856,-2.7806,-2.7317,-2.7063,-2.7063,-2.7063,-2.6945,-2.6691,-2.6691,-2.6691,-2.6691,-2.6691,-2.6691,-2.6691,-2.6691,-2.6404,-2.5981,-2.5981,-2.5828,-2.5609,-2.5609,-2.5439,-2.5118,-2.4374,-2.3799,-2.3274,-2.2547,-2.231,-2.231,-2.231,-2.231,-2.231,-2.231,-2.231,-2.231,-2.231,-2.1957,-2.1444,-2.0862,-2.033,-1.9965,-2.0246,-2.0765,-2.1259,-2.1552,-2.1853,-2.1955,-2.1623,-2.1022,-2.0315,-1.9528,-1.8935,-1.8556,-1.8419,-1.8479,-1.8627,-1.8876,-1.9223,-1.9318,-1.9055,-1.7987,-1.7175,-1.6831,-1.6274,-1.5913,-1.5799,-1.6011,-1.6136,-1.6136,-1.6448,-1.6722,-1.6977,-1.7415,-1.7681,-1.7828,-1.8437,-1.9018,0.0,0.0,0.0,-2.3672,-2.3625,-2.3854,-2.7234,-2.7282,-2.7105,-2.875,-2.9062,-2.9305,-3.0198,-3.0359,-3.0359,-3.0398,-3.0904,-3.1515,-3.2034,-3.2641,-3.3213,-3.375,-3.3465,-3.3214,-3.3184,-3.2112,-3.1717,-3.2396,-3.1358,-3.0664,-3.0664,-3.025,-2.9364,-2.784,-2.7772,-2.7755,-2.7755,-2.7755,-2.7755,-2.7755,-2.7755,-2.7402,-2.6691,-2.6691,-2.6691,-2.6691,-2.6691,-2.6691,-2.6691,-2.6691,-2.6674,-2.6657,-2.6657,-2.6218,-2.5575,-2.5575,-2.5101,-2.4388,-2.3646,-2.3376,-2.3241,-2.2547,-2.231,-2.231,-2.231,-2.231,-2.231,-2.231,-2.231,-2.231,-2.2282,-2.1928,-2.1582,-2.1552,-2.0894,-2.028,-2.028,-2.028,-2.0534,-2.1413,-2.1582,-2.1764,-2.2209,-2.1356,-2.027,-1.9341,-1.8169,-1.7876,-1.9169,-1.8765,-1.8526,-1.8863,-1.9833,-1.9871,-1.8454,-1.8358,-1.7927,-1.6863,-1.6474,-1.6136,-1.5799,-1.5799,-1.5799,-1.5799,-1.6108,-1.6301,-1.6301,-1.6993,-1.7472,-1.7783,-1.8178,-1.9168,-2.0605,0.0,0.0,0.0,0.0,0.0,-2.3357,-2.4284,-2.5245,-2.6258,-2.6936,-2.7788,-2.919,-2.9467,-2.9679,-3.0314,-3.1066,-3.1785,-3.2317,-3.2902,-3.3484,-3.403,-3.3831,-3.339,-3.2745,-3.2388,-3.1908,-3.1254,-3.0606,-3.0155,-2.9936,-2.8954,-2.8228,-2.7806,-2.7283,-2.6996,-2.6996,-2.6996,-2.6996,-2.6996,-2.6996,-2.6894,-2.6691,-2.6691,-2.6691,-2.6691,-2.6691,-2.6691,-2.6691,-2.6691,-2.6387,-2.5913,-2.5913,-2.5456,-2.478,-2.478,-2.4323,-2.3663,-2.346,-2.3054,-2.2581,-2.2378,-2.231,-2.231,-2.231,-2.231,-2.231,-2.231,-2.231,-2.2209,-2.1899,-2.1477,-2.1086,-2.0748,-2.0261,-1.9874,-1.9874,-1.9874,-2.0139,-2.0991,-2.1399,-2.1764,-2.2209,-2.1356,-2.0242,-1.9193,-1.8323,-1.7614,-1.721,-1.7868,-1.8443,-1.8522,-1.9017,-1.9186,-1.8758,-1.8053,-1.7363,-1.6831,-1.6474,-1.6136,-1.5799,-1.5799,-1.5799,-1.5799,-1.587,-1.6067,-1.6301,-1.722,-1.7468,-1.7084,-1.7694,-1.8335,-2.1184,-2.1362,-2.1635,-2.1635,0.0,0.0,-2.2728,-2.3361,-2.4206,-2.568,-2.6374,-2.7091,-2.8354,-2.8871,-2.9275,-2.9775,-3.0602,-3.1482,-3.2374,-3.2619,-3.3109,-3.4093,-3.3961,-3.3532,-3.2858,-3.2364,-3.1663,-3.0768,-3.0031,-2.9425,-2.8888,-2.7879,-2.7351,-2.7351,-2.6911,-2.6691,-2.6691,-2.6691,-2.6691,-2.6691,-2.6691,-2.6691,-2.6691,-2.6691,-2.6691,-2.6691,-2.6691,-2.6691,-2.6691,-2.6691,-2.6437,-2.6065,-2.6065,-2.5406,-2.4506,-2.4506,-2.3833,-2.2936,-2.2936,-2.2665,-2.231,-2.231,-2.231,-2.231,-2.231,-2.231,-2.231,-2.231,-2.231,-2.2237,-2.1957,-2.1446,-2.0926,-2.0649,-2.0139,-1.969,-1.969,-1.969,-1.9909,-2.0681,-2.1023,-2.1415,-2.218,-2.1401,-2.0401,-1.9504,-1.8269,-1.7471,-1.7582,-1.8068,-1.846,-1.8585,-1.9042,-1.9113,-1.8488,-1.8138,-1.7682,-1.7043,-1.6696,-1.6355,-1.6011,-1.5885,-1.5799,-1.5799,-1.5799,-1.6005,-1.6479,-1.694,-1.7133,-1.7022,-1.7844,-1.8435,-2.2143,-2.2505,-2.3093,-2.3093,-2.2568,0.0,-2.3789,-2.3528,-2.3581,-2.579,-2.6185,-2.642,-2.7315,-2.8132,-2.8698,-2.8813,-2.964,-3.0753,-3.2214,-3.2091,-3.2422,-3.3929,-3.3938,-3.3662,-3.3243,-3.2184,-3.1308,-3.0734,-2.9553,-2.8518,-2.774,-2.7063,-2.6691,-2.6691,-2.6691,-2.6691,-2.6691,-2.6691,-2.6691,-2.6691,-2.6691,-2.6691,-2.6691,-2.6691,-2.6691,-2.6691,-2.6691,-2.6691,-2.6691,-2.6691,-2.6691,-2.6691,-2.6691,-2.5795,-2.4506,-2.4506,-2.3562,-2.231,-2.231,-2.231,-2.231,-2.231,-2.231,-2.231,-2.231,-2.231,-2.231,-2.231,-2.231,-2.2282,-2.2237,-2.1615,-2.1007,-2.0926,-2.0311,-1.969,-1.969,-1.9762,-1.9909,-2.0496,-2.0614,-2.0991,-2.2123,-2.1566,-2.0696,-1.9947,-1.8259,-1.7585,-1.8995,-1.8689,-1.8444,-1.8751,-1.9343,-1.9208,-1.7907,-1.8403,-1.837,-1.7353,-1.7027,-1.6686,-1.6328,-1.6011,-1.5827,-1.5799,-1.5799,-1.6099,-1.6712,-1.6388,-1.6632,-1.736,-1.8275,-1.8856,-2.2974,-2.2881,-2.3022,-2.3022,-2.2942,0.0,-2.2385,-2.222,-2.2261,-2.2684,-2.2715,-2.3118,-2.4575,-2.5495,-2.6274,-2.6967,-2.8352,-2.9936,-3.1629,-3.2145,-3.2673,-3.3463,-3.3877,-3.3899,-3.3255,-3.2652,-3.1857,-3.0786,-2.904,-2.7723,-2.6945,-2.6776,-2.6691,-2.6691,-2.6691,-2.6691,-2.6691,-2.6691,-2.6691,-2.6691,-2.6691,-2.6691,-2.6691,-2.6691,-2.6691,-2.6691,-2.6691,-2.6691,-2.6691,-2.6691,-2.6691,-2.6691,-2.6691,-2.5795,-2.4506,-2.4506,-2.3562,-2.231,-2.231,-2.231,-2.231,-2.231,-2.231,-2.231,-2.231,-2.231,-2.231,-2.231,-2.231,-2.2209,-2.1823,-2.1385,-2.0894,-2.0516,-2.007,-1.969,-1.969,-1.9929,-2.0261,-2.0563,-2.078,-2.1229,-2.2152,-2.2141,-2.1421,-1.9664,-1.9068,-1.8551,-1.7798,-1.7826,-1.7946,-1.8008,-1.8126,-1.8115,-1.7828,-1.7929,-1.7809,-1.732,-1.7248,-1.6926,-1.6328,-1.6246,-1.6095,-1.5799,-1.5799,-1.6099,-1.6712,-1.6172,-1.6487,-1.7631,-1.7815,-1.7837,-2.3889,-2.3863,-2.4096,-2.3663,-2.3607,0.0,0.0,-2.2769,-2.307,-2.3011,-2.2994,-2.3227,-2.3966,-2.4783,-2.5509,-2.5975,-2.7449,-2.8869,-2.9727,-3.1033,-3.2264,-3.3279,-3.3515,-3.3574,-3.3514,-3.3105,-3.2086,-3.0299,-2.834,-2.7097,-2.6708,-2.6691,-2.6691,-2.6691,-2.6691,-2.6691,-2.6691,-2.6691,-2.6691,-2.6691,-2.6691,-2.6691,-2.6691,-2.6691,-2.6691,-2.6691,-2.6691,-2.6691,-2.6691,-2.6691,-2.6471,-2.615,-2.615,-2.5253,-2.3934,-2.3934,-2.3241,-2.231,-2.231,-2.231,-2.231,-2.231,-2.231,-2.231,-2.231,-2.231,-2.231,-2.231,-2.231,-2.218,-2.1718,-2.1306,-2.0894,-2.0416,-2.0,-1.969,-1.969,-1.9874,-2.0193,-2.0862,-2.1354,-2.1632,-2.1551,-2.1346,-2.0703,-1.9299,-1.8775,-1.8323,-1.7639,-1.7704,-1.7811,-1.7811,-1.7811,-1.7811,-1.7811,-1.7811,-1.7726,-1.7549,-1.7224,-1.6901,-1.6554,-1.6219,-1.5983,-1.5799,-1.6099,-1.6337,-1.6498,-1.6527,-1.7029,-1.7941,-1.811,-1.8029,-2.4794,-2.4846,-2.5213,-2.4501,-2.4387,-2.4219,0.0,0.0,0.0,-2.4011,-2.4008,-2.4,-2.3909,-2.4457,-2.4994,-2.5207,-2.652,-2.755,-2.7707,-2.9409,-3.1172,-3.2581,-3.2685,-3.2877,-3.3425,-3.2922,-3.1697,-2.9647,-2.7823,-2.6808,-2.6808,-2.6758,-2.6691,-2.6691,-2.6691,-2.6691,-2.6691,-2.6691,-2.6691,-2.6691,-2.6691,-2.6691,-2.6691,-2.6691,-2.6691,-2.6691,-2.6691,-2.6691,-2.6691,-2.6691,-2.6268,-2.5609,-2.5609,-2.4712,-2.3393,-2.3393,-2.2936,-2.231,-2.231,-2.231,-2.231,-2.231,-2.231,-2.231,-2.231,-2.231,-2.231,-2.231,-2.231,-2.218,-2.1628,-2.1306,-2.0959,-2.0314,-2.0,-1.9782,-1.9711,-1.9747,-2.0104,-2.1118,-2.1781,-2.1956,-2.1201,-2.0264,-1.9427,-1.9029,-1.8302,-1.7811,-1.7811,-1.7811,-1.7811,-1.7811,-1.7811,-1.7811,-1.7811,-1.7811,-1.7811,-1.7811,-1.7288,-1.6968,-1.6917,-1.6313,-1.5955,-1.5898,-1.6367,-1.6604,-1.6597,-1.7073,-1.7571,-1.8129,-1.8402,-1.8388,-2.563,-2.5245,-2.5284,-2.5188,-2.52,-2.5045,-2.4179,0.0,-2.401,-2.3286,0.0,-2.3069,-2.3111,0.0,0.0,-2.4225,-2.5108,-2.5942,-2.6651,-2.7629,-2.8804,-3.0221,-3.1029,-3.1688,-3.2238,-3.1071,-2.9934,-2.9142,-2.7848,-2.7178,-2.7241,-2.6906,-2.6691,-2.6691,-2.6691,-2.6691,-2.6691,-2.6691,-2.6691,-2.6691,-2.6691,-2.6691,-2.6691,-2.6691,-2.6691,-2.6691,-2.6691,-2.6691,-2.6691,-2.6691,-2.6268,-2.5609,-2.5609,-2.4712,-2.3393,-2.3393,-2.2936,-2.231,-2.231,-2.231,-2.231,-2.231,-2.231,-2.231,-2.231,-2.231,-2.231,-2.231,-2.231,-2.2106,-2.1291,-2.1306,-2.1228,-2.0035,-2.0,-2.0124,-1.9782,-1.9965,-2.0382,-2.0926,-2.1385,-2.179,-2.2085,-1.9875,-1.8318,-1.9137,-1.842,-1.7811,-1.7811,-1.7811,-1.7811,-1.7811,-1.7811,-1.7811,-1.7811,-1.7811,-1.7811,-1.7811,-1.7743,-1.7549,-1.7272,-1.6876,-1.6554,-1.6246,-1.6323,-1.6784,-1.7634,-1.7421,-1.7483,-1.7844,-1.7896,-1.7896,-2.5367,-2.5019,-2.5024,-2.5118,-2.5146,-2.4976,-2.4261,-2.4501,-2.4671,-2.3816,0.0,0.0,0.0,0.0,0.0,0.0,-2.4884,-2.553,-2.5857,-2.6179,-2.7102,-2.9017,-2.9574,-3.0219,-3.1299,-3.0105,-2.9351,-2.9572,-2.7918,-2.7016,-2.7269,-2.7147,-2.6939,-2.6691,-2.6691,-2.6691,-2.6691,-2.6691,-2.6691,-2.6691,-2.6691,-2.6691,-2.6691,-2.6691,-2.6691,-2.6691,-2.6691,-2.6691,-2.6691,-2.6691,-2.6268,-2.5609,-2.5609,-2.4712,-2.3342,-2.2919,-2.2581,-2.231,-2.231,-2.231,-2.231,-2.231,-2.231,-2.231,-2.231,-2.231,-2.231,-2.231,-2.231,-2.2152,-2.1507,-2.1306,-2.1055,-2.0227,-2.0,-1.9909,-1.9762,-1.9839,-2.0174,-2.0862,-2.1134,-2.1477,-2.218,-2.0771,-1.9435,-1.9137,-1.8335,-1.7811,-1.7811,-1.7811,-1.7811,-1.7811,-1.7811,-1.7811,-1.7811,-1.7811,-1.7811,-1.7811,-1.7635,-1.7344,-1.7027,-1.7303,-1.738,-1.7219,-1.7614,-1.8131,-1.8779,-1.8631,-1.8486,-1.8434,-1.799,-1.7701,-2.5649,-2.5299,-2.5154,-2.5292,-2.5342,-2.5187,-2.4572,-2.4924,-2.5189,-2.4571,-2.4461,0.0,0.0,0.0,-2.4613,-2.4857,0.0,-2.5383,-2.5379,-2.5321,-2.6,-2.7899,-2.8343,-2.8869,-2.9878,-2.8801,-2.8442,-2.9406,-2.7644,-2.6825,-2.7549,-2.7409,-2.7178,-2.6873,-2.6758,-2.6691,-2.6691,-2.6691,-2.6691,-2.6691,-2.6691,-2.6691,-2.6691,-2.6691,-2.6691,-2.6691,-2.6691,-2.6691,-2.6691,-2.6691,-2.6387,-2.5879,-2.5693,-2.4814,-2.3613,-2.2868,-2.2479,-2.231,-2.231,-2.231,-2.231,-2.231,-2.231,-2.231,-2.231,-2.231,-2.231,-2.231,-2.231,-2.218,-2.1718,-2.1477,-2.1181,-2.0483,-2.0174,-1.998,-1.9747,-1.969,-1.9909,-2.0665,-2.0926,-2.1229,-2.1974,-2.1248,-2.0281,-1.9333,-1.8403,-1.7811,-1.7811,-1.7811,-1.7811,-1.7811,-1.7704,-1.7658,-1.7658,-1.7589,-1.7566,-1.7658,-1.7526,-1.7371,-1.7242,-1.7831,-1.8134,-1.8028,-1.8518,-1.8953,-1.9342,-1.9184,-1.905,-1.8894,-1.8358,-1.7862,0.0,0.0,-2.5993,-2.614,-2.6199,-2.6079,-2.5407,-2.5274,-2.5293,-2.5264,-2.5255,-2.5543,-2.6439,-2.5925,-2.5627,-2.6482,-2.5925,0.0,0.0,-2.5313,-2.563,-2.6553,-2.7399,-2.7842,-2.7636,-2.6687,-2.6677,-2.8051,-2.6826,-2.6711,-2.8278,-2.7689,-2.7286,-2.7272,-2.6906,-2.6691,-2.6691,-2.6691,-2.6691,-2.6691,-2.6691,-2.6691,-2.6691,-2.6691,-2.6691,-2.6691,-2.6691,-2.6691,-2.6691,-2.6691,-2.6674,-2.659,-2.5879,-2.5135,-2.4388,-2.363,-2.2919,-2.231,-2.231,-2.231,-2.231,-2.231,-2.231,-2.231,-2.231,-2.231,-2.231,-2.231,-2.231,-2.218,-2.1718,-2.1928,-2.1945,-2.0616,-2.0616,-2.0731,-1.9889,-1.969,-1.9818,-2.0246,-2.0682,-2.1118,-2.1552,-2.0722,-2.0002,-1.9968,-1.8718,-1.7811,-1.7811,-1.7811,-1.7811,-1.7811,-1.7502,-1.732,-1.732,-1.7027,-1.6952,-1.7296,-1.7612,-1.7954,-1.8317,-1.8684,-1.8725,-1.8383,-1.8416,-1.8568,-1.8927,-1.8593,-1.8593,-1.8894,-1.887,-1.8481,0.0,0.0,-2.5652,-2.5806,0.0,-2.5882,-2.5773,-2.5348,-2.4987,-2.5077,-2.5099,-2.5412,-2.6449,-2.6381,-2.6285,-2.6583,-2.6381,-2.5986,0.0,-2.5303,-2.5399,-2.5687,-2.6505,-2.7003,-2.691,-2.6369,-2.6645,-2.8181,-2.7128,-2.6968,-2.833,-2.7946,-2.7577,-2.7303,-2.6906,-2.6691,-2.6691,-2.6691,-2.6691,-2.6691,-2.6691,-2.6691,-2.6691,-2.6691,-2.6691,-2.6691,-2.6691,-2.6691,-2.6691,-2.6691,-2.6691,-2.6674,-2.642,-2.5575,-2.4421,-2.3663,-2.2936,-2.231,-2.231,-2.231,-2.231,-2.231,-2.231,-2.231,-2.231,-2.231,-2.231,-2.231,-2.231,-2.2254,-2.2106,-2.1751,-2.1323,-2.0862,-2.0431,-2.005,-1.9747,-1.969,-1.9818,-2.0212,-2.0682,-2.1118,-2.1521,-2.1167,-2.0619,-2.0069,-1.9164,-1.8352,-1.7862,-1.7811,-1.7704,-1.7502,-1.7368,-1.7224,-1.6977,-1.7076,-1.7272,-1.7612,-1.8205,-1.8593,-1.8732,-1.9824,-2.0364,-2.0243,-1.9714,-1.979,-2.0399,-1.9765,-1.9261,-1.891,-1.9401,-1.8954,-2.5147,-2.5217,0.0,-2.5634,-2.5689,0.0,-2.5596,-2.5167,-2.4908,-2.5283,-2.5139,-2.5406,-2.6944,-2.6826,-2.6584,-2.686,-2.6732,-2.6294,0.0,-2.5303,-2.5303,-2.5303,-2.5813,-2.6255,-2.6563,-2.5704,-2.5918,-2.7829,-2.6859,-2.6702,0.0,-2.7932,-2.7725,-2.7317,-2.6906,-2.6691,-2.6691,-2.6691,-2.6691,-2.6691,-2.6691,-2.6691,-2.6691,-2.6691,-2.6691,-2.6691,-2.6691,-2.6691,-2.6691,-2.6691,-2.6691,-2.6691,-2.6691,-2.5795,-2.4455,-2.3951,-2.3156,-2.231,-2.231,-2.231,-2.231,-2.231,-2.231,-2.231,-2.231,-2.231,-2.231,-2.231,-2.231,-2.231,-2.231,-2.1886,-2.1385,-2.1055,-2.0565,-2.0085,-1.9747,-1.969,-1.9818,-2.0212,-2.0682,-2.1118,-2.1521,-2.1602,-2.1329,-2.0551,-1.979,-1.9029,-1.8302,-1.82,-1.8044,-1.7691,-1.7691,-1.7649,-1.7599,-1.7773,-1.8029,-1.8382,-1.8957,-1.9418,-1.9705,-2.0679,-2.1204,-2.1204,-2.0686,-2.0686,-2.1204,-2.0686,-2.0179,-1.9722,-2.0213,-1.9638]},{"header":{"parameterUnit":"m.s-1","parameterCategory":1,"la1":30.6,"la2":29.2853,"lo1":-89.7004,"lo2":-87.6739,"dy":0.0162,"dx":0.0183,"nx":112,"ny":82,"refTime":"2026-05-23T12:00:00:Z","depth":0,"parameterNumber":3,"parameterNumberName":"V-component_of_WINDS"},"data":[0.0,0.0,0.0,0.0,0.0,0.0,0.0,0.0,0.0,0.0,0.0,0.0,0.0,0.0,0.0,0.0,0.0,0.0,0.0,0.0,0.0,0.0,0.0,0.0,0.0,0.0,0.0,0.0,0.0,0.0,0.0,0.0,0.0,0.0,0.0,0.0,0.0,0.0,0.0,0.0,0.0,0.0,0.0,0.0,0.0,0.0,0.0,0.0,0.0,0.0,0.0,0.0,0.0,0.0,0.0,0.0,0.0,0.0,0.0,0.0,0.0,0.0,0.0,0.0,0.0,0.0,0.0,0.0,0.0,0.0,0.0,0.0,0.0,0.0,0.0,0.0,0.0,0.0,0.0,0.0,0.0,0.0,0.0,0.0,0.0,0.0,0.0,0.0,0.0,0.0,0.5196,0.5863,0.5448,0.5113,0.492,0.3401,0.2297,0.1784,0.0,0.0,0.0,0.0,0.0,0.0,0.0,0.0,0.0,0.0,0.0,0.0,0.0,0.0,0.0,0.0,0.0,0.0,0.0,0.0,0.0,0.0,0.0,0.0,0.0,0.0,0.0,0.0,0.0,0.0,0.0,0.0,0.0,0.0,0.0,0.0,0.0,0.0,0.0,0.0,0.0,0.0,0.0,0.0,0.0,0.0,0.0,0.0,0.0,0.0,0.0,0.0,0.0,0.0,0.0,0.0,0.0,0.0,0.0,0.0,0.0,0.0,0.0,0.0,0.0,0.0,0.0,0.0,0.0,0.0,0.0,0.0,0.0,0.0,0.0,0.0,0.0,0.0,0.0,0.0,0.0,0.0,0.0,0.0,0.0,0.0,0.0,0.0,0.0,0.0,0.0,0.0,0.0,0.0,0.0,0.0,0.0,0.0,0.0,0.0,0.0,0.0,0.0,0.0,0.5403,0.6335,0.6394,0.6031,0.4954,0.4496,0.316,0.0483,0.0,0.0,0.0,0.0,0.0,0.0,0.0,0.0,0.0,0.0,0.0,0.0,0.0,0.0,0.0,0.0,0.0,0.0,0.0,0.0,0.0,0.0,0.0,0.0,0.0,0.0,0.0,0.0,0.0,0.0,0.0,0.0,0.0,0.0,0.0,0.0,0.0,0.0,0.0,0.0,0.0,0.0,0.0,0.0,0.0,0.0,0.0,0.0,0.0,0.0,0.0,0.0,0.0,0.0,0.0,0.0,0.0,0.0,0.0,0.0,0.0,0.0,0.0,0.0,0.0,0.0,0.0,0.0,0.0,0.0,0.0,0.0,0.0,0.0,0.0,0.0,0.0,0.0,0.0,0.0,0.0,0.0,0.0,0.0,0.0,0.0,0.0,0.0,0.0,0.0,0.0,0.0,0.0,0.0,0.0,0.0,0.0,0.0,0.0,0.0,0.0,0.0,0.0,0.5173,0.563,0.6288,0.642,0.6188,0.5553,0.5445,0.4434,0.2281,0.1401,0.0,0.0,0.0,0.0,0.0,0.0,0.0,0.0,0.0,0.0,0.0,0.0,0.0,0.0,0.0,0.0,0.0,0.0,0.0,0.0,0.0,0.0,0.0,0.0,0.0,0.0,0.0,0.0,0.0,0.0,0.0,0.0,0.0,0.0,0.0,0.0,0.0,0.0,0.0,0.0,0.0,0.0,0.0,0.0,0.0,0.0,0.0,0.0,0.0,0.0,0.0,0.0,0.0,0.0,0.0,0.0,0.0,0.0,0.0,0.0,0.0,0.0,0.0,0.0,0.0,0.0,0.0,0.0,0.0,0.0,0.0,0.0,0.0,0.0,0.0,0.0,0.0,0.0,0.0,0.0,0.0,0.0,0.0,0.0,0.0,0.0,0.0,0.0,0.0,0.0,0.0,0.0,0.0,0.0,0.0,0.0,0.0,0.0,0.0,0.0,0.0,0.0,0.5576,0.5772,0.6115,0.6186,0.6142,0.5989,0.5888,0.5202,0.3744,0.2578,0.0,0.0,0.0,0.0,0.0,0.0,0.0,0.0,0.0,0.0,0.0,0.0,0.0,0.0,0.0,0.0,0.0,0.0,0.0,0.0,0.0,0.0,0.0,0.0,0.0,0.0,0.0,0.0,0.0,0.0,0.0,0.0,0.0,0.0,0.0,0.0,0.0,0.0,0.0,0.0,0.0,0.0,0.0,0.0,0.0,0.0,0.0,0.0,0.0,0.0,0.0,0.0,0.0,0.0,0.0,0.0,0.0,0.0,0.0,0.0,0.0,0.0,0.0,0.0,0.0,0.0,0.0,0.0,0.0,0.0,0.0,0.0,0.0,0.0,0.0,0.0,0.0,0.0,0.0,0.0,0.0,0.0,0.0,0.0,0.0,0.0,0.0,0.0,0.0,0.0,0.0,0.0,0.0,0.0,0.0,0.0,0.0,0.0,0.0,0.0,0.0,0.0,0.56,0.5796,0.583,0.5962,0.5983,0.583,0.5555,0.4719,0.3085,0.2634,0.0,0.0,0.0,0.0,0.0,0.0,0.0,0.0,0.0,0.0,0.0,0.0,0.0,0.0,0.0,0.0,0.0,0.0,0.0,0.0,0.0,0.0,0.0,0.0,0.0,0.0,0.0,0.0,0.0,0.0,0.0,0.0,0.0,0.0,0.0,0.0,0.0,0.0,0.0,0.0,0.0,0.0,0.0,0.0,0.0,0.0,0.0,0.0,0.0,0.0,0.0,0.0,0.0,0.0,0.0,0.0,0.0,0.0,0.0,0.0,0.0,0.0,0.0,0.0,0.0,0.0,0.0,0.0,0.0,0.0,0.0,0.0,0.0,0.0,0.0,0.0,0.0,0.0,0.0,0.0,0.0,0.0,0.0,0.0,0.0,0.0,0.0,0.0,0.0,0.0,0.0,0.0,0.0,0.0,0.0,0.0,0.0,0.0,0.0,0.0,0.0,0.0,0.5373,0.5596,0.5783,0.585,0.5827,0.5681,0.5481,0.4822,0.3413,0.0,0.0,0.0,0.0,0.0,0.0,0.0,0.0,0.0,0.0,0.0,0.0,0.0,0.0,0.0,0.0,0.0,0.0,0.0,0.0,0.0,0.0,0.0,0.0,0.0,0.0,0.0,0.0,0.0,0.0,0.0,0.0,0.0,0.0,0.0,0.0,0.0,0.0,0.0,0.0,0.0,0.0,0.0,0.0,0.0,0.0,0.0,0.0,0.0,0.0,0.0,0.0,0.0,0.0,0.0,0.0,0.0,0.0,0.0,0.0,0.0,0.0,0.0,0.0,0.0,0.0,0.0,0.0,0.0,0.0,0.0,0.0,0.0,0.0,0.0,0.0,0.0,0.0,0.0,0.0,0.0,0.0,0.0,0.0,0.0,0.0,0.0,0.0,0.0,0.0,0.0,0.0,0.0,0.0,0.0,0.0,0.0,0.0,0.0,0.0,0.0,0.0,0.4802,0.5189,0.5491,0.5644,0.5705,0.5674,0.5532,0.5335,0.475,0.365,0.0,0.0,0.0,0.0,0.0,0.0,0.0,0.0,0.0,0.0,0.0,0.0,0.0,0.0,0.0,0.0,0.0,0.0,0.0,0.0,0.0,0.0,0.0,0.0,0.0,0.0,0.0,0.0,0.0,0.0,0.0,0.0,0.0,0.0,0.0,0.0,0.0,0.0,0.0,0.0,0.0,0.0,0.0,0.0,0.0,0.0,0.0,0.0,0.0,0.0,0.0,0.0,0.0,0.0,0.0,0.0,0.0,0.0,0.0,0.0,0.0,0.0,0.0,0.0,0.0,0.0,0.0,0.0,0.0,0.0,0.0,0.0,0.0,0.0,0.0,0.0,0.0,0.0,0.0,0.0,0.0,0.0,0.0,0.0,0.0,0.0,0.0,0.0,0.0,0.0,0.0,0.0,0.0,0.0,0.0,0.0,0.0,0.0,0.0,0.0,0.0,0.0,0.4667,0.5213,0.5528,0.5446,0.5498,0.5525,0.5439,0.5087,0.455,0.0,0.0,0.0,0.0,0.0,0.0,0.0,0.0,0.0,0.0,0.0,0.0,0.0,0.0,0.0,0.0,0.0,0.0,0.0,0.0,0.0,0.0,0.0,0.0,0.0,0.0,0.0,0.0,0.0,0.0,0.0,0.0,0.0,0.0,0.0,0.0,0.0,0.0,0.0,0.0,0.0,0.0,0.0,0.0,0.0,0.0,0.0,0.0,0.0,0.0,0.0,0.0,0.0,0.0,0.0,0.0,0.0,0.0,0.0,0.0,0.0,0.0,0.0,0.0,0.0,0.0,0.0,0.0,0.0,0.0,0.0,0.0,0.0,0.0,0.0,0.0,0.0,0.0,0.0,0.0,0.0,0.0,0.0,0.0,0.0,0.0,0.0,0.0,0.0,0.0,0.0,0.0,0.0,0.0,0.0,0.0,0.0,0.0,0.0,0.0,0.0,0.0,0.0,0.4622,0.5445,0.5871,0.5422,0.5403,0.5365,0.5213,0.5026,0.4644,0.4072,0.0,0.0,0.0,0.0,0.0,0.0,0.0,0.0,0.0,0.0,0.0,0.0,0.0,0.0,0.0,0.0,0.0,0.0,0.0,0.0,0.0,0.0,0.0,0.0,0.0,0.0,0.0,0.0,0.0,0.0,0.0,0.0,0.0,0.0,0.0,0.0,0.0,0.0,0.0,0.0,0.0,0.0,0.0,0.0,0.0,0.0,0.0,0.0,0.0,0.0,0.0,0.0,0.0,0.0,0.0,0.0,0.0,0.0,0.0,0.0,0.0,0.0,0.0,0.0,0.0,0.0,0.0,0.0,0.0,0.0,0.0,0.0,0.0,0.0,0.0,0.0,0.0,0.0,0.0,0.0,0.0,0.0,0.0,0.0,0.0,0.0,0.0,0.0,0.0,0.0,0.0,0.0,0.0,0.0,0.0,0.0,0.0,0.0,0.0,0.0,0.0,0.0,0.5042,0.5914,0.6341,0.583,0.5728,0.5459,0.5053,0.515,0.4944,0.4217,0.0,0.0,0.0,0.0,0.0,0.0,0.0,0.0,0.0,0.0,0.0,0.0,0.0,0.0,0.0,0.0,0.0,0.0,0.0,0.0,0.0,0.0,0.0,0.0,0.0,0.0,0.0,0.0,0.0,0.0,0.0,0.0,0.0,0.0,0.0,0.0,0.0,0.0,0.0,0.0,0.0,0.0,0.0,0.0,0.0,0.0,0.0,0.0,0.0,0.0,0.0,0.0,0.0,0.0,0.0,0.0,0.0,0.0,0.0,0.0,0.0,0.0,0.0,0.0,0.0,0.0,0.0,0.0,0.0,0.0,0.0,0.0,0.0,0.0,0.0,0.0,0.0,0.0,0.0,0.0,0.0,0.0,0.0,0.0,0.0,0.0,0.0,0.0,0.0,0.0,0.0,0.0,0.0,0.0,0.0,0.0,0.0,0.0,0.0,0.0,0.0,0.0,0.572,0.6597,0.6995,0.6524,0.621,0.5747,0.5019,0.5467,0.5394,0.4372,0.0,0.0,0.0,0.0,0.0,0.0,0.0,0.0,0.0,0.0,0.0,0.0,0.0,0.0,0.0,0.0,0.0,0.0,0.0,0.0,0.0,0.0,0.0,0.0,0.0,0.0,0.0,0.0,0.0,0.0,0.0,0.0,0.0,0.0,0.0,0.0,0.0,0.0,0.0,0.0,0.0,0.0,0.0,0.0,0.0,0.0,0.0,0.0,0.0,0.0,0.0,0.0,0.0,0.0,0.0,0.0,0.0,0.0,0.0,0.0,0.9186,0.8455,0.0,0.0,0.0,0.0,0.0,0.0,0.0,0.0,0.0,0.0,0.0,0.0,0.0,0.0,0.0,0.0,0.0,0.0,0.0,0.0,0.0,0.0,0.0,0.0,0.0,0.0,0.0,0.0,0.0,0.0,0.0,0.0,0.0,0.0,0.0,0.0,0.0,0.0,0.0,0.0,0.5471,0.6759,0.7522,0.6986,0.6375,0.5875,0.5615,0.574,0.5617,0.5096,0.4948,0.0,0.0,0.0,0.0,0.0,0.0,0.0,0.0,0.0,0.0,0.0,0.0,0.0,0.0,0.0,0.0,0.0,0.0,0.0,0.0,0.0,0.0,0.0,0.0,0.0,0.0,0.0,0.0,0.0,0.0,0.0,0.0,0.0,0.0,0.0,0.0,0.0,0.0,0.0,0.0,0.0,0.0,0.0,0.0,0.0,0.0,0.0,0.0,0.0,0.0,0.0,0.0,0.0,0.0,0.0,0.0,0.0,0.0,0.0,1.0453,0.9733,0.0,0.0,0.0,0.0,0.0,0.0,0.0,0.0,0.0,0.0,0.0,0.0,0.0,0.0,0.0,0.0,0.0,0.0,0.0,0.0,0.0,0.0,0.0,0.0,0.0,0.0,0.0,0.0,0.0,0.0,0.0,0.0,0.0,0.0,0.0,0.0,0.0,0.0,0.0,0.0,0.5966,0.7346,0.8128,0.7701,0.7161,0.6483,0.5698,0.6304,0.6287,0.5349,0.5889,0.0,0.0,0.0,0.0,0.0,0.0,0.0,0.0,0.0,0.0,0.0,0.0,0.0,0.0,0.0,0.0,0.0,0.0,0.0,0.0,0.0,0.0,0.0,0.0,0.0,0.0,0.0,0.0,0.0,0.0,0.0,0.0,0.0,0.0,0.0,0.0,0.0,0.0,0.0,0.0,0.0,0.0,0.0,0.0,0.0,0.0,0.0,0.0,0.0,0.0,0.0,0.0,0.0,1.4221,1.4336,1.411,1.3405,1.3053,1.2848,1.1674,1.0934,1.0584,1.004,0.0,0.0,0.0,0.0,0.0,0.0,0.0,0.0,0.0,0.0,0.0,0.0,0.0,0.0,0.0,0.0,0.0,0.0,0.0,0.0,0.0,0.0,0.0,0.0,0.845,0.8383,0.8136,0.0,0.0,0.0,0.0,0.0,0.0,0.0,0.0,0.0,0.0,0.0,0.6726,0.7939,0.8625,0.8349,0.7824,0.7083,0.5968,0.6972,0.7109,0.5802,0.6843,0.6749,0.0,0.0,0.0,0.0,0.0,0.0,0.0,0.0,0.0,0.0,0.0,0.0,0.0,0.0,0.0,0.0,0.0,0.0,0.0,0.0,0.0,0.0,0.0,0.0,0.0,0.0,0.0,0.0,0.0,0.0,0.0,0.0,0.5573,0.6809,0.0,0.0,0.0,0.0,0.0,0.0,0.0,0.0,0.0,0.0,0.0,0.0,0.0,1.3441,1.4182,1.5157,1.5677,1.5734,1.6552,1.6908,1.6869,1.6296,1.5566,1.4738,1.3712,0.0,1.0618,1.0537,0.0,0.0,0.0,0.0,0.0,0.0,0.0,0.0,0.0,0.0,0.0,0.0,0.0,0.0,0.0,0.0,0.0,0.0,0.0,0.0,0.0,0.0,0.9379,0.8871,0.8751,0.8738,0.0,0.8191,0.7695,0.7438,0.7115,0.0,0.0,0.0,0.0,0.0,0.0,0.0,0.7345,0.7987,0.8544,0.8725,0.7639,0.7068,0.7357,0.7361,0.7367,0.7393,0.7459,0.7081,0.6228,0.547,0.0,0.0,0.0,0.0,0.0,0.0,0.0,0.0,0.0,0.0,0.0,0.0,0.0,0.0,0.0,0.0,0.0,0.0,0.0,0.0,0.0,0.0,0.0,0.0,0.0,0.0,0.0,0.0,0.0,0.3673,0.6573,0.7599,0.8515,0.8871,0.0,0.0,0.0,0.0,0.0,0.0,0.0,0.0,0.0,1.3553,1.4408,1.5269,1.6056,1.6573,1.7041,1.751,1.7656,1.7861,1.8018,1.7019,1.6349,1.593,1.4378,1.3108,1.2062,1.1197,1.0555,1.014,0.0,0.0,0.0,0.0,0.9599,0.9532,0.9826,0.984,0.9679,0.9289,0.0,0.0,0.0,0.0,0.0,0.0,0.0,0.913,0.0,0.0,0.9325,0.8911,0.8804,0.8804,0.8804,0.8604,0.8337,0.0,0.7937,0.764,0.702,0.0,0.0,0.0,0.0,0.708,0.6996,0.7813,0.8357,0.8317,0.7779,0.7376,0.7209,0.748,0.7518,0.7221,0.7722,0.7628,0.6822,0.6591,0.5903,0.0,0.0,0.0,0.0,0.0,0.0,0.0,0.0,0.0,0.0,0.0,0.0,0.0,0.0,0.0,0.0,0.0,0.0,0.0,0.0,0.0,0.0,0.0,0.0,0.0,0.0,0.0,0.0,0.5416,0.7359,0.8265,0.9125,0.9399,0.0,0.0,0.0,0.0,0.0,0.0,1.3052,1.3662,1.4475,1.5504,1.609,1.6768,1.7539,1.7656,1.8018,1.8562,1.8428,1.8437,1.8553,1.7577,1.6945,1.6498,1.4807,1.3818,1.3264,1.1743,1.0929,1.0621,1.0107,0.986,0.9806,0.988,0.986,0.9833,1.0127,1.018,1.006,0.9693,0.9472,0.9218,0.8439,0.0,0.0,0.0,0.0,0.9376,0.9223,0.9236,0.9259,0.8891,0.8804,0.8804,0.8804,0.8804,0.8717,0.0,0.8437,0.8297,0.7689,0.0,0.0,0.6685,0.7031,0.7216,0.6967,0.7672,0.809,0.7895,0.7742,0.7516,0.7116,0.7506,0.76,0.7122,0.783,0.7905,0.705,0.7294,0.7057,0.6169,0.0,0.0,0.0,0.0,0.0,0.0,0.0,0.0,0.0,0.0,0.0,0.0,0.0,0.0,0.0,0.0,0.0,0.0,0.0,0.0,0.0,0.0,0.0,0.0,0.0,0.0,0.0,0.0,0.0,0.876,1.004,0.0,0.0,0.0,0.0,1.1981,1.358,1.4797,1.5206,1.5683,1.6191,1.6617,1.71,1.7529,1.7978,1.8379,1.8523,1.8643,1.9033,1.9014,1.8562,1.8543,1.7792,1.6567,1.5579,1.4585,1.3526,1.1992,1.1236,1.0942,1.0698,1.0341,1.0127,1.0414,1.0341,1.0134,1.0434,1.0354,1.016,1.0414,1.012,0.9599,0.9216,0.913,0.0,0.0,0.9633,0.9947,0.9329,0.9452,0.9512,0.8945,0.8804,0.8804,0.8804,0.8804,0.8717,0.0,0.8597,0.8597,0.8009,0.0,0.818,0.7882,0.7862,0.7875,0.7862,0.7675,0.7622,0.7855,0.737,0.7258,0.7781,0.7662,0.7615,0.7814,0.7895,0.7596,0.6834,0.7145,0.6912,0.6029,0.5965,0.0,0.0,0.0,0.0,0.0,0.0,0.0,0.0,0.0,0.0,0.0,0.0,0.0,0.0,0.0,0.0,0.0,0.0,0.0,0.0,0.0,0.0,0.0,0.0,0.0,0.0,0.0,0.0,1.0416,1.1099,0.0,1.0448,1.1294,1.2187,1.302,1.4114,1.5303,1.6641,1.709,1.7393,1.7549,1.7969,1.8262,1.8408,1.8564,1.8916,1.9453,1.9346,1.9346,1.9443,1.8887,1.8334,1.7811,1.6632,1.5877,1.5396,1.3469,1.2074,1.1243,1.0955,1.0661,1.0414,1.0584,1.0494,1.0414,1.0584,1.0488,1.0388,1.0301,1.0007,0.9666,0.9559,0.9653,0.98,0.98,0.9953,1.0027,0.9633,0.9459,0.9299,0.8905,0.8804,0.8804,0.8804,0.8804,0.8778,0.8671,0.8738,0.8677,0.8283,0.8303,0.8277,0.7928,0.7882,0.7856,0.7662,0.758,0.7435,0.7355,0.7111,0.7065,0.7284,0.7248,0.7228,0.7297,0.7528,0.7531,0.7243,0.7529,0.754,0.7248,0.69,0.6537,0.0,0.0,0.0,0.0,0.0,0.0,0.0,0.0,0.0,0.0,0.0,0.0,0.0,0.0,0.0,0.0,0.0,0.0,0.0,0.0,0.0,0.0,0.0,0.0,0.0,0.9635,1.1077,1.1507,1.2017,1.2051,1.1356,1.2016,1.278,1.3553,1.4681,1.5834,1.7073,1.7716,1.8076,1.8213,1.8496,1.8711,1.8857,1.8994,1.9355,1.9912,1.9785,1.9785,1.9893,1.918,1.8779,1.8543,1.7186,1.6576,1.6471,1.4277,1.2822,1.1866,1.1235,1.0815,1.0631,1.0668,1.0705,1.0624,1.0624,1.0624,1.0591,1.0327,1.0134,0.998,0.998,1.0114,1.0267,1.0267,1.0194,1.0047,0.976,0.9459,0.911,0.8878,0.8804,0.8804,0.8804,0.8804,0.8804,0.8804,0.8804,0.8744,0.8557,0.8517,0.8383,0.7941,0.7882,0.7782,0.7368,0.7315,0.7241,0.7041,0.6979,0.6979,0.6979,0.6979,0.6979,0.6979,0.7208,0.7315,0.7315,0.7609,0.7776,0.7776,0.7436,0.7015,0.6606,0.0,0.0,0.0,0.0,0.0,0.0,0.0,0.0,0.0,0.0,0.0,0.0,0.0,0.0,0.0,0.0,0.0,0.0,0.0,0.0,0.0,0.0,0.0,0.9722,1.1108,1.1911,1.1924,1.2692,1.2879,1.2011,1.3307,1.4052,1.3725,1.5471,1.6603,1.6603,1.7489,1.8183,1.8643,1.8601,1.8877,1.9307,1.9707,1.9922,1.9941,2.0361,2.0342,1.9922,1.9482,1.9053,1.8562,1.7246,1.6636,1.6489,1.4522,1.3434,1.2826,1.1528,1.0835,1.0672,1.0902,1.0822,1.0631,1.0624,1.0624,1.0624,1.0624,1.0624,1.0624,1.0624,1.0624,1.0624,1.0624,1.0347,1.0047,0.976,0.9459,0.911,0.8878,0.8804,0.8804,0.8804,0.8804,0.8804,0.8804,0.8804,0.8804,0.8804,0.8798,0.8604,0.7995,0.7888,0.0,0.7078,0.7034,0.6979,0.6979,0.6979,0.6979,0.6979,0.6979,0.6979,0.6979,0.6979,0.6979,0.6979,0.7301,0.75,0.7513,0.7506,0.7217,0.6607,0.0,0.0,0.0,0.0,0.0,0.0,0.0,0.0,0.0,0.0,0.0,0.0,0.0,0.0,0.0,0.0,0.0,0.0,0.0,0.0,0.0,0.7528,0.9439,1.0407,1.1874,1.2919,1.3126,1.3373,1.3427,1.318,1.3342,1.3733,1.431,1.482,1.5798,1.7304,1.7944,1.8471,1.9111,1.9404,1.9619,1.9746,1.9853,2.0078,2.0391,2.0508,2.0498,2.0361,1.9619,1.9219,1.9062,1.8033,1.7647,1.7501,1.5587,1.4541,1.4054,1.2338,1.1316,1.0909,1.1196,1.1122,1.0842,1.0698,1.0624,1.0624,1.0624,1.0624,1.0624,1.0624,1.0624,1.0624,1.0624,1.0347,1.0047,0.976,0.9459,0.911,0.8878,0.8804,0.8804,0.8804,0.8804,0.8804,0.8804,0.8804,0.8804,0.8804,0.8637,0.851,0.8557,0.8009,0.7615,0.7629,0.7251,0.6979,0.6979,0.6979,0.6979,0.6979,0.6979,0.6979,0.6979,0.6979,0.6979,0.6979,0.7101,0.7241,0.7506,0.7255,0.7061,0.0,0.0,0.0,0.0,0.0,0.0,0.0,0.0,0.0,0.0,0.0,0.0,0.0,0.0,0.0,0.0,0.0,0.0,0.0,0.0,0.0,0.0,0.9394,1.0906,1.1815,1.2739,1.35,1.3794,1.3828,1.3828,1.3828,1.3561,1.362,1.4158,1.4416,1.5104,1.6329,1.7453,1.8318,1.8863,1.9551,2.0,2.0185,2.0185,2.0312,2.0566,2.0566,2.0566,2.0537,1.9678,1.9287,1.9238,1.8379,1.8008,1.7862,1.6367,1.5358,0.0,0.0,0.0,0.0,0.0,1.1209,1.1116,1.0701,1.0624,1.0624,1.0624,1.0624,1.0624,1.0624,1.0624,1.0624,1.0624,1.0347,1.0047,0.976,0.9459,0.911,0.8878,0.8804,0.8804,0.8804,0.8804,0.8804,0.8804,0.8804,0.0,0.8804,0.8664,0.853,0.845,0.7996,0.7635,0.7516,0.7198,0.6979,0.6979,0.6979,0.6979,0.6979,0.6979,0.0,0.0,0.0,0.6979,0.6979,0.6979,0.0,0.0,0.0,0.0,0.0,0.0,0.0,0.0,0.8071,0.8218,0.0,0.0,0.0,0.0,0.0,0.0,0.0,0.0,0.0,0.0,0.0,0.0,0.0,0.0,0.0,0.0,1.1118,1.2444,1.3484,1.3694,1.3794,1.4055,1.4088,1.4088,1.4088,1.3848,1.3694,1.3694,1.4228,1.4602,1.4758,1.6453,0.0,0.0,0.0,2.009,2.0557,2.0566,2.0566,2.0566,2.0518,2.0498,2.0469,1.9609,1.9219,1.917,1.8359,1.8008,1.794,1.6991,1.5869,1.4599,1.2643,1.171,1.1443,1.1149,1.1182,1.1296,1.0755,0.0,0.0,1.0624,1.0624,1.0624,1.0624,1.0624,1.0624,1.0624,1.0374,1.0094,0.9766,0.9486,0.915,0.8884,0.8804,0.8804,0.8804,0.8804,0.8804,0.8804,0.8804,0.8804,0.8804,0.8778,0.8584,0.8056,0.7923,0.7682,0.7141,0.7041,0.6979,0.6979,0.6979,0.0,0.6979,0.6979,0.6979,0.6979,0.6979,0.6979,0.6979,0.6979,0.6979,0.6979,0.6979,0.6979,0.7021,0.753,0.7829,0.7919,0.8198,0.8411,0.0,0.0,0.0,0.0,0.0,0.0,0.0,0.0,0.0,0.0,0.0,0.0,0.0,0.0,0.0,1.1206,1.2462,1.3408,1.3961,1.4001,1.4021,1.4082,1.4088,1.4088,1.4088,1.4035,1.4001,1.4001,1.4108,1.4552,1.5427,1.5828,1.6911,1.884,1.9085,1.9593,2.0566,2.0566,2.0566,2.0634,2.0215,0.0,2.001,1.915,1.876,1.873,1.8223,1.8008,1.794,1.6991,1.6027,1.489,1.2728,1.183,1.175,1.145,1.1229,1.1022,1.0681,1.0624,1.0624,1.0624,1.0624,1.0624,1.0624,1.0624,0.0,1.0624,1.0521,1.0354,0.982,0.9639,0.9466,0.8931,0.8804,0.8804,0.8804,0.8804,0.8804,0.8804,0.8804,0.8804,0.8804,0.8611,0.8424,0.8303,0.7869,0.756,0.7439,0.7168,0.6979,0.6979,0.6979,0.6979,0.6979,0.6979,0.6979,0.6979,0.6979,0.6979,0.6979,0.6979,0.6979,0.6979,0.6979,0.6979,0.6979,0.7105,0.7405,0.7919,0.914,0.952,0.0,0.0,0.0,0.0,0.0,0.0,0.0,0.0,0.0,0.0,0.0,0.7371,0.9312,0.0,1.1769,1.258,1.3333,1.3915,1.4068,1.4088,1.4088,1.4088,1.4088,1.4088,1.4088,1.4088,1.4088,1.4088,1.4088,1.4328,1.4894,1.5379,1.6429,1.8069,1.8718,1.952,2.0566,2.0566,2.0566,2.0557,2.0117,1.9912,1.9883,1.9023,1.8562,1.8613,1.8193,1.8008,1.794,1.6991,1.6349,1.5756,1.3925,1.2972,1.253,1.1668,1.1243,1.0949,1.0661,1.0624,1.0624,1.0624,1.0624,1.0681,1.1108,1.1226,1.1226,1.1226,1.1226,1.0967,0.9951,0.9686,0.9532,0.8945,0.8804,0.8804,0.8804,0.8804,0.8804,0.8804,0.8804,0.8804,0.8804,0.8564,0.8323,0.8176,0.7762,0.7453,0.7261,0.7114,0.6979,0.6979,0.6979,0.6979,0.6979,0.6979,0.6979,0.6979,0.6979,0.6979,0.6979,0.6979,0.6979,0.6979,0.6979,0.6979,0.6979,0.6979,0.7321,0.7927,0.9358,1.0048,0.0,0.0,0.0,0.0,0.0,0.0,0.0,0.0424,0.2157,0.5693,0.7948,0.9791,1.1581,1.2647,1.3394,1.3681,1.3928,1.4088,1.4088,1.4088,1.4088,1.4088,1.4088,1.4088,1.4088,1.4088,1.4088,1.4088,1.4088,1.4088,1.4088,1.4894,1.5869,1.6927,1.79,1.8868,1.9923,2.0167,2.0323,2.0313,1.9963,1.9795,1.9766,1.8906,1.8446,1.8496,1.8154,1.8008,1.793,1.7133,1.678,1.6738,1.53,1.4372,1.3531,1.2119,1.1283,1.0875,1.0641,1.0624,1.0624,1.0624,1.0681,1.0926,1.1586,1.1888,1.202,1.1826,1.172,1.1419,1.0048,0.9639,0.9466,0.8931,0.8804,0.8804,0.8804,0.8804,0.8804,0.8804,0.8804,0.8804,0.8804,0.8517,0.821,0.7922,0.7669,0.7361,0.7061,0.6979,0.6979,0.6979,0.6979,0.6979,0.6979,0.6979,0.6979,0.6979,0.6979,0.6979,0.6979,0.6979,0.6979,0.6979,0.6979,0.6979,0.6979,0.6979,0.7321,0.7934,0.9197,1.0157,0.6085,0.8114,0.7993,0.2861,-0.0125,-0.1981,0.0,-0.1818,0.0482,0.5526,0.8089,1.0258,1.2885,1.3486,1.3694,1.3988,1.4068,1.4088,1.4088,1.4088,1.4088,1.4088,1.4088,1.4088,1.4088,1.4088,1.4088,1.4088,1.4088,1.4088,1.4088,1.425,1.4734,1.5869,1.6026,1.6593,1.7666,1.863,1.9195,1.9195,1.9287,1.9355,1.9326,1.8467,1.8076,1.8076,1.8037,1.8008,1.7978,1.7531,1.7532,1.7677,1.6269,1.5557,1.5006,1.2879,1.1482,1.0665,1.0631,1.0624,1.0624,1.0624,1.1108,1.171,1.1764,1.2328,1.2704,1.202,1.1616,1.1071,0.9993,0.9486,0.915,0.8884,0.8804,0.8804,0.8804,0.8804,0.8804,0.8804,0.8804,0.8804,0.8804,0.835,0.7922,0.7888,0.7669,0.7361,0.7061,0.6979,0.6979,0.6979,0.6979,0.6979,0.6979,0.6979,0.6979,0.6979,0.6979,0.6979,0.6979,0.6979,0.6979,0.6979,0.6979,0.6979,0.6979,0.6979,0.7321,0.7934,0.867,0.9657,0.689,0.7731,0.5936,0.1509,-0.1525,-0.3434,-0.3659,-0.2001,0.116,0.6617,0.9394,1.1447,1.3513,1.3901,1.3995,1.4289,1.4342,1.4342,1.4342,1.4342,1.4275,1.4108,1.4088,1.4088,1.4088,1.4088,1.4088,1.4088,1.4088,1.4088,1.4088,1.4088,1.4573,1.5703,1.5696,1.6191,1.7253,1.839,1.9036,1.9027,1.8618,1.8461,1.8433,1.7017,1.6655,1.7217,1.7794,1.8008,1.7998,1.7822,1.7852,1.7872,1.6778,1.6002,1.5294,1.332,1.2034,1.1226,1.0744,1.0926,1.1288,1.1288,1.1841,1.2573,1.3053,1.3416,1.3502,1.2514,1.2166,1.1635,0.9881,0.9332,0.911,0.8878,0.8804,0.8804,0.8804,0.8804,0.8804,0.8804,0.8804,0.8804,0.8804,0.8323,0.7882,0.7882,0.7792,0.7688,0.7552,0.7814,0.7972,0.7972,0.769,0.753,0.753,0.7189,0.6979,0.6979,0.6979,0.6979,0.6979,0.6979,0.6979,0.6979,0.6979,0.6979,0.6979,0.6979,0.7321,0.7927,0.8771,0.972,0.6898,0.6637,0.3883,-0.0253,-0.3305,-0.5264,-0.5126,-0.2761,0.0976,0.6976,0.9832,1.1822,1.3723,1.4088,1.4182,1.4476,1.4522,1.4549,1.4629,1.4569,1.4442,1.4229,1.4135,1.4088,1.4088,1.4088,1.4088,1.4088,1.4088,1.4088,1.4088,1.4088,1.4496,1.5213,1.5296,1.5628,1.6445,1.7496,1.823,1.8541,1.8186,1.7959,1.7832,1.6007,1.572,1.6636,1.7285,1.7794,1.7998,1.7881,1.7842,1.7764,1.7021,1.6252,1.5487,1.4007,1.2908,1.2081,1.1483,1.1663,1.2143,1.2143,1.2696,1.3425,1.4025,1.4141,1.387,1.2898,1.2447,1.1882,1.0,0.9446,0.9322,0.9109,0.8956,0.8804,0.8804,0.8804,0.8804,0.8804,0.8804,0.8784,0.8704,0.8362,0.8085,0.8003,0.8186,0.8234,0.7953,0.8357,0.8716,0.8716,0.8357,0.8118,0.8118,0.7572,0.7238,0.7238,0.7105,0.6979,0.6979,0.6979,0.6979,0.6979,0.6979,0.6979,0.6979,0.6979,0.7238,0.767,0.8792,0.9692,0.5397,0.4789,0.2332,-0.2471,-0.5655,-0.7612,-0.7488,-0.5147,-0.0998,0.5684,0.8756,1.1083,1.3633,1.4088,1.4182,1.4476,1.4522,1.4623,1.491,1.4703,1.4516,1.4509,1.4255,1.4088,1.4088,1.4088,1.4088,1.4088,1.4088,1.4088,1.4088,1.4088,1.4088,1.4173,1.4173,1.4166,1.4166,1.5296,1.6355,1.7334,1.7987,1.8145,1.7832,1.6007,1.572,1.6636,1.6636,1.7139,1.7978,1.7568,1.7402,1.7363,1.6914,1.6465,1.5953,1.5136,1.4013,1.2948,1.2948,1.2948,1.2948,1.2948,1.3485,1.4154,1.4204,1.401,1.3645,1.283,1.2064,1.1338,1.0477,1.0022,0.9777,0.9762,0.9256,0.8804,0.8804,0.8804,0.8804,0.8804,0.8804,0.8717,0.8437,0.8553,0.8599,0.8335,0.8956,0.9079,0.8036,0.8357,0.8716,0.8716,0.8675,0.8675,0.8675,0.8201,0.787,0.787,0.7321,0.6979,0.6979,0.6979,0.6979,0.6979,0.6979,0.6979,0.6979,0.6979,0.7021,0.707,0.8606,0.9298,0.3967,0.3758,0.1592,-0.2484,-0.5165,-0.6878,-0.7459,-0.4715,-0.0308,0.5504,0.8405,1.063,1.3017,1.3661,1.3955,1.4442,1.4689,1.4917,1.5211,1.5164,1.4957,1.4569,1.4436,1.4302,1.4108,1.4088,1.4088,1.4088,1.4088,1.4088,1.4088,1.4088,1.4088,1.4088,1.4088,1.4088,1.4088,1.5137,1.5861,1.6265,1.6325,1.5748,1.4802,1.4643,1.5081,1.5927,1.6395,1.7139,1.7998,1.7852,1.7637,1.7344,1.6904,1.6455,1.6025,1.5434,1.4928,1.4451,1.3364,1.3373,1.3786,1.3786,1.4332,1.4874,1.4392,1.4001,1.3573,1.2442,1.1847,1.1361,1.0809,1.0553,1.0364,0.9917,0.9614,0.9361,0.891,0.8804,0.8804,0.8804,0.8804,0.8778,0.8677,0.8679,0.8784,0.9073,0.9318,0.9478,0.9478,0.9646,0.9765,0.9765,0.9439,0.9239,0.9239,0.8398,0.7919,0.7919,0.7321,0.6979,0.6979,0.6979,0.6979,0.6979,0.6979,0.6979,0.6979,0.6979,0.6979,0.7021,0.8294,0.9065,0.229,0.168,-0.05,-0.3272,-0.5644,-0.7339,-0.7551,-0.4417,0.0077,0.5454,0.7939,0.988,1.259,1.2956,1.3101,1.4024,1.4543,1.4943,1.5344,1.5398,1.5257,1.4877,1.4743,1.4609,1.4422,1.4402,1.4315,1.4102,1.4282,1.4309,1.4095,1.4182,1.4195,1.4088,1.4088,1.4088,1.4088,1.4817,1.5296,1.5696,1.5448,1.4735,1.3803,1.3717,1.4164,1.4911,1.5396,1.6079,1.701,1.7364,1.7254,1.6845,1.6767,1.6455,1.6066,1.5566,1.541,1.5225,1.4213,1.4213,1.4628,1.4628,1.4991,1.5294,1.4815,1.4133,1.3356,1.2581,1.1987,1.1533,1.1234,1.1166,1.1065,1.0618,1.0312,1.0064,0.9614,0.951,0.951,0.951,0.9309,0.9089,0.8873,0.8743,0.8952,0.967,0.9804,0.9922,1.0244,1.0283,1.0283,1.0283,1.0,0.9804,0.9804,0.8958,0.8398,0.8193,0.7655,0.7238,0.7021,0.6979,0.6979,0.6979,0.6979,0.6979,0.6979,0.6979,0.6979,0.7021,0.8177,0.884,0.0206,-0.1268,-0.3804,-0.4734,-0.7155,-0.8954,-0.778,-0.4344,0.0077,0.5364,0.7289,0.8951,1.2081,1.2018,1.1992,1.3378,1.4148,1.475,1.5337,1.5418,1.5418,1.5398,1.5157,1.4983,1.4963,1.4977,1.475,1.4175,1.4649,1.4716,1.4142,1.4369,1.4389,1.4095,1.4088,1.4088,1.4088,1.4088,1.4566,1.5613,1.539,1.5068,1.4654,1.3432,1.3126,1.3695,1.368,1.4243,1.5234,1.614,1.6255,1.586,1.6381,1.635,1.5885,1.5478,1.5313,1.5352,1.5352,1.5352,1.541,1.541,1.541,1.541,1.5352,1.4289,1.3086,1.3086,1.2464,1.1801,1.1873,1.1864,1.1864,1.1814,1.1316,1.0864,1.0813,1.0813,1.0813,1.0813,1.0261,0.9604,0.9041,0.8842,0.9082,1.0127,1.0283,1.0283,1.0283,1.0283,1.0283,1.0283,1.0283,1.0283,1.0283,0.9804,0.9279,0.8716,0.8193,0.7621,0.7021,0.6979,0.6979,0.6979,0.6979,0.6979,0.6979,0.6979,0.6979,0.7021,0.8177,0.8716,-0.1963,-0.3031,-0.4484,-0.5631,-0.753,-0.8764,-0.6984,-0.3377,0.0615,0.4187,0.6364,0.8273,1.042,1.1174,1.1992,1.3378,1.4322,1.5057,1.5638,1.5718,1.5638,1.5424,1.5331,1.5204,1.4983,1.5157,1.5137,1.477,1.4877,1.4803,1.4429,1.4482,1.4389,1.4095,1.4088,1.4088,1.4088,1.4088,1.425,1.4489,1.4413,1.4221,1.3911,1.3378,1.3453,1.403,1.3777,1.4243,1.5234,1.5446,1.5297,1.4874,1.4993,1.4689,1.4096,1.393,1.4153,1.451,1.451,1.4874,1.541,1.541,1.541,1.5294,1.4688,1.3835,1.3086,1.2977,1.2393,1.1931,1.2461,1.2608,1.2501,1.1922,1.1665,1.1416,1.0914,1.0813,1.0813,1.0813,1.0261,0.9706,0.9408,0.9321,0.9546,1.0214,1.0283,1.0283,1.0283,1.0283,1.0283,1.0283,1.0283,1.0283,1.0283,0.9804,0.9279,0.8716,0.8193,0.7621,0.7021,0.6979,0.6979,0.6979,0.6979,0.6979,0.6979,0.6979,0.6979,0.7021,0.8177,0.8716,-0.3707,-0.5089,-0.6607,-0.6817,-0.836,-0.925,-0.6746,-0.303,0.0754,0.3713,0.5581,0.7174,0.8858,0.9888,1.0942,1.2177,1.3767,1.493,1.5384,1.5665,1.5765,1.5605,1.5585,1.5524,1.5357,1.5491,1.5518,1.5357,1.5344,1.5104,1.4549,1.4643,1.4522,1.4102,1.4088,1.4088,1.4088,1.4088,1.4088,1.4088,1.4088,1.3928,1.3552,1.3347,1.3345,1.3554,1.3233,1.3375,1.3947,1.4378,1.4411,1.4143,1.4409,1.4236,1.3844,1.3525,1.3593,1.3891,1.4148,1.451,1.4932,1.5294,1.541,1.5294,1.4874,1.4176,1.353,1.3476,1.288,1.2393,1.2774,1.2881,1.2774,1.2393,1.2286,1.2197,1.1792,1.1742,1.1633,1.1316,1.0589,1.0067,0.9977,0.9608,0.9536,1.0214,1.0283,1.0283,1.0283,1.0283,1.0283,1.0283,1.0283,1.0283,1.0283,1.0,0.9637,0.9079,0.8756,0.8226,0.7447,0.7405,0.728,0.7021,0.6979,0.6979,0.6979,0.6979,0.6979,0.7021,0.8177,0.8716,-0.5422,-0.7235,-0.9145,-0.8307,-0.9515,-1.0018,-0.6814,-0.3025,0.0585,0.3531,0.4884,0.6045,0.7641,0.8643,0.9625,1.0858,1.2933,1.4549,1.4963,1.5451,1.5785,1.5825,1.5832,1.5832,1.5832,1.5832,1.5832,1.5832,1.5832,1.5478,1.4683,1.4843,1.4696,1.4108,1.4088,1.4088,1.4088,1.4088,1.4088,1.4088,1.4088,1.3928,1.3552,1.3347,1.3039,1.2808,1.2432,1.2305,1.2372,1.3164,1.3528,1.3571,1.405,1.4146,1.3994,1.3387,1.3172,1.3296,1.3839,1.4085,1.4323,1.5108,1.541,1.541,1.541,1.4814,1.4077,1.4077,1.3525,1.2881,1.2881,1.2881,1.2881,1.2881,1.2881,1.2881,1.2881,1.2881,1.2666,1.1922,1.1155,1.0608,1.0597,0.9882,0.9529,1.0195,1.0283,1.0283,1.0283,1.0283,1.0283,1.0283,1.0283,1.0283,1.0283,1.0283,1.0079,0.9518,0.9518,0.9039,0.8036,0.7995,0.7746,0.7154,0.7105,0.7063,0.6979,0.6979,0.6979,0.7021,0.8177,0.8716,-0.8053,-0.9414,-1.0313,-1.0289,-1.1083,-1.0725,-0.62,-0.2728,0.0425,0.3171,0.449,0.5698,0.7447,0.8249,0.9567,1.2052,1.3187,1.4148,1.5177,1.5404,1.5558,1.5798,1.5832,1.5832,1.5832,1.5832,1.5832,1.5832,1.5832,1.5658,1.5264,1.507,1.4696,1.4108,1.4088,1.4088,1.4088,1.4088,1.4088,1.4088,1.4088,1.3928,1.3552,1.3347,1.3039,1.2808,1.2432,1.2305,1.2298,1.2445,1.2519,1.2512,1.2677,1.2345,1.1888,1.1784,1.1876,1.222,1.2964,1.3666,1.4323,1.5108,1.541,1.541,1.541,1.4814,1.4077,1.4077,1.3525,1.2881,1.2881,1.2881,1.2881,1.2881,1.2881,1.2881,1.2881,1.2881,1.2666,1.1922,1.1661,1.1345,1.0687,1.0463,1.0351,1.0312,1.0283,1.0283,1.0283,1.0283,1.0283,1.0283,1.0283,1.0283,1.0283,1.0283,1.0079,0.9518,0.9518,0.9199,0.8602,0.8561,0.8316,0.7746,0.7746,0.7489,0.6979,0.6979,0.6979,0.7021,0.8177,0.8716,-0.9745,-1.1058,-1.2038,-1.163,-1.1386,-1.0337,-0.6479,-0.2561,0.0743,0.2494,0.408,0.5428,0.6402,0.7338,0.8713,1.0972,1.2094,1.3258,1.4701,1.507,1.5337,1.5772,1.5832,1.5832,1.5832,1.5832,1.5832,1.5832,1.5691,1.5478,1.519,1.475,1.4382,1.4095,1.4088,1.4088,1.4088,1.4088,1.4088,1.4088,1.4088,1.3928,1.3552,1.3347,1.3039,1.2808,1.2432,1.2305,1.2305,1.2305,1.2305,1.2305,1.2305,1.2037,1.1637,1.1483,1.1409,1.1574,1.2637,1.3243,1.3786,1.4991,1.541,1.541,1.541,1.4814,1.4077,1.4077,1.3525,1.2881,1.2881,1.2881,1.2881,1.2881,1.2881,1.2881,1.2881,1.2705,1.2444,1.2072,1.1553,1.1076,1.0801,1.0474,1.0231,1.0293,1.0283,1.0283,1.0283,1.0283,1.0283,1.0283,1.0283,1.0283,1.0283,1.0283,1.0196,0.9922,0.9922,0.9677,0.9159,0.9119,0.8878,0.8316,0.8036,0.7746,0.7489,0.7147,0.6979,0.7021,0.7897,0.8439,-1.1113,-1.2566,-1.3633,-1.251,-1.1403,-0.9701,-0.6395,-0.227,0.1159,0.2245,0.3797,0.5196,0.5784,0.6634,0.7884,1.0,1.1034,1.2283,1.4111,1.4683,1.5084,1.5665,1.5792,1.5832,1.5832,1.5832,1.5805,1.5745,1.5411,1.511,1.4883,1.4429,1.4155,1.4088,1.4088,1.4088,1.4088,1.4088,1.4088,1.4088,1.4088,1.3928,1.3552,1.3347,1.3039,1.2808,1.2432,1.2305,1.2305,1.2305,1.2305,1.2305,1.2305,1.2084,1.175,1.151,1.1202,1.1122,1.2491,1.3009,1.3252,1.4874,1.541,1.541,1.541,1.4883,1.4248,1.4107,1.3594,1.2998,1.29,1.2881,1.2881,1.2881,1.2881,1.2881,1.2881,1.2539,1.218,1.218,1.145,1.0841,1.0893,1.0442,1.0178,1.0264,1.0283,1.0283,1.0283,1.0283,1.0283,1.0283,1.0283,1.0283,1.0283,1.0283,1.0283,1.0283,1.0283,1.0118,0.9686,0.9677,0.9399,0.8878,0.8357,0.7995,0.7919,0.728,0.6979,0.7021,0.7614,0.8118,-1.2558,-1.4026,-1.4498,-1.2649,-1.1403,-0.943,-0.4764,-0.1428,0.1187,0.2853,0.394,0.5099,0.6998,0.6796,0.7487,1.1146,1.1175,1.1501,1.3838,1.4376,1.4776,1.5364,1.5671,1.5832,1.5832,1.5832,1.5718,1.5458,1.4917,1.4589,1.4563,1.4509,1.4355,1.4095,1.4088,1.4088,1.4088,1.4088,1.4088,1.4088,1.4088,1.3928,1.3552,1.3347,1.3039,1.2808,1.2432,1.2305,1.2305,1.2305,1.2305,1.2305,1.2305,1.1957,1.1463,1.1436,1.1076,1.0841,1.2466,1.3009,1.3252,1.4874,1.541,1.541,1.541,1.5088,1.4648,1.4248,1.3799,1.3359,1.2978,1.2881,1.2881,1.2881,1.2881,1.2881,1.2881,1.2539,1.218,1.218,1.182,1.1373,1.0986,1.0867,1.068,1.0352,1.0283,1.0283,1.0283,1.0283,1.0283,1.0283,1.0283,1.0283,1.0283,1.0283,1.0283,1.0283,1.0283,1.0283,1.0244,1.0244,0.9961,0.9439,0.8918,0.8398,0.7919,0.728,0.6979,0.7021,0.7614,0.7919,-1.206,-1.2935,-1.2991,-1.164,-0.9586,-0.6973,-0.3403,-0.0448,0.1954,0.3058,0.4353,0.5709,0.7014,0.7081,0.7913,1.0907,1.0786,1.1028,1.3213,1.3661,1.4082,1.5023,1.5237,1.5444,1.5798,1.5671,1.5371,1.4903,1.4649,1.4442,1.4269,1.4262,1.4208,1.4088,1.4088,1.4088,1.4088,1.3908,1.3908,1.4082,1.3728,1.35,1.3373,1.3066,1.2766,1.2472,1.2351,1.2305,1.2305,1.2305,1.2305,1.2305,1.2305,1.1944,1.1423,1.1423,1.1379,1.1469,1.2642,1.3312,1.3914,1.505,1.541,1.541,1.541,1.4932,1.4355,1.4126,1.3652,1.3096,1.293,1.2881,1.2881,1.2881,1.2881,1.2812,1.2549,1.2139,1.1748,1.1484,1.1084,1.0773,1.0566,1.0537,1.0478,1.0303,1.0283,1.0283,1.0283,1.0283,1.0283,1.0283,1.0283,1.0283,1.0283,1.0283,1.0283,1.0283,1.0283,1.0283,1.0283,1.0283,1.0205,1.0,0.9439,0.8918,0.8398,0.7821,0.7363,0.7021,0.7238,0.7538,-1.0944,-1.1434,-1.1338,-1.0064,-0.7691,-0.4918,-0.2136,0.0382,0.2414,0.3163,0.4584,0.6006,0.7047,0.732,0.8194,1.0614,1.0417,1.0685,1.2632,1.3019,1.3447,1.4456,1.4649,1.4897,1.5391,1.5518,1.539,1.4964,1.494,1.4794,1.458,1.425,1.4088,1.4088,1.3652,1.3607,1.3955,1.3661,1.3621,1.3821,1.3407,1.316,1.3066,1.2923,1.2585,1.2305,1.2305,1.2305,1.2305,1.2305,1.2305,1.2305,1.2305,1.1944,1.1423,1.1423,1.1563,1.1896,1.2704,1.3554,1.4323,1.5108,1.541,1.541,1.541,1.4902,1.4297,1.4116,1.3525,1.2881,1.2881,1.2881,1.2881,1.2881,1.2881,1.2764,1.2278,1.1875,1.1469,1.0996,1.0566,1.0283,1.0283,1.0283,1.0283,1.0283,1.0283,1.0283,1.0283,1.0283,1.0283,1.0283,1.0283,1.0283,1.0283,1.0283,1.0283,1.0283,1.0283,1.0283,1.0283,1.0283,1.0283,1.0283,0.9755,0.9319,0.8918,0.8234,0.7704,0.7273,0.7063,0.7398,-0.9382,-0.9956,-0.9873,-0.7902,-0.5951,-0.3789,-0.107,0.0959,0.2414,0.3163,0.4498,0.5934,0.7272,0.7413,0.8122,1.0581,1.0255,1.0337,1.2038,1.2565,1.2979,1.3587,1.3915,1.4208,1.4502,1.5447,1.6104,1.6097,1.5799,1.5703,1.5696,1.465,1.4088,1.4088,1.2683,1.2459,1.3566,1.336,1.322,1.322,1.3213,1.3053,1.2829,1.2822,1.2585,1.2305,1.2305,1.2305,1.2305,1.2305,1.2305,1.2305,1.2305,1.1944,1.1423,1.1423,1.1563,1.1896,1.2704,1.3554,1.4323,1.5108,1.541,1.541,1.541,1.5117,1.4687,1.4204,1.3525,1.2881,1.2881,1.2881,1.2881,1.2881,1.2881,1.2764,1.2278,1.1875,1.1469,1.0996,1.0566,1.0283,1.0283,1.0283,1.0283,1.0283,1.0283,1.0283,1.0283,1.0283,1.0283,1.0283,1.0283,1.0283,1.0283,1.0283,1.0283,1.0283,1.0283,1.0283,1.0283,1.0283,1.0283,1.0283,0.9755,0.9478,0.9478,0.8439,0.7912,0.7878,0.728,0.7599,-0.5927,-0.5826,-0.5309,-0.4019,-0.233,-0.0387,0.1644,0.2568,0.3252,0.4113,0.551,0.6825,0.7497,0.8497,0.9692,1.1076,1.1012,1.1177,1.2131,1.2559,1.2966,1.3574,1.4262,1.4643,1.4529,1.5433,1.6007,1.5868,1.6417,1.6437,1.5779,1.4399,1.3734,1.3781,1.327,1.3127,1.3347,1.3046,1.2999,1.3206,1.2786,1.2645,1.2815,1.2532,1.2392,1.2305,1.2305,1.2305,1.2305,1.2305,1.2305,1.2305,1.2305,1.1944,1.1491,1.2037,1.242,1.2757,1.3545,1.4332,1.505,1.5294,1.541,1.541,1.541,1.4912,1.4189,1.3477,1.3086,1.2881,1.2881,1.2881,1.2881,1.2881,1.2881,1.2676,1.1934,1.1704,1.139,1.0625,1.0371,1.0283,1.0283,1.0283,1.0283,1.0283,1.0283,1.0283,1.0283,1.0283,1.0283,1.0283,1.0283,1.0283,1.0283,1.0283,1.0283,1.0283,1.0283,1.0283,1.0283,1.0283,1.0283,1.0283,1.0118,0.9883,0.9478,0.9159,0.8797,0.8439,0.8267,0.8349,-0.3123,-0.2763,-0.2057,-0.1104,0.0192,0.1627,0.3018,0.3356,0.3632,0.4513,0.5719,0.6731,0.7067,0.8166,0.9346,1.0354,1.0456,1.0834,1.1799,1.2231,1.2679,1.3394,1.4062,1.4389,1.4208,1.5606,1.6498,1.6288,1.7334,1.7658,1.7001,1.519,1.4174,1.4024,1.3106,1.273,1.3039,1.2732,1.2679,1.2859,1.2485,1.2398,1.2572,1.2385,1.2519,1.2806,1.2445,1.2519,0.0,1.2445,1.2305,1.2305,1.2305,1.2158,1.1969,1.2511,1.2995,1.3545,1.4034,1.4756,1.541,1.541,1.541,1.5381,1.5225,1.4687,1.3941,1.3311,1.2998,1.2881,1.2881,1.2881,1.2881,1.2881,1.2881,1.2686,1.1963,1.1724,1.14,1.0654,1.0391,1.0283,1.0283,1.0283,1.0283,1.0283,1.0283,1.0283,1.0283,1.0283,1.0283,1.0283,1.0283,1.0283,1.0283,1.0283,1.0283,1.0283,1.0283,1.0283,1.0283,1.0283,1.0283,1.0283,1.0283,1.0118,0.9804,0.9597,0.9239,0.8716,0.8716,0.8797,0.0,-0.0535,0.0123,0.0881,0.1741,0.2561,0.3231,0.3396,0.0,0.451,0.5327,0.5906,0.6267,0.6847,0.7712,0.8942,0.913,0.966,1.12,1.175,1.2291,1.3166,1.3507,1.3674,1.3674,1.5777,1.7261,1.7253,1.8284,1.8912,1.8912,1.6683,1.5159,1.4772,1.2357,1.1621,1.2712,1.2438,1.2305,1.2305,1.2305,1.2305,1.2372,1.2372,1.2879,1.3673,1.2813,1.2879,1.3528,1.2666,1.2305,1.2305,1.2305,1.2437,1.2721,1.2781,1.338,1.4213,1.4273,1.4746,1.541,1.541,1.541,1.5342,1.4951,1.4502,1.4,1.3623,1.3203,1.2881,1.2881,1.2881,1.2881,1.2881,1.2881,1.2764,1.2278,1.1904,1.1518,1.0996,1.0596,1.0312,1.0283,1.0283,1.0283,1.0283,1.0283,1.0283,1.0283,1.0283,1.0283,1.0283,1.0283,1.0283,1.0283,1.0283,1.0283,1.0283,1.0283,1.0283,1.0283,1.0283,1.0283,1.0283,1.0283,1.0283,1.0283,0.9804,0.9319,0.8797,0.8797,0.9079,0.1135,0.0,0.1828,0.2531,0.3325,0.3993,0.0,0.4198,0.432,0.4609,0.5479,0.6331,0.7196,0.7621,0.8451,1.0212,1.017,1.0306,1.1633,1.2418,1.314,1.3801,1.3941,1.3981,1.3981,1.5253,1.6437,1.7261,1.8031,1.8419,1.8419,1.6683,1.5241,1.4358,1.2845,1.21,1.2405,1.2338,1.2305,1.2305,1.2305,1.2666,1.3382,1.3382,1.3455,1.3673,1.3455,1.3098,1.2592,1.2372,1.2305,1.2305,1.2305,1.2437,1.2781,1.3369,1.3882,1.4273,1.4874,1.5235,1.541,1.541,1.541,1.5391,1.5293,1.4736,1.4,1.3623,1.3203,1.2881,1.2881,1.2881,1.2881,1.2881,1.2881,1.2764,1.2278,1.2148,1.1846,1.1055,1.083,1.0654,1.0342,1.0283,1.0283,1.0283,1.0283,1.0283,1.0283,1.0283,1.0283,1.0283,1.0283,1.0283,1.0283,1.0283,1.0283,1.0283,1.0283,1.0283,1.0283,1.0283,1.0283,1.0283,1.0283,1.0283,1.0283,1.0157,1.004,0.9922,0.9922,1.0,0.1914,0.2257,0.2567,0.3651,0.4279,0.4568,0.4568,0.457,0.4563,0.466,0.5159,0.5799,0.6824,0.7216,0.8073,1.0018,1.0159,1.0559,1.2098,1.2812,1.3427,1.4015,1.4088,1.4088,1.4088,1.5054,1.5883,1.6379,1.7133,1.7561,1.7464,1.637,1.5544,1.4969,1.3616,1.2732,1.2305,1.2305,1.2305,1.2305,1.2305,1.2806,1.3673,1.3673,1.4171,1.5013,1.4099,1.3665,1.3593,1.2659,1.2305,1.2285,1.2151,1.2389,1.2766,1.3443,1.3919,1.4332,1.5108,1.541,1.541,1.541,1.541,1.5381,1.5186,1.4658,1.4029,1.3857,1.335,1.2881,1.2881,1.2881,1.2881,1.2881,1.2881,1.2812,1.2578,1.2373,1.2031,1.1338,1.1045,1.0781,1.0352,1.0283,1.0283,1.0283,1.0283,1.0283,1.0283,1.0283,1.0283,1.0283,1.0283,1.0283,1.0283,1.0283,1.0283,1.0283,1.0283,1.0283,1.0283,1.0283,1.0283,1.0283,1.0283,1.0283,1.0283,1.0283,1.0283,1.0283,1.0283,1.0283,0.2138,0.2525,0.3004,0.4317,0.4674,0.4684,0.466,0.4555,0.4556,0.4629,0.4694,0.506,0.6233,0.663,0.7418,0.9461,1.0025,1.0874,1.2643,1.3113,1.3474,1.4021,1.4088,1.4088,1.4088,1.4851,1.5353,1.532,1.6055,1.6475,1.6305,1.5807,1.5536,1.5682,1.439,1.3382,1.2732,1.2586,1.2445,1.2305,1.2592,1.3164,1.3954,1.4099,1.5013,1.6498,1.4736,1.4314,1.4807,1.3018,1.2278,1.2211,1.1964,1.2283,1.2869,1.3276,1.381,1.451,1.5167,1.541,1.541,1.541,1.541,1.5332,1.4912,1.4473,1.4068,1.4053,1.3477,1.2881,1.2881,1.2881,1.2881,1.2881,1.2881,1.2881,1.2881,1.2539,1.21,1.1694,1.1201,1.0781,1.0352,1.0283,1.0283,1.0283,1.0283,1.0283,1.0283,1.0283,1.0283,1.0283,1.0283,1.0283,1.0283,1.0283,1.0283,1.0283,1.0283,1.0283,1.0283,1.0283,1.0283,1.0283,1.0283,1.0283,1.0283,1.0283,1.0283,1.0283,1.0283,1.0283,0.2813,0.3384,0.3735,0.4389,0.4596,0.4657,0.4584,0.4536,0.4525,0.4546,0.4704,0.5468,0.7358,0.7339,0.7928,1.0689,1.1603,1.2276,1.3293,1.3547,1.3701,1.4048,1.4088,1.4088,1.4088,1.402,1.4321,1.5218,1.4849,1.4953,1.5848,1.4718,1.4385,1.5246,1.4266,1.4027,1.4736,1.3882,1.3098,1.2298,1.3947,1.4807,1.5021,1.579,1.6349,1.6567,1.5438,1.4593,1.3818,1.2732,1.2158,1.1931,1.1891,1.2477,1.33,1.3371,1.4171,1.5225,1.5352,1.541,1.541,1.541,1.541,1.5332,1.4912,1.4473,1.4009,1.3701,1.3262,1.2881,1.2881,1.2881,1.2881,1.2881,1.2881,1.2881,1.2881,1.2539,1.21,1.1694,1.1201,1.0781,1.0352,1.0283,1.0283,1.0283,1.0283,1.0283,1.0283,1.0283,1.0283,1.0283,1.0283,1.0283,1.0283,1.0283,1.0283,1.0283,1.0283,1.0283,1.0283,1.0283,1.0283,1.0283,1.0283,1.0283,1.0283,1.0283,1.0283,1.0283,1.0283,1.0283,0.2454,0.3387,0.4231,0.4442,0.4697,0.4911,0.484,0.4765,0.4707,0.4707,0.4819,0.5413,0.6985,0.7617,0.8832,1.1716,1.2505,1.2993,1.3479,1.3559,1.3754,1.4048,1.4088,1.4088,1.4088,1.3814,1.3736,1.412,1.3754,1.3565,1.3888,1.3747,1.3882,1.4386,1.3954,1.4171,1.5163,1.4736,1.4307,1.3875,1.4807,1.5446,1.6,1.6419,1.6853,1.7285,1.6358,1.572,1.5155,1.3665,1.2913,1.2621,1.2388,1.2498,1.2805,1.3563,1.4487,1.541,1.541,1.541,1.541,1.541,1.5254,1.499,1.4561,1.4131,1.3711,1.3281,1.3027,1.2881,1.2881,1.2881,1.2881,1.2881,1.2881,1.2812,1.2578,1.2373,1.2031,1.1338,1.1045,1.0781,1.0352,1.0283,1.0283,1.0283,1.0283,1.0283,1.0283,1.0283,1.0283,1.0283,1.0283,1.0283,1.0283,1.0283,1.0283,1.0283,1.0283,1.0283,1.0283,1.0283,1.0283,1.0283,1.0283,1.0283,1.0283,1.0283,1.0283,1.0283,1.0283,1.0283,0.2208,0.3337,0.4419,0.4508,0.4748,0.5047,0.5114,0.502,0.4938,0.5006,0.505,0.5396,0.6609,0.8102,1.0001,1.2451,1.3113,1.3414,1.3707,1.3748,1.3834,1.4062,1.4088,1.4062,1.3988,1.3714,1.342,1.3126,1.2812,1.2545,1.2311,1.2952,1.3455,1.3673,1.3673,1.4171,1.5163,1.5446,1.5446,1.5234,1.5658,1.6149,1.6636,1.6853,1.7285,1.794,1.7001,1.6513,1.6285,1.4403,1.3464,1.3271,1.2759,1.2641,1.2798,1.4012,1.4864,1.541,1.541,1.541,1.541,1.541,1.5127,1.4697,1.4268,1.3838,1.3418,1.2998,1.2881,1.2881,1.2881,1.2881,1.2881,1.2881,1.2881,1.2764,1.2278,1.2148,1.1846,1.1055,1.083,1.0654,1.0342,1.0283,1.0283,1.0283,1.0283,1.0283,1.0283,1.0283,1.0283,1.0283,1.0283,1.0283,1.0283,1.0283,1.0283,1.0283,1.0283,1.0283,1.0283,1.0283,1.0283,1.0283,1.0283,1.0283,1.0283,1.0283,1.0283,1.0283,1.0283,1.0283,0.2858,0.3609,0.4244,0.4429,0.4596,0.4796,0.5067,0.502,0.4996,0.5274,0.5443,0.5884,0.6852,0.9148,1.1358,1.2909,1.3427,1.3714,1.4015,1.4055,1.4062,1.4082,1.4088,1.3981,1.3701,1.3414,1.3113,1.2882,1.2498,1.2325,1.2305,1.2372,1.2806,1.3673,1.3673,1.4171,1.5163,1.607,1.607,1.5234,1.6941,1.7364,1.6636,1.7501,1.794,1.794,1.7001,1.6351,1.5806,1.4039,1.3323,1.3292,1.2554,1.2963,1.4189,1.5001,1.5352,1.541,1.541,1.541,1.541,1.541,1.5127,1.4697,1.4268,1.3838,1.3418,1.2998,1.2881,1.2881,1.2881,1.2881,1.2881,1.2881,1.2881,1.2764,1.2278,1.1904,1.1518,1.0996,1.0596,1.0312,1.0283,1.0283,1.0283,1.0283,1.0283,1.0283,1.0283,1.0283,1.0283,1.0283,1.0283,1.0283,1.0283,1.0283,1.0283,1.0283,1.0283,1.0283,1.0283,1.0283,1.0283,1.0283,1.0283,1.0283,1.0283,1.0283,1.0283,1.0283,1.0283,1.0283,0.2196,0.323,0.4207,0.4317,0.4582,0.4911,0.5206,0.5233,0.5277,0.5576,0.5681,0.5997,0.7045,0.8305,0.9865,1.1858,1.2288,1.2789,1.3931,1.3928,1.3808,1.3808,1.3975,1.3901,1.342,1.3273,1.308,1.2849,1.2472,1.2305,1.2305,1.2305,1.2445,1.2806,1.2806,1.331,1.4243,1.5226,1.586,1.6079,1.7364,1.7794,1.7501,1.7862,1.8008,1.7998,1.7379,1.7026,1.6722,1.5181,1.4447,1.4275,1.3653,1.409,1.4991,1.5294,1.541,1.541,1.541,1.541,1.541,1.541,1.5127,1.4697,1.4268,1.3838,1.3418,1.2998,1.2881,1.2881,1.2881,1.2881,1.2968,1.3372,1.3152,1.2994,1.3302,1.2433,1.1555,1.1532,1.0845,1.0283,1.0283,1.0283,1.0283,1.0283,1.0283,1.0283,1.0283,1.0283,1.0283,1.0283,1.0283,1.0283,1.0283,1.0283,1.0283,1.0283,1.0283,1.0283,1.0283,1.0283,1.0283,1.0283,1.0283,1.0283,1.0283,1.0283,1.0283,1.0332,1.0547,1.0674,0.1857,0.2961,0.4147,0.4294,0.4548,0.4877,0.527,0.5466,0.5518,0.5813,0.5833,0.6115,0.7223,0.7806,0.8686,1.0617,1.1333,1.2116,1.3163,1.3382,1.3507,1.3507,1.3687,1.3614,1.3113,1.3066,1.2939,1.2632,1.2418,1.2305,1.2305,1.2305,1.2305,1.2305,1.2305,1.2732,1.3673,1.4665,1.5649,1.6636,1.7285,1.7716,1.8008,1.8008,1.7939,1.7793,1.751,1.7227,1.6879,1.5652,1.4971,1.4653,1.4621,1.4932,1.541,1.541,1.541,1.541,1.541,1.541,1.541,1.541,1.5127,1.4697,1.4268,1.3838,1.3418,1.2998,1.2881,1.2881,1.2881,1.3065,1.3286,1.3684,1.3647,1.358,1.4005,1.2947,1.1897,1.1897,1.1042,1.0283,1.0283,1.0283,1.0283,1.0283,1.0283,1.0283,1.0283,1.0283,1.0283,1.0283,1.0283,1.0283,1.0283,1.0283,1.0283,1.0283,1.0283,1.0283,1.0283,1.0283,1.0283,1.0283,1.0283,1.0283,1.0283,1.0283,1.0283,1.0293,1.0713,1.0908,0.1982,0.2966,0.4094,0.4443,0.4522,0.4687,0.5291,0.5481,0.5674,0.5969,0.5911,0.6186,0.7559,0.7772,0.8207,0.9471,1.0767,1.1656,1.1662,1.2552,1.3206,1.3206,1.3206,1.3086,1.2849,1.2822,1.2625,1.2325,1.2305,1.2305,1.2305,1.2305,1.2305,1.2305,1.2305,1.2732,1.3673,1.4665,1.5649,1.6636,1.6636,1.707,1.8008,1.8008,1.7783,1.7383,1.7383,1.6875,1.6064,1.5241,1.4626,1.4264,1.5108,1.541,1.541,1.541,1.541,1.541,1.541,1.541,1.541,1.541,1.5127,1.4697,1.4268,1.3838,1.3418,1.2998,1.2881,1.2881,1.2881,1.3324,1.3815,1.3826,1.4283,1.4575,1.4181,1.3248,1.2393,1.1978,1.1042,1.0283,1.0283,1.0283,1.0283,1.0283,1.0283,1.0283,1.0283,1.0283,1.0283,1.0283,1.0283,1.0283,1.0283,1.0283,1.0283,1.0283,1.0283,1.0283,1.0283,1.0283,1.0283,1.0283,1.0283,1.0283,1.0283,1.0283,1.0283,1.0303,1.0723,1.0918,0.1969,0.3024,0.4174,0.4416,0.4841,0.5205,0.5387,0.5463,0.5545,0.5945,0.6081,0.6194,0.6471,0.6673,0.7126,0.8295,0.8754,0.9605,1.1449,1.1745,1.2098,1.2802,1.308,1.3006,1.2485,1.2625,1.2625,1.2325,1.2305,1.2305,1.2305,1.2305,1.2305,1.2305,1.2305,1.2732,1.3673,1.4665,1.5649,1.6636,1.7285,1.7725,1.8008,1.7285,1.7137,1.7363,1.6439,1.6059,1.6035,1.5484,1.5164,1.505,1.5294,1.541,1.541,1.541,1.541,1.541,1.541,1.541,1.541,1.541,1.5127,1.4697,1.4268,1.3838,1.3418,1.2998,1.2881,1.2881,1.2881,1.3324,1.3909,1.4329,1.4236,1.4286,1.5,1.377,1.2447,1.2351,1.1216,1.0283,1.0283,1.0283,1.0283,1.0283,1.0283,1.0283,1.0283,1.0283,1.0283,1.0283,1.0283,1.0283,1.0283,1.0283,1.0283,1.0283,1.0283,1.0283,1.0283,1.0283,1.0283,1.0283,1.0283,1.0283,1.0283,1.0283,1.0439,1.0732,1.1162,1.1533,0.2144,0.3284,0.4487,0.4752,0.5157,0.5446,0.544,0.5542,0.5722,0.6054,0.6146,0.6159,0.6129,0.6146,0.6416,0.7238,0.7629,0.8471,1.0444,1.0898,1.1417,1.249,1.2739,1.2705,1.2338,1.2465,1.2492,1.2318,1.2305,1.2305,1.2305,1.2305,1.2305,1.2305,1.2305,1.2952,1.4314,1.4879,1.5869,1.7139,1.7184,1.7398,1.7764,1.7186,1.6968,1.709,1.5946,1.5416,1.5352,1.54,1.541,1.541,1.541,1.541,1.541,1.541,1.541,1.541,1.541,1.541,1.5381,1.5215,1.499,1.4678,1.4072,1.3711,1.3418,1.2998,1.2881,1.2881,1.2881,1.3152,1.36,1.419,1.4236,1.4376,1.5096,1.3939,1.27,1.2521,1.144,1.0478,1.0312,1.0283,1.0283,1.0283,1.0283,1.0283,1.0283,1.0665,1.0852,1.0592,1.0966,1.1036,1.0631,1.0764,1.0736,1.0322,1.0467,1.0505,1.0322,1.0283,1.0283,1.0283,1.0283,1.0283,1.0283,1.0283,1.041,1.0674,1.1103,1.1543,0.2313,0.347,0.4657,0.5162,0.5369,0.5443,0.5596,0.5837,0.6064,0.6193,0.6129,0.6095,0.6234,0.6146,0.6098,0.6237,0.7099,0.8008,0.9145,1.0115,1.1087,1.215,1.2378,1.2372,1.2305,1.2378,1.2372,1.2305,1.2305,1.2305,1.2305,1.2305,1.2305,1.2305,1.2372,1.3302,1.5021,1.5234,1.6131,1.7804,1.6633,1.6514,1.7324,1.7259,1.6951,1.6495,1.5712,1.4932,1.4273,1.505,1.541,1.541,1.541,1.541,1.541,1.541,1.5391,1.5361,1.54,1.5391,1.5293,1.4912,1.4756,1.457,1.376,1.3477,1.3369,1.2988,1.2881,1.2881,1.2881,1.2881,1.3065,1.36,1.419,1.4606,1.4606,1.3811,1.2994,1.254,1.16,1.0791,1.041,1.0303,1.0283,1.0283,1.0283,1.0283,1.0283,1.1172,1.1619,1.1061,1.1861,1.2064,1.1164,1.1468,1.1367,1.0505,1.0791,1.0802,1.039,1.0322,1.0283,1.0283,1.0283,1.0283,1.0283,1.0283,1.0322,1.041,1.0791,1.1221,0.1382,0.2471,0.3691,0.405,0.4965,0.5745,0.5898,0.5983,0.6006,0.5918,0.6067,0.622,0.6254,0.6234,0.622,0.6254,0.649,0.7253,0.9069,0.9523,1.0271,1.2077,1.2952,1.3091,1.2372,1.2952,1.3098,1.2378,1.2305,1.2305,1.2305,1.2305,1.2305,1.2305,1.3025,1.36,1.4027,1.5508,1.6345,1.6376,1.6855,1.6992,1.6811,1.6057,1.557,1.529,1.5398,1.4932,1.4273,1.505,1.541,1.541,1.541,1.541,1.541,1.541,1.5205,1.4971,1.5293,1.5195,1.4902,1.4814,1.4551,1.418,1.3662,1.3281,1.2998,1.29,1.2881,1.2881,1.2881,1.2881,1.292,1.3055,1.3552,1.4003,1.4003,1.3538,1.292,1.2363,1.1532,1.0879,1.0791,1.0498,1.0283,1.0283,1.0283,1.0283,1.0283,1.0807,1.1124,1.1029,1.1217,1.1427,1.159,1.1356,1.1244,1.1479,1.1169,1.0943,1.0867,1.0505,1.0283,1.0283,1.0283,1.0283,1.0283,1.0283,1.0635,1.1332,1.142,1.189,0.1181,0.203,0.312,0.3921,0.4993,0.5823,0.5901,0.5922,0.5898,0.5817,0.5986,0.6149,0.6149,0.621,0.6338,0.6338,0.6338,0.7022,0.8998,0.9296,1.0051,1.2077,1.3091,1.3528,1.3025,1.3382,1.3528,1.3025,1.2519,1.2305,1.2305,1.2739,1.2952,1.2952,1.3882,1.4514,1.4759,1.5377,1.5886,1.63,1.6251,1.5939,1.5482,1.5223,1.489,1.4572,1.4721,1.4569,1.4273,1.505,1.541,1.541,1.541,1.541,1.541,1.541,1.5146,1.4814,1.5039,1.4834,1.4443,1.4238,1.4023,1.376,1.334,1.3057,1.2881,1.2881,1.2881,1.2881,1.2881,1.2881,1.2881,1.2881,1.3152,1.3372,1.3372,1.3189,1.2826,1.2312,1.168,1.1152,1.0947,1.0566,1.0283,1.0283,1.0283,1.0352,1.0557,1.1042,1.1383,1.1344,1.1806,1.202,1.1833,1.1945,1.1982,1.1811,1.1542,1.1282,1.1008,1.0534,1.0283,1.0283,1.0283,1.0283,1.0283,1.0478,1.0811,1.125,1.1508,1.1969,0.1026,0.1686,0.2647,0.4025,0.5006,0.5548,0.5694,0.5766,0.5766,0.5766,0.5908,0.6037,0.6064,0.6173,0.6338,0.6338,0.6338,0.7022,0.8998,0.9296,1.0051,1.2077,1.3091,1.3673,1.3673,1.3673,1.3673,1.3673,1.2806,1.2305,1.2305,1.3171,1.3673,1.3673,1.4807,1.547,1.5425,1.5231,1.5482,1.6088,1.5343,1.4781,1.4401,1.4678,1.459,1.4213,1.4332,1.4392,1.4451,1.5118,1.541,1.541,1.541,1.541,1.541,1.541,1.5098,1.4687,1.4756,1.4453,1.3912,1.3623,1.3506,1.3428,1.3008,1.2881,1.2881,1.2881,1.2881,1.2881,1.2881,1.2881,1.2881,1.2881,1.2881,1.2881,1.2881,1.2881,1.2754,1.2314,1.1865,1.1489,1.1084,1.0732,1.0488,1.0439,1.043,1.0518,1.0771,1.1318,1.1671,1.1646,1.2494,1.2749,1.1991,1.2615,1.2756,1.1957,1.1847,1.1579,1.1169,1.0611,1.0283,1.0283,1.0283,1.0283,1.0283,1.0625,1.0879,1.1025,1.1439,1.1846,0.0152,0.0787,0.1864,0.3616,0.4266,0.463,0.5474,0.5616,0.5616,0.5616,0.5837,0.6071,0.6207,0.6247,0.6338,0.6338,0.6338,0.7022,0.8998,0.9296,1.0051,1.2077,1.3091,1.3673,1.3673,1.3673,1.3673,1.3673,1.2806,1.2305,1.2305,1.3171,1.3673,1.3673,1.5438,1.554,1.3677,1.5932,1.5965,1.3865,1.4847,1.5293,1.5235,1.4565,1.4258,1.4273,1.4932,1.5235,1.5235,1.5352,1.541,1.541,1.541,1.541,1.541,1.541,1.4902,1.4277,1.4658,1.4258,1.3584,1.3525,1.3506,1.3428,1.3008,1.2881,1.2881,1.2881,1.2881,1.2881,1.2881,1.2881,1.2881,1.2881,1.2881,1.2881,1.2881,1.2881,1.2754,1.2314,1.1865,1.1587,1.1528,1.1469,1.1351,1.1055,1.0974,1.0859,1.042,1.0872,1.1226,1.1356,1.1752,1.2098,1.2365,1.2508,1.2544,1.2389,1.2029,1.1774,1.17,1.0812,1.0283,1.0283,1.0283,1.0283,1.0283,1.0342,1.0783,1.1518,1.1577,1.2047,0.0,0.0615,0.1488,0.245,0.3372,0.4231,0.4714,0.5176,0.5488,0.5572,0.5694,0.5803,0.5871,0.5949,0.603,0.6118,0.6132,0.6912,0.8978,0.9296,1.0051,1.2077,1.3091,1.3673,1.3673,1.3673,1.3673,1.3673,1.2806,1.2305,1.2305,1.3738,1.4522,1.4522,1.6367,1.6705,1.5204,1.5936,1.5524,1.3847,1.4899,1.5167,1.4746,1.4815,1.4864,1.4874,1.4756,1.4991,1.541,1.541,1.541,1.541,1.541,1.541,1.541,1.541,1.5019,1.4492,1.4434,1.4023,1.3467,1.3232,1.3154,1.3125,1.2939,1.2881,1.2881,1.2881,1.2881,1.2881,1.2881,1.2881,1.2881,1.2881,1.3152,1.342,1.3563,1.32,1.2754,1.2314,1.207,1.1777,1.1279,1.1439,1.1479,1.1064,1.1032,1.1062,1.1006,1.0801,1.0975,1.1885,1.1593,1.1689,1.2505,1.2518,1.2508,1.2508,1.233,1.2174,1.2174,1.1244,1.0687,1.0687,1.0428,1.0283,1.0283,1.0518,1.083,1.1201,1.1709,1.2148,0.0,0.0488,0.1067,0.1454,0.2629,0.3737,0.4092,0.4827,0.5459,0.5508,0.5532,0.5532,0.5532,0.5681,0.5837,0.5952,0.6006,0.6734,0.896,0.9261,1.0051,1.2077,1.3091,1.3673,1.3673,1.3673,1.3673,1.3673,1.3025,1.2666,1.2666,1.4514,1.5587,1.5587,1.7055,1.7348,1.6402,1.5688,1.5131,1.4667,1.5271,1.5214,1.451,1.5118,1.541,1.5352,1.4756,1.4874,1.541,1.541,1.541,1.541,1.541,1.541,1.541,1.541,1.5146,1.4717,1.4287,1.3857,1.3437,1.3018,1.2881,1.2881,1.2881,1.2881,1.2881,1.2881,1.2881,1.2881,1.2881,1.2881,1.2881,1.2881,1.3238,1.3637,1.3956,1.347,1.2827,1.2432,1.2258,1.2005,1.1504,1.168,1.1866,1.1747,1.1624,1.1616,1.1652,1.1317,1.1562,1.2825,1.2023,1.1719,1.2519,1.2549,1.2437,1.2318,1.2437,1.2508,1.2508,1.1689,1.1207,1.1207,1.0725,1.0428,1.0283,1.0596,1.0811,1.0928,1.1699,1.2119,0.0,0.0049,0.026,0.1097,0.2054,0.3003,0.3843,0.4758,0.5428,0.5439,0.5439,0.5439,0.5439,0.5606,0.5803,0.5813,0.5935,0.6693,0.8831,0.9239,1.0051,1.2077,1.3091,1.3673,1.3673,1.3673,1.3673,1.3673,1.3673,1.36,1.36,1.5508,1.6498,1.6498,1.713,1.6852,1.5588,1.5151,1.5321,1.6025,1.6025,1.5811,1.5352,1.5352,1.541,1.541,1.5352,1.5352,1.541,1.541,1.541,1.541,1.541,1.541,1.541,1.541,1.5146,1.4717,1.4287,1.3857,1.3437,1.3018,1.2881,1.2881,1.2881,1.2881,1.2881,1.2881,1.2881,1.2881,1.2881,1.2881,1.2881,1.2881,1.2929,1.3104,1.3684,1.3422,1.3016,1.2908,1.251,1.2353,1.2715,1.2793,1.3072,1.3814,1.3361,1.2605,1.1897,1.2564,1.3418,1.4112,1.3173,1.2557,1.2591,1.2549,1.233,1.1847,1.2246,1.2508,1.2508,1.2029,1.1774,1.1774,1.1244,1.0753,1.0283,1.0303,1.0518,1.0918,1.1377,1.1826,0.0,0.0,0.01,0.0379,0.1131,0.199,0.2869,0.3806,0.4625,0.508,0.5291,0.5428,0.5428,0.5447,0.5552,0.565,0.5789,0.6638,0.8792,0.9229,1.0051,1.2077,1.2592,1.3025,1.3673,1.3673,1.3673,1.3673,1.4314,1.4378,1.3745,1.5508,1.6441,1.6188,1.6968,1.6902,1.5909,1.5428,1.5338,1.5644,1.5644,1.5566,1.541,1.541,1.541,1.541,1.541,1.541,1.541,1.541,1.5254,1.501,1.501,1.501,1.501,1.501,1.4912,1.4717,1.4287,1.3857,1.3437,1.3018,1.2881,1.2881,1.2881,1.2881,1.2881,1.2881,1.2881,1.2881,1.2881,1.32,1.3695,1.4457,1.4926,1.5152,1.5005,1.4222,1.3533,1.3474,1.3022,1.2607,1.248,1.2722,1.297,1.2929,1.3422,1.3384,1.2318,1.2407,1.2805,1.3511,1.2356,1.1786,1.2503,1.2233,1.1993,1.1811,1.2508,1.2943,1.2943,1.2508,1.2246,1.2246,1.1763,1.1244,1.0764,1.0428,1.0361,1.0518,1.0947,1.123,0.0,0.0,0.0,0.0,0.0643,0.1429,0.1997,0.3049,0.4072,0.4598,0.5016,0.5298,0.5418,0.5428,0.5463,0.5498,0.5908,0.6832,0.8739,0.9406,1.033,1.2063,1.2592,1.3025,1.3673,1.3856,1.4047,1.4163,1.4977,1.5113,1.4481,1.5956,1.6615,1.5993,1.6593,1.666,1.6135,1.5771,1.5625,1.5625,1.5625,1.5557,1.541,1.541,1.541,1.541,1.541,1.541,1.541,1.541,1.5244,1.5,1.5,1.4912,1.4785,1.4785,1.4687,1.4502,1.4072,1.374,1.3437,1.3018,1.2881,1.2881,1.2881,1.2881,1.2881,1.2881,1.2881,1.2881,1.2881,1.3324,1.3993,1.4812,1.5599,1.6095,1.5676,1.4949,1.4272,1.3862,1.3457,1.3062,1.2547,1.2757,1.3005,1.2925,1.3444,1.3668,1.326,1.2939,1.2862,1.3156,1.2247,1.1838,1.2256,1.1962,1.1804,1.1785,1.2544,1.306,1.3198,1.2908,1.272,1.272,1.2282,1.1872,1.1505,1.0829,1.0467,1.0293,1.0915,1.1314,0.0,0.0,0.0,0.0,0.0619,0.125,0.1308,0.2567,0.3749,0.3977,0.4538,0.5101,0.5325,0.5422,0.5422,0.5428,0.6217,0.7276,0.8583,0.9669,1.0791,1.2117,1.3098,1.3673,1.3745,1.4213,1.4706,1.5192,1.5634,1.5963,1.5878,1.6854,1.6953,1.6154,1.6115,1.6105,1.6105,1.6105,1.6105,1.6105,1.6105,1.582,1.541,1.541,1.541,1.541,1.541,1.541,1.541,1.541,1.54,1.5391,1.5391,1.5137,1.4766,1.4766,1.4492,1.4009,1.3652,1.3496,1.3418,1.3018,1.2881,1.2881,1.2881,1.2881,1.2881,1.2881,1.2881,1.2881,1.2929,1.3372,1.3815,1.3862,1.4767,1.5632,1.5632,1.5632,1.5264,1.4039,1.3815,1.36,1.3017,1.2959,1.329,1.4052,1.3567,1.347,1.4577,1.4269,1.3709,1.3208,1.3065,1.272,1.1927,1.1752,1.1698,1.1808,1.2246,1.272,1.3198,1.3198,1.3198,1.3198,1.2756,1.2508,1.2508,1.1516,1.0812,1.0371,1.1304,1.2152,0.0,0.0,0.0,0.0,0.0,0.0,0.102,0.1592,0.232,0.3457,0.3966,0.4339,0.5081,0.5196,0.5233,0.5345,0.5688,0.6395,0.7535,0.8739,0.9918,1.1057,1.2063,1.3237,1.4665,1.4931,1.5219,1.5668,1.6531,1.6543,1.5501,1.6132,1.638,1.6135,1.5752,1.5586,1.5586,1.5586,1.5586,1.5586,1.5586,1.5527,1.541,1.541,1.541,1.541,1.541,1.541,1.541,1.541,1.5234,1.4961,1.4961,1.4697,1.4307,1.4307,1.4043,1.3662,1.3545,1.3311,1.3037,1.292,1.2881,1.2881,1.2881,1.2881,1.2881,1.2881,1.2881,1.3017,1.342,1.4014,1.456,1.5005,1.5688,1.6238,1.6238,1.6238,1.5876,1.4698,1.4097,1.36,1.3017,1.2959,1.3082,1.3315,1.2889,1.2739,1.3087,1.2687,1.2265,1.2144,1.1768,1.1414,1.1215,1.1172,1.1383,1.1785,1.2246,1.272,1.3198,1.3198,1.3198,1.3198,1.3082,1.2838,1.2508,1.2283,1.1894,1.1415,1.2048,1.2251,0.0555,0.0466,0.0472,0.0472,0.0,0.0,0.0546,0.0918,0.1587,0.2869,0.3472,0.3988,0.4872,0.5091,0.5162,0.525,0.5396,0.5906,0.7103,0.8588,0.9807,1.0668,1.1694,1.2872,1.4458,1.4749,1.5187,1.5847,1.6646,1.6648,1.5685,1.5773,1.5791,1.5791,1.5537,1.541,1.541,1.541,1.541,1.541,1.541,1.541,1.541,1.541,1.541,1.541,1.541,1.541,1.541,1.541,1.5264,1.5049,1.5049,1.4668,1.4077,1.4077,1.376,1.3242,1.3242,1.3086,1.2881,1.2881,1.2881,1.2881,1.2881,1.2881,1.2881,1.2881,1.2881,1.2968,1.3324,1.4061,1.4789,1.5141,1.5876,1.6522,1.6522,1.6522,1.6194,1.5164,1.4652,1.4107,1.3065,1.2732,1.2686,1.3032,1.2556,1.2233,1.2483,1.2016,1.1591,1.1389,1.1273,1.1035,1.0674,1.0845,1.1103,1.1442,1.1909,1.2437,1.2908,1.3094,1.3198,1.3198,1.3198,1.3194,1.3167,1.2765,1.2505,1.2424,1.2787,1.2968,0.1403,0.1229,0.121,0.121,0.069,0.0,0.0104,0.0565,0.1236,0.2143,0.2926,0.3713,0.4571,0.4897,0.506,0.5081,0.5226,0.5769,0.6921,0.8674,0.999,1.0535,1.152,1.2586,1.36,1.4245,1.4933,1.5829,1.6381,1.6465,1.6016,1.5625,1.541,1.541,1.541,1.541,1.541,1.541,1.541,1.541,1.541,1.541,1.541,1.541,1.541,1.541,1.541,1.541,1.541,1.541,1.541,1.541,1.541,1.4893,1.4077,1.4077,1.3603,1.2881,1.2881,1.2881,1.2881,1.2881,1.2881,1.2881,1.2881,1.2881,1.2881,1.2881,1.2881,1.2929,1.2968,1.3836,1.4709,1.4789,1.5656,1.6522,1.6522,1.6436,1.6194,1.5445,1.5254,1.4766,1.3162,1.2451,1.2313,1.2892,1.2258,1.1861,1.2277,1.1849,1.1358,1.0881,1.1224,1.1145,1.0391,1.0625,1.0875,1.1002,1.1431,1.1957,1.2473,1.2908,1.3163,1.3198,1.3198,1.3509,1.4085,1.3094,1.2878,1.3502,1.3523,1.3953,0.206,0.2002,0.1964,0.1964,0.1453,0.0,0.088,0.0533,0.0437,0.1189,0.1887,0.2583,0.3508,0.4209,0.4633,0.4755,0.4999,0.5346,0.5862,0.7053,0.8222,0.928,1.0438,1.1755,1.352,1.4538,1.528,1.5856,1.6097,1.6006,1.5557,1.5459,1.541,1.541,1.541,1.541,1.541,1.541,1.541,1.541,1.541,1.541,1.541,1.541,1.541,1.541,1.541,1.541,1.541,1.541,1.541,1.541,1.541,1.4893,1.4077,1.4077,1.3603,1.2881,1.2881,1.2881,1.2881,1.2881,1.2881,1.2881,1.2881,1.2881,1.2881,1.2881,1.2881,1.3017,1.3505,1.4154,1.4835,1.532,1.5964,1.6522,1.6522,1.6139,1.5688,1.5355,1.5028,1.4387,1.3113,1.2783,1.243,1.1641,1.1344,1.1257,1.1284,1.087,1.0518,1.0449,1.0518,1.0459,1.0293,1.0352,1.0595,1.0981,1.1094,1.1579,1.2473,1.2579,1.2803,1.3198,1.3198,1.3509,1.4085,1.339,1.3591,1.4599,1.4621,1.4252,0.288,0.2772,0.2799,0.2801,0.2221,0.0,0.0,0.1044,0.0856,0.1862,0.2062,0.2288,0.3208,0.3704,0.3869,0.3651,0.4102,0.4508,0.4708,0.6173,0.7672,0.8917,1.0087,1.1315,1.2865,1.3882,1.4792,1.5521,1.5709,1.5644,1.542,1.541,1.541,1.541,1.541,1.541,1.541,1.541,1.541,1.541,1.541,1.541,1.541,1.541,1.541,1.541,1.541,1.541,1.541,1.541,1.5283,1.5098,1.5098,1.458,1.3818,1.3818,1.3418,1.2881,1.2881,1.2881,1.2881,1.2881,1.2881,1.2881,1.2881,1.2881,1.2881,1.2881,1.2881,1.3065,1.3637,1.4236,1.4835,1.5454,1.6051,1.6522,1.6522,1.6238,1.5776,1.488,1.4201,1.3517,1.2632,1.2324,1.1953,1.1143,1.084,1.0685,1.0651,1.0428,1.0283,1.0283,1.0283,1.0283,1.0283,1.0283,1.039,1.0649,1.1132,1.1616,1.2138,1.2615,1.2943,1.3198,1.3509,1.3527,1.33,1.3264,1.3668,1.4528,1.5062,1.473,0.3761,0.3547,0.36,0.3607,0.2994,0.2385,0.0,0.0,0.0,0.2683,0.2523,0.2417,0.3042,0.322,0.318,0.2705,0.3256,0.3811,0.3956,0.5517,0.7197,0.8502,0.9449,1.0366,1.1509,1.2555,1.37,1.4862,1.5107,1.5167,1.5167,1.5294,1.541,1.541,1.541,1.541,1.541,1.541,1.541,1.541,1.541,1.541,1.541,1.541,1.541,1.541,1.541,1.541,1.541,1.541,1.5166,1.4785,1.4785,1.4268,1.3506,1.3506,1.3242,1.2881,1.2881,1.2881,1.2881,1.2881,1.2881,1.2881,1.2881,1.2881,1.2881,1.2881,1.2881,1.3065,1.3779,1.4236,1.4744,1.5588,1.6051,1.638,1.6466,1.6423,1.592,1.4514,1.361,1.2869,1.2302,1.1699,1.1273,1.0986,1.0566,1.0283,1.0283,1.0283,1.0283,1.0283,1.0283,1.0283,1.0283,1.0283,1.0283,1.0283,1.1067,1.1553,1.1627,1.2461,1.2978,1.3047,1.3552,1.3386,1.2506,1.3042,1.3483,1.3848,1.4703,1.4627,0.4462,0.4395,0.4401,0.4385,0.3822,0.3242,0.3237,0.0,0.2101,0.2293,0.0,0.2833,0.2276,0.0,0.0,0.3028,0.3361,0.3877,0.452,0.4934,0.5664,0.6977,0.7378,0.7974,0.9092,1.0547,1.2094,1.3667,1.4266,1.4451,1.4332,1.4991,1.541,1.541,1.541,1.541,1.541,1.541,1.541,1.541,1.541,1.541,1.541,1.541,1.541,1.541,1.541,1.541,1.541,1.541,1.5166,1.4785,1.4785,1.4268,1.3506,1.3506,1.3242,1.2881,1.2881,1.2881,1.2881,1.2881,1.2881,1.2881,1.2881,1.2881,1.2881,1.2881,1.2881,1.3152,1.4294,1.4236,1.4318,1.6008,1.6051,1.5864,1.638,1.6095,1.5499,1.4789,1.4154,1.3484,1.288,1.1475,1.0576,1.0993,1.0635,1.0283,1.0283,1.0283,1.0283,1.0283,1.0283,1.0283,1.0283,1.0283,1.0283,1.0283,1.04,1.0649,1.1057,1.1653,1.2138,1.2579,1.2639,1.2647,1.2578,1.3068,1.3115,1.2787,1.2883,1.2883,0.5682,0.5719,0.5605,0.5167,0.4831,0.446,0.4006,0.3334,0.292,0.3294,0.0,0.0,0.0,0.0,0.0,0.0,0.3111,0.3588,0.3922,0.4381,0.5207,0.6633,0.6828,0.7325,0.8533,0.9927,1.112,1.1948,1.287,1.3617,1.4195,1.451,1.4932,1.541,1.541,1.541,1.541,1.541,1.541,1.541,1.541,1.541,1.541,1.541,1.541,1.541,1.541,1.541,1.541,1.541,1.5166,1.4785,1.4785,1.4268,1.3477,1.3232,1.3037,1.2881,1.2881,1.2881,1.2881,1.2881,1.2881,1.2881,1.2881,1.2881,1.2881,1.2881,1.2881,1.3113,1.3967,1.4236,1.4606,1.5732,1.6051,1.6194,1.6436,1.6281,1.5832,1.488,1.4525,1.4014,1.3065,1.1992,1.1221,1.0993,1.0586,1.0283,1.0283,1.0283,1.0283,1.0283,1.0283,1.0283,1.0283,1.0283,1.0283,1.0283,1.0544,1.0943,1.1431,1.1892,1.2226,1.2453,1.2739,1.2755,1.2429,1.2685,1.241,1.1631,1.2307,1.2279,0.6753,0.6779,0.6564,0.5839,0.5618,0.5411,0.4499,0.3948,0.3765,0.4167,0.3874,0.0,0.0,0.0,0.3077,0.2667,0.0,0.3511,0.368,0.4181,0.4936,0.5994,0.6154,0.6665,0.7797,0.8874,0.9724,1.0341,1.1451,1.258,1.3511,1.3965,1.4451,1.505,1.5294,1.541,1.541,1.541,1.541,1.541,1.541,1.541,1.541,1.541,1.541,1.541,1.541,1.541,1.541,1.541,1.5234,1.4941,1.4834,1.4326,1.3633,1.3203,1.2978,1.2881,1.2881,1.2881,1.2881,1.2881,1.2881,1.2881,1.2881,1.2881,1.2881,1.2881,1.2881,1.3065,1.3637,1.4014,1.4422,1.5365,1.5832,1.6107,1.6423,1.6522,1.6194,1.5152,1.4789,1.4387,1.3334,1.2454,1.1709,1.1162,1.0625,1.0283,1.0283,1.0283,1.0283,1.0283,1.0428,1.0505,1.0505,1.0621,1.0659,1.0505,1.0687,1.112,1.174,1.1914,1.2059,1.2217,1.2608,1.2485,1.1911,1.2163,1.1788,1.0908,1.1752,1.1655,0.0,0.0,0.6904,0.6155,0.5988,0.5722,0.4709,0.4457,0.446,0.4512,0.4453,0.4274,0.3716,0.3586,0.3602,0.3545,0.3586,0.0,0.0,0.4463,0.4577,0.4742,0.4893,0.5286,0.619,0.6716,0.7586,0.8979,1.0231,1.1201,1.1858,1.3356,1.4204,1.4273,1.4991,1.541,1.541,1.541,1.541,1.541,1.541,1.541,1.541,1.541,1.541,1.541,1.541,1.541,1.541,1.541,1.54,1.5352,1.4941,1.4512,1.4009,1.3643,1.3232,1.2881,1.2881,1.2881,1.2881,1.2881,1.2881,1.2881,1.2881,1.2881,1.2881,1.2881,1.2881,1.3065,1.3637,1.3372,1.3382,1.5186,1.5186,1.5062,1.625,1.6522,1.6337,1.5676,1.5096,1.4514,1.3862,1.2574,1.1606,1.1587,1.0861,1.0283,1.0283,1.0283,1.0283,1.0283,1.0725,1.0981,1.0981,1.1431,1.1542,1.1019,1.0582,1.0734,1.1669,1.1226,1.1195,1.1711,1.1732,1.149,1.0928,1.145,1.145,1.0908,1.0949,1.0724,0.0,0.0,0.8335,0.7644,0.0,0.7238,0.6426,0.6027,0.5769,0.5273,0.5164,0.4997,0.4426,0.4356,0.434,0.4329,0.4356,0.4349,0.0,0.4519,0.4536,0.4587,0.4674,0.4883,0.517,0.6209,0.7264,0.8081,0.9341,1.0623,1.1735,1.281,1.3674,1.4213,1.4991,1.541,1.541,1.541,1.541,1.541,1.541,1.541,1.541,1.541,1.541,1.541,1.541,1.541,1.541,1.541,1.541,1.54,1.5254,1.4766,1.4029,1.3662,1.3242,1.2881,1.2881,1.2881,1.2881,1.2881,1.2881,1.2881,1.2881,1.2881,1.2881,1.2881,1.2881,1.2978,1.3152,1.3658,1.4247,1.488,1.5466,1.602,1.6423,1.6522,1.6337,1.572,1.5096,1.4514,1.3909,1.2781,1.1904,1.1645,1.1064,1.0596,1.0312,1.0283,1.0428,1.0725,1.0905,1.1132,1.1505,1.1356,1.1057,1.0582,1.0617,1.0843,1.1145,1.1561,1.1876,1.2043,1.1787,1.1657,1.1777,1.1701,1.1402,1.0918,1.1201,1.0998,0.9029,0.9178,0.0,0.8391,0.8223,0.0,0.7099,0.6743,0.65,0.6128,0.5977,0.5865,0.5789,0.5397,0.5107,0.5221,0.4955,0.4636,0.0,0.4519,0.4519,0.4519,0.4551,0.4629,0.4684,0.5875,0.6884,0.7522,0.8792,1.0117,0.0,1.2509,1.3373,1.4145,1.4991,1.541,1.541,1.541,1.541,1.541,1.541,1.541,1.541,1.541,1.541,1.541,1.541,1.541,1.541,1.541,1.541,1.541,1.541,1.4893,1.4048,1.3828,1.3369,1.2881,1.2881,1.2881,1.2881,1.2881,1.2881,1.2881,1.2881,1.2881,1.2881,1.2881,1.2881,1.2881,1.2881,1.3478,1.4154,1.4606,1.5287,1.5976,1.6423,1.6522,1.6337,1.572,1.5096,1.4514,1.3909,1.3044,1.2314,1.1865,1.1426,1.0986,1.0566,1.0508,1.0735,1.1271,1.1271,1.1516,1.2152,1.1931,1.1541,1.1045,1.1111,1.1211,1.1377,1.1879,1.218,1.218,1.1943,1.1943,1.218,1.1943,1.165,1.1387,1.167,1.1338]}]]